[[{"header":{"parameterUnit":"m.s-1","parameterCategory":1,"la1":30.6,"la2":29.2853,"lo1":-89.7004,"lo2":-87.6739,"dy":0.0162,"dx":0.0183,"nx":112,"ny":82,"refTime":"2026-03-15T12:00:00:Z","depth":0,"parameterNumber":2,"parameterNumberName":"U-component_of_WINDS"},"data":[0.0,0.0,0.0,0.0,0.0,0.0,0.0,0.0,0.0,0.0,0.0,0.0,0.0,0.0,0.0,0.0,0.0,0.0,0.0,0.0,0.0,0.0,0.0,0.0,0.0,0.0,0.0,0.0,0.0,0.0,0.0,0.0,0.0,0.0,0.0,0.0,0.0,0.0,0.0,0.0,0.0,0.0,0.0,0.0,0.0,0.0,0.0,0.0,0.0,0.0,0.0,0.0,0.0,0.0,0.0,0.0,0.0,0.0,0.0,0.0,0.0,0.0,0.0,0.0,0.0,0.0,0.0,0.0,0.0,0.0,0.0,0.0,0.0,0.0,0.0,0.0,0.0,0.0,0.0,0.0,0.0,0.0,0.0,0.0,0.0,0.0,0.0,0.0,0.0,0.0,0.3987,0.4313,0.5069,0.5484,0.537,0.6179,0.6297,0.5405,0.0,0.0,0.0,0.0,0.0,0.0,0.0,0.0,0.0,0.0,0.0,0.0,0.0,0.0,0.0,0.0,0.0,0.0,0.0,0.0,0.0,0.0,0.0,0.0,0.0,0.0,0.0,0.0,0.0,0.0,0.0,0.0,0.0,0.0,0.0,0.0,0.0,0.0,0.0,0.0,0.0,0.0,0.0,0.0,0.0,0.0,0.0,0.0,0.0,0.0,0.0,0.0,0.0,0.0,0.0,0.0,0.0,0.0,0.0,0.0,0.0,0.0,0.0,0.0,0.0,0.0,0.0,0.0,0.0,0.0,0.0,0.0,0.0,0.0,0.0,0.0,0.0,0.0,0.0,0.0,0.0,0.0,0.0,0.0,0.0,0.0,0.0,0.0,0.0,0.0,0.0,0.0,0.0,0.0,0.0,0.0,0.0,0.0,0.0,0.0,0.0,0.0,0.0,0.0,0.4054,0.486,0.5451,0.5851,0.6054,0.6425,0.6415,0.5707,0.0,0.0,0.0,0.0,0.0,0.0,0.0,0.0,0.0,0.0,0.0,0.0,0.0,0.0,0.0,0.0,0.0,0.0,0.0,0.0,0.0,0.0,0.0,0.0,0.0,0.0,0.0,0.0,0.0,0.0,0.0,0.0,0.0,0.0,0.0,0.0,0.0,0.0,0.0,0.0,0.0,0.0,0.0,0.0,0.0,0.0,0.0,0.0,0.0,0.0,0.0,0.0,0.0,0.0,0.0,0.0,0.0,0.0,0.0,0.0,0.0,0.0,0.0,0.0,0.0,0.0,0.0,0.0,0.0,0.0,0.0,0.0,0.0,0.0,0.0,0.0,0.0,0.0,0.0,0.0,0.0,0.0,0.0,0.0,0.0,0.0,0.0,0.0,0.0,0.0,0.0,0.0,0.0,0.0,0.0,0.0,0.0,0.0,0.0,0.0,0.0,0.0,0.0,0.3819,0.4291,0.5,0.5457,0.5786,0.605,0.6393,0.6425,0.6,0.6298,0.0,0.0,0.0,0.0,0.0,0.0,0.0,0.0,0.0,0.0,0.0,0.0,0.0,0.0,0.0,0.0,0.0,0.0,0.0,0.0,0.0,0.0,0.0,0.0,0.0,0.0,0.0,0.0,0.0,0.0,0.0,0.0,0.0,0.0,0.0,0.0,0.0,0.0,0.0,0.0,0.0,0.0,0.0,0.0,0.0,0.0,0.0,0.0,0.0,0.0,0.0,0.0,0.0,0.0,0.0,0.0,0.0,0.0,0.0,0.0,0.0,0.0,0.0,0.0,0.0,0.0,0.0,0.0,0.0,0.0,0.0,0.0,0.0,0.0,0.0,0.0,0.0,0.0,0.0,0.0,0.0,0.0,0.0,0.0,0.0,0.0,0.0,0.0,0.0,0.0,0.0,0.0,0.0,0.0,0.0,0.0,0.0,0.0,0.0,0.0,0.0,0.0,0.427,0.4633,0.5072,0.5429,0.5732,0.6005,0.6388,0.6521,0.6201,0.6614,0.0,0.0,0.0,0.0,0.0,0.0,0.0,0.0,0.0,0.0,0.0,0.0,0.0,0.0,0.0,0.0,0.0,0.0,0.0,0.0,0.0,0.0,0.0,0.0,0.0,0.0,0.0,0.0,0.0,0.0,0.0,0.0,0.0,0.0,0.0,0.0,0.0,0.0,0.0,0.0,0.0,0.0,0.0,0.0,0.0,0.0,0.0,0.0,0.0,0.0,0.0,0.0,0.0,0.0,0.0,0.0,0.0,0.0,0.0,0.0,0.0,0.0,0.0,0.0,0.0,0.0,0.0,0.0,0.0,0.0,0.0,0.0,0.0,0.0,0.0,0.0,0.0,0.0,0.0,0.0,0.0,0.0,0.0,0.0,0.0,0.0,0.0,0.0,0.0,0.0,0.0,0.0,0.0,0.0,0.0,0.0,0.0,0.0,0.0,0.0,0.0,0.0,0.4488,0.4967,0.5261,0.5567,0.5845,0.6005,0.6702,0.6873,0.625,0.717,0.0,0.0,0.0,0.0,0.0,0.0,0.0,0.0,0.0,0.0,0.0,0.0,0.0,0.0,0.0,0.0,0.0,0.0,0.0,0.0,0.0,0.0,0.0,0.0,0.0,0.0,0.0,0.0,0.0,0.0,0.0,0.0,0.0,0.0,0.0,0.0,0.0,0.0,0.0,0.0,0.0,0.0,0.0,0.0,0.0,0.0,0.0,0.0,0.0,0.0,0.0,0.0,0.0,0.0,0.0,0.0,0.0,0.0,0.0,0.0,0.0,0.0,0.0,0.0,0.0,0.0,0.0,0.0,0.0,0.0,0.0,0.0,0.0,0.0,0.0,0.0,0.0,0.0,0.0,0.0,0.0,0.0,0.0,0.0,0.0,0.0,0.0,0.0,0.0,0.0,0.0,0.0,0.0,0.0,0.0,0.0,0.0,0.0,0.0,0.0,0.0,0.0,0.4353,0.4881,0.0,0.5887,0.6317,0.6637,0.7067,0.7224,0.7158,0.0,0.0,0.0,0.0,0.0,0.0,0.0,0.0,0.0,0.0,0.0,0.0,0.0,0.0,0.0,0.0,0.0,0.0,0.0,0.0,0.0,0.0,0.0,0.0,0.0,0.0,0.0,0.0,0.0,0.0,0.0,0.0,0.0,0.0,0.0,0.0,0.0,0.0,0.0,0.0,0.0,0.0,0.0,0.0,0.0,0.0,0.0,0.0,0.0,0.0,0.0,0.0,0.0,0.0,0.0,0.0,0.0,0.0,0.0,0.0,0.0,0.0,0.0,0.0,0.0,0.0,0.0,0.0,0.0,0.0,0.0,0.0,0.0,0.0,0.0,0.0,0.0,0.0,0.0,0.0,0.0,0.0,0.0,0.0,0.0,0.0,0.0,0.0,0.0,0.0,0.0,0.0,0.0,0.0,0.0,0.0,0.0,0.0,0.0,0.0,0.0,0.0,0.3953,0.4499,0.503,0.0,0.6056,0.6496,0.679,0.7054,0.7259,0.7301,0.0,0.0,0.0,0.0,0.0,0.0,0.0,0.0,0.0,0.0,0.0,0.0,0.0,0.0,0.0,0.0,0.0,0.0,0.0,0.0,0.0,0.0,0.0,0.0,0.0,0.0,0.0,0.0,0.0,0.0,0.0,0.0,0.0,0.0,0.0,0.0,0.0,0.0,0.0,0.0,0.0,0.0,0.0,0.0,0.0,0.0,0.0,0.0,0.0,0.0,0.0,0.0,0.0,0.0,0.0,0.0,0.0,0.0,0.0,0.0,0.0,0.0,0.0,0.0,0.0,0.0,0.0,0.0,0.0,0.0,0.0,0.0,0.0,0.0,0.0,0.0,0.0,0.0,0.0,0.0,0.0,0.0,0.0,0.0,0.0,0.0,0.0,0.0,0.0,0.0,0.0,0.0,0.0,0.0,0.0,0.0,0.0,0.0,0.0,0.0,0.0,0.0,0.4257,0.5064,0.5595,0.5514,0.6047,0.6359,0.6228,0.676,0.6914,0.0,0.0,0.0,0.0,0.0,0.0,0.0,0.0,0.0,0.0,0.0,0.0,0.0,0.0,0.0,0.0,0.0,0.0,0.0,0.0,0.0,0.0,0.0,0.0,0.0,0.0,0.0,0.0,0.0,0.0,0.0,0.0,0.0,0.0,0.0,0.0,0.0,0.0,0.0,0.0,0.0,0.0,0.0,0.0,0.0,0.0,0.0,0.0,0.0,0.0,0.0,0.0,0.0,0.0,0.0,0.0,0.0,0.0,0.0,0.0,0.0,0.0,0.0,0.0,0.0,0.0,0.0,0.0,0.0,0.0,0.0,0.0,0.0,0.0,0.0,0.0,0.0,0.0,0.0,0.0,0.0,0.0,0.0,0.0,0.0,0.0,0.0,0.0,0.0,0.0,0.0,0.0,0.0,0.0,0.0,0.0,0.0,0.0,0.0,0.0,0.0,0.0,0.0,0.4102,0.487,0.5452,0.5644,0.6274,0.6878,0.7373,0.714,0.7148,0.765,0.0,0.0,0.0,0.0,0.0,0.0,0.0,0.0,0.0,0.0,0.0,0.0,0.0,0.0,0.0,0.0,0.0,0.0,0.0,0.0,0.0,0.0,0.0,0.0,0.0,0.0,0.0,0.0,0.0,0.0,0.0,0.0,0.0,0.0,0.0,0.0,0.0,0.0,0.0,0.0,0.0,0.0,0.0,0.0,0.0,0.0,0.0,0.0,0.0,0.0,0.0,0.0,0.0,0.0,0.0,0.0,0.0,0.0,0.0,0.0,0.0,0.0,0.0,0.0,0.0,0.0,0.0,0.0,0.0,0.0,0.0,0.0,0.0,0.0,0.0,0.0,0.0,0.0,0.0,0.0,0.0,0.0,0.0,0.0,0.0,0.0,0.0,0.0,0.0,0.0,0.0,0.0,0.0,0.0,0.0,0.0,0.0,0.0,0.0,0.0,0.0,0.0,0.4536,0.5357,0.5988,0.6134,0.6742,0.726,0.76,0.7182,0.7044,0.7377,0.0,0.0,0.0,0.0,0.0,0.0,0.0,0.0,0.0,0.0,0.0,0.0,0.0,0.0,0.0,0.0,0.0,0.0,0.0,0.0,0.0,0.0,0.0,0.0,0.0,0.0,0.0,0.0,0.0,0.0,0.0,0.0,0.0,0.0,0.0,0.0,0.0,0.0,0.0,0.0,0.0,0.0,0.0,0.0,0.0,0.0,0.0,0.0,0.0,0.0,0.0,0.0,0.0,0.0,0.0,0.0,0.0,0.0,0.0,0.0,0.0,0.0,0.0,0.0,0.0,0.0,0.0,0.0,0.0,0.0,0.0,0.0,0.0,0.0,0.0,0.0,0.0,0.0,0.0,0.0,0.0,0.0,0.0,0.0,0.0,0.0,0.0,0.0,0.0,0.0,0.0,0.0,0.0,0.0,0.0,0.0,0.0,0.0,0.0,0.0,0.0,0.0,0.5286,0.6206,0.6778,0.6769,0.7281,0.7527,0.7328,0.7049,0.675,0.6363,0.0,0.0,0.0,0.0,0.0,0.0,0.0,0.0,0.0,0.0,0.0,0.0,0.0,0.0,0.0,0.0,0.0,0.0,0.0,0.0,0.0,0.0,0.0,0.0,0.0,0.0,0.0,0.0,0.0,0.0,0.0,0.0,0.0,0.0,0.0,0.0,0.0,0.0,0.0,0.0,0.0,0.0,0.0,0.0,0.0,0.0,0.0,0.0,0.0,0.0,0.0,0.0,0.0,0.0,0.0,0.0,0.0,0.0,0.0,0.0,0.2692,0.0,0.0,0.0,0.0,0.0,0.0,0.0,0.0,0.0,0.0,0.0,0.0,0.0,0.0,0.0,0.0,0.0,0.0,0.0,0.0,0.0,0.0,0.0,0.0,0.0,0.0,0.0,0.0,0.0,0.0,0.0,0.0,0.0,0.0,0.0,0.0,0.0,0.0,0.0,0.0,0.0,0.5071,0.5606,0.6112,0.6526,0.6901,0.7384,0.7938,0.741,0.7141,0.7285,0.6577,0.0,0.0,0.0,0.0,0.0,0.0,0.0,0.0,0.0,0.0,0.0,0.0,0.0,0.0,0.0,0.0,0.0,0.0,0.0,0.0,0.0,0.0,0.0,0.0,0.0,0.0,0.0,0.0,0.0,0.0,0.0,0.0,0.0,0.0,0.0,0.0,0.0,0.0,0.0,0.0,0.0,0.0,0.0,0.0,0.0,0.0,0.0,0.0,0.0,0.0,0.0,0.0,0.0,0.0,0.0,0.0,0.0,0.0,0.0,0.0,0.277,0.0,0.0,0.0,0.0,0.0,0.0,0.0,0.0,0.0,0.0,0.0,0.0,0.0,0.0,0.0,0.0,0.0,0.0,0.0,0.0,0.0,0.0,0.0,0.0,0.0,0.0,0.0,0.0,0.0,0.0,0.0,0.0,0.0,0.0,0.0,0.0,0.0,0.0,0.0,0.0,0.5653,0.6258,0.6696,0.6823,0.707,0.7356,0.7697,0.7284,0.7019,0.7136,0.6546,0.0,0.0,0.0,0.0,0.0,0.0,0.0,0.0,0.0,0.0,0.0,0.0,0.0,0.0,0.0,0.0,0.0,0.0,0.0,0.0,0.0,0.0,0.0,0.0,0.0,0.0,0.0,0.0,0.0,0.0,0.0,0.0,0.0,0.0,0.0,0.0,0.0,0.0,0.0,0.0,0.0,0.0,0.0,0.0,0.0,0.0,0.0,0.0,0.0,0.0,0.0,0.0,0.0,0.3247,0.3242,0.3182,0.3177,0.3334,0.355,0.2842,0.2763,0.2971,0.2167,0.0,0.0,0.0,0.0,0.0,0.0,0.0,0.0,0.0,0.0,0.0,0.0,0.0,0.0,0.0,0.0,0.0,0.0,0.0,0.0,0.0,0.0,0.0,0.0,0.4426,0.445,0.3959,0.0,0.0,0.0,0.0,0.0,0.0,0.0,0.0,0.0,0.0,0.0,0.638,0.707,0.7461,0.7251,0.7363,0.7447,0.7335,0.7139,0.6964,0.6744,0.6442,0.6287,0.0,0.0,0.0,0.0,0.0,0.0,0.0,0.0,0.0,0.0,0.0,0.0,0.0,0.0,0.0,0.0,0.0,0.0,0.0,0.0,0.0,0.0,0.0,0.0,0.0,0.0,0.0,0.0,0.0,0.0,0.0,0.0,0.1839,0.1794,0.0,0.0,0.0,0.0,0.0,0.0,0.0,0.0,0.0,0.0,0.0,0.0,0.0,0.3096,0.3006,0.3254,0.3316,0.3285,0.3349,0.3338,0.3221,0.3184,0.33,0.34,0.3316,0.0,0.35,0.3238,0.0,0.0,0.0,0.0,0.0,0.0,0.0,0.0,0.0,0.0,0.0,0.0,0.0,0.0,0.0,0.0,0.0,0.0,0.0,0.0,0.0,0.0,0.4787,0.5013,0.4978,0.4903,0.0,0.4721,0.4667,0.4578,0.461,0.0,0.0,0.0,0.0,0.0,0.0,0.0,0.6598,0.6768,0.6985,0.7328,0.7412,0.7538,0.7795,0.7694,0.7499,0.7221,0.6781,0.6465,0.629,0.6242,0.0,0.0,0.0,0.0,0.0,0.0,0.0,0.0,0.0,0.0,0.0,0.0,0.0,0.0,0.0,0.0,0.0,0.0,0.0,0.0,0.0,0.0,0.0,0.0,0.0,0.0,0.0,0.0,0.0,0.1774,0.2082,0.2366,0.1682,0.094,0.0,0.0,0.0,0.0,0.0,0.0,0.0,0.0,0.0,0.2311,0.2908,0.3263,0.3327,0.3428,0.3464,0.3484,0.3479,0.3477,0.3422,0.3422,0.3452,0.3504,0.3504,0.3558,0.3555,0.3337,0.3169,0.3007,0.0,0.0,0.0,0.0,0.3054,0.3164,0.3547,0.3679,0.3667,0.3545,0.0,0.0,0.0,0.0,0.0,0.0,0.0,0.0,0.0,0.0,0.5272,0.5499,0.5546,0.5555,0.5555,0.5514,0.53,0.0,0.506,0.5231,0.4597,0.0,0.0,0.0,0.0,0.6221,0.6483,0.6696,0.6823,0.6907,0.6956,0.7083,0.7328,0.7321,0.7252,0.712,0.68,0.6572,0.649,0.6208,0.6107,0.0,0.0,0.0,0.0,0.0,0.0,0.0,0.0,0.0,0.0,0.0,0.0,0.0,0.0,0.0,0.0,0.0,0.0,0.0,0.0,0.0,0.0,0.0,0.0,0.0,0.0,0.0,0.0,0.1765,0.2159,0.282,0.2425,0.1745,0.0,0.0,0.0,0.0,0.0,0.0,0.111,0.2438,0.31,0.2861,0.3171,0.3384,0.3447,0.3477,0.3523,0.3585,0.3613,0.3613,0.3585,0.3585,0.3585,0.3585,0.3585,0.3585,0.358,0.3269,0.3207,0.3234,0.2942,0.288,0.3024,0.3505,0.3729,0.3824,0.4313,0.4519,0.4498,0.4338,0.4304,0.429,0.4212,0.0,0.0,0.0,0.0,0.4904,0.5436,0.5624,0.5743,0.5864,0.6023,0.6099,0.6036,0.607,0.589,0.0,0.5338,0.5577,0.4941,0.0,0.0,0.0,0.0,0.6341,0.6544,0.6787,0.6865,0.6696,0.6702,0.6826,0.6976,0.7098,0.7134,0.7134,0.6934,0.6747,0.6593,0.6265,0.6078,0.6071,0.0,0.0,0.0,0.0,0.0,0.0,0.0,0.0,0.0,0.0,0.0,0.0,0.0,0.0,0.0,0.0,0.0,0.0,0.0,0.0,0.0,0.0,0.0,0.0,0.0,0.0,0.0,0.0,0.0,0.2765,0.2846,0.0,0.0,0.0,0.0,-0.0652,0.1862,0.2928,0.1805,0.272,0.3335,0.3337,0.3392,0.3452,0.3574,0.3738,0.374,0.3585,0.3751,0.3746,0.3585,0.3585,0.3585,0.3585,0.3585,0.3585,0.3574,0.3458,0.3509,0.3752,0.358,0.373,0.3936,0.4088,0.4277,0.4453,0.4515,0.4519,0.4515,0.4508,0.4508,0.4532,0.4616,0.4562,0.0,0.0,0.4777,0.5108,0.5188,0.5756,0.6257,0.6192,0.6271,0.631,0.6076,0.629,0.6352,0.0,0.5497,0.5504,0.5363,0.0,0.552,0.6016,0.6367,0.6671,0.6934,0.6979,0.7027,0.7167,0.7005,0.6983,0.725,0.7404,0.7486,0.7486,0.7473,0.7211,0.6613,0.6573,0.6613,0.6744,0.6104,0.0,0.0,0.0,0.0,0.0,0.0,0.0,0.0,0.0,0.0,0.0,0.0,0.0,0.0,0.0,0.0,0.0,0.0,0.0,0.0,0.0,0.0,0.0,0.0,0.0,0.0,0.0,0.0,0.1884,0.2135,0.0,0.1934,0.198,0.1895,0.1699,0.234,0.2715,0.2605,0.2715,0.2927,0.3185,0.3408,0.3539,0.3585,0.3754,0.3793,0.3751,0.3814,0.3849,0.3811,0.3811,0.387,0.3991,0.3991,0.4047,0.4154,0.3966,0.3919,0.3944,0.411,0.4251,0.4311,0.4365,0.4419,0.4519,0.4519,0.4519,0.4519,0.4519,0.4519,0.4546,0.4646,0.4653,0.4734,0.5074,0.5197,0.5299,0.601,0.6253,0.6395,0.6765,0.6866,0.6889,0.68,0.6762,0.6654,0.6381,0.6345,0.6229,0.5976,0.597,0.6134,0.6308,0.6451,0.6588,0.68,0.6787,0.6943,0.7214,0.719,0.7308,0.7649,0.7722,0.7682,0.7527,0.7513,0.7288,0.6887,0.6867,0.678,0.6679,0.6447,0.6409,0.0,0.0,0.0,0.0,0.0,0.0,0.0,0.0,0.0,0.0,0.0,0.0,0.0,0.0,0.0,0.0,0.0,0.0,0.0,0.0,0.0,0.0,0.0,0.0,0.0,0.0,0.1999,0.2024,0.2223,0.2272,0.2011,0.2696,0.3031,0.2775,0.2742,0.2759,0.2808,0.287,0.3019,0.3244,0.3506,0.364,0.364,0.3757,0.3814,0.3816,0.3895,0.3872,0.3872,0.3997,0.4061,0.4186,0.4244,0.4363,0.4476,0.4389,0.4299,0.427,0.4445,0.4538,0.4601,0.4599,0.4616,0.4609,0.4558,0.4538,0.4587,0.4536,0.4553,0.4558,0.466,0.4691,0.4807,0.5208,0.5317,0.5483,0.6154,0.6524,0.679,0.7057,0.7285,0.7413,0.7314,0.716,0.7084,0.7084,0.6883,0.6641,0.6457,0.6538,0.6737,0.6955,0.6905,0.6925,0.716,0.709,0.7148,0.7472,0.7491,0.7656,0.8056,0.817,0.8096,0.7842,0.7815,0.7589,0.7188,0.6952,0.6783,0.6597,0.6632,0.667,0.6713,0.0,0.0,0.0,0.0,0.0,0.0,0.0,0.0,0.0,0.0,0.0,0.0,0.0,0.0,0.0,0.0,0.0,0.0,0.0,0.0,0.0,0.0,0.0,0.1377,0.2362,0.3191,0.3229,0.3219,0.3203,0.3192,0.3179,0.2912,0.2179,0.3021,0.3299,0.2567,0.319,0.3591,0.3591,0.3757,0.3818,0.3818,0.3879,0.388,0.388,0.3883,0.3886,0.3947,0.4133,0.4198,0.4256,0.4436,0.4494,0.4555,0.4677,0.4738,0.4722,0.4575,0.4578,0.4714,0.4863,0.4918,0.4897,0.4748,0.4697,0.4674,0.458,0.4632,0.4697,0.4697,0.4697,0.4697,0.4697,0.5155,0.5631,0.5631,0.6544,0.7405,0.7046,0.7506,0.7891,0.7515,0.7513,0.7608,0.7608,0.7013,0.6631,0.6891,0.7038,0.7325,0.7916,0.7713,0.0,0.8154,0.7889,0.778,0.7908,0.7908,0.8076,0.8427,0.8657,0.8691,0.8427,0.8414,0.8138,0.7533,0.6968,0.6651,0.6651,0.6781,0.6742,0.6526,0.0,0.0,0.0,0.0,0.0,0.0,0.0,0.0,0.0,0.0,0.0,0.0,0.0,0.0,0.0,0.0,0.0,0.0,0.0,0.0,0.0,0.2832,0.311,0.2632,0.3003,0.3271,0.3331,0.3282,0.3209,0.3224,0.331,0.3238,0.3072,0.3366,0.3527,0.3302,0.3602,0.3765,0.3765,0.3822,0.3884,0.3884,0.4007,0.4066,0.4069,0.4156,0.42,0.42,0.4392,0.4522,0.4655,0.4844,0.5039,0.5162,0.5055,0.5008,0.4994,0.485,0.4793,0.486,0.4904,0.4918,0.4914,0.487,0.4857,0.485,0.4806,0.4939,0.503,0.4917,0.5037,0.5213,0.509,0.5444,0.5988,0.6431,0.7028,0.7593,0.7899,0.8149,0.8235,0.8158,0.7987,0.7896,0.7896,0.7596,0.7372,0.7408,0.7427,0.7525,0.7769,0.7724,0.0,0.794,0.788,0.8041,0.8524,0.8564,0.8684,0.9079,0.918,0.8969,0.8373,0.8324,0.8104,0.7578,0.7565,0.7565,0.7565,0.7565,0.7277,0.0,0.0,0.0,0.0,0.0,0.0,0.0,0.0,0.0,0.0,0.0,0.0,0.0,0.0,0.0,0.0,0.0,0.0,0.0,0.0,0.0,0.0,0.3266,0.357,0.3652,0.3604,0.3505,0.355,0.3496,0.3468,0.3467,0.354,0.3528,0.3477,0.3545,0.3604,0.3707,0.3776,0.3837,0.3827,0.3947,0.4009,0.4009,0.4196,0.4322,0.4322,0.4463,0.45,0.45,0.4694,0.4824,0.496,0.516,0.5292,0.5422,0.5264,0.5226,0.0,0.0,0.0,0.0,0.0,0.5104,0.5098,0.503,0.5009,0.5123,0.506,0.5336,0.5695,0.5578,0.588,0.6237,0.6173,0.6447,0.6818,0.716,0.7555,0.793,0.8269,0.8457,0.8533,0.8474,0.8404,0.8345,0.8345,0.8252,0.0,0.8191,0.7944,0.7817,0.8101,0.8085,0.8147,0.8494,0.842,0.8524,0.8922,0.8962,0.9077,0.9302,0.9432,0.0,0.0,0.0,0.8387,0.7748,0.7829,0.0,0.0,0.0,0.0,0.0,0.0,0.0,0.0,0.6617,0.6408,0.0,0.0,0.0,0.0,0.0,0.0,0.0,0.0,0.0,0.0,0.0,0.0,0.0,0.0,0.0,0.0,0.367,0.3961,0.4435,0.42,0.3887,0.3819,0.3831,0.3833,0.384,0.3796,0.3749,0.3658,0.366,0.371,0.3826,0.0,0.0,0.0,0.0,0.4137,0.4137,0.4438,0.4625,0.4625,0.4761,0.4831,0.4831,0.5024,0.5087,0.5087,0.5292,0.5428,0.5428,0.5428,0.5428,0.5411,0.5209,0.5155,0.5172,0.5373,0.5428,0.5408,0.5267,0.0,0.0,0.5377,0.5933,0.6601,0.6661,0.714,0.7615,0.756,0.7714,0.7865,0.7865,0.8219,0.8546,0.8383,0.8622,0.8798,0.8679,0.8712,0.8804,0.8804,0.8804,0.8857,0.8956,0.847,0.8203,0.8776,0.8635,0.8707,0.9282,0.9172,0.9075,0.926,0.0,0.0,0.926,0.9573,0.9587,0.9235,0.9127,0.8755,0.7989,0.7952,0.8088,0.8384,0.8265,0.8247,0.8472,0.8537,0.8361,0.8053,0.7322,0.696,0.0,0.0,0.0,0.0,0.0,0.0,0.0,0.0,0.0,0.0,0.0,0.0,0.0,0.0,0.0,0.3976,0.4449,0.4778,0.4677,0.4667,0.448,0.4042,0.3971,0.3938,0.3962,0.3965,0.3955,0.3946,0.4016,0.4071,0.414,0.4247,0.4313,0.4457,0.433,0.4328,0.4524,0.4547,0.4625,0.4625,0.0,0.0,0.4831,0.5024,0.5087,0.5087,0.5292,0.5428,0.5428,0.5428,0.5491,0.555,0.5391,0.538,0.5508,0.554,0.5686,0.5822,0.5789,0.5778,0.5902,0.6379,0.681,0.7131,0.758,0.7963,0.0,0.8101,0.8465,0.8804,0.8804,0.9151,0.942,0.942,0.926,0.9103,0.9097,0.8918,0.8804,0.8804,0.891,0.8962,0.9008,0.886,0.8871,0.9093,0.9058,0.9117,0.9228,0.9201,0.9256,0.9561,0.9589,0.9644,0.9745,0.9802,0.9656,0.9249,0.8853,0.8471,0.8158,0.8292,0.8334,0.825,0.8482,0.8472,0.8245,0.8652,0.8683,0.8382,0.815,0.801,0.0,0.0,0.0,0.0,0.0,0.0,0.0,0.0,0.0,0.0,0.0,0.2857,0.3006,0.0,0.406,0.4362,0.4638,0.4824,0.4904,0.4907,0.4761,0.4419,0.4432,0.4409,0.4235,0.4301,0.4309,0.4258,0.4323,0.4384,0.4394,0.4466,0.4531,0.4727,0.4599,0.4631,0.4694,0.4824,0.4824,0.4824,0.5027,0.5096,0.5096,0.5289,0.5352,0.5352,0.5557,0.5627,0.5627,0.5627,0.569,0.5752,0.569,0.569,0.5752,0.5752,0.5822,0.5888,0.5888,0.5954,0.6083,0.6474,0.6929,0.7386,0.7642,0.8355,0.9005,0.8877,0.9364,0.9831,0.9831,0.9932,1.0078,1.0078,0.9846,0.9685,0.9685,0.9569,0.9522,0.9522,0.957,0.9576,0.947,0.9442,0.9393,0.9232,0.9211,0.9211,0.9309,0.9309,0.9372,0.9635,0.9649,0.9649,0.9756,0.9756,0.9678,0.9416,0.9184,0.9016,0.8912,0.9009,0.9016,0.8912,0.8926,0.8853,0.8692,0.8951,0.8974,0.8871,0.8925,0.8813,0.0,0.0,0.0,0.0,0.0,0.0,0.0,0.0,0.2893,0.2721,0.3011,0.3295,0.329,0.3658,0.4076,0.4632,0.4629,0.4695,0.5116,0.5116,0.5016,0.4889,0.4926,0.4879,0.4669,0.472,0.4742,0.4584,0.4584,0.4643,0.472,0.4727,0.4779,0.4894,0.4831,0.4827,0.4827,0.5024,0.5087,0.5087,0.5292,0.5425,0.5425,0.555,0.5617,0.5683,0.5822,0.5911,0.594,0.594,0.6026,0.6056,0.6056,0.6187,0.6309,0.6047,0.5954,0.6028,0.6187,0.6398,0.6597,0.6897,0.7503,0.8093,0.8179,0.8944,0.9841,0.9792,1.0231,1.0688,1.0688,1.0629,1.0566,1.0566,1.0398,1.0291,1.0291,1.0242,1.02,1.02,1.02,1.0172,1.0029,1.0034,0.985,0.9372,0.9263,0.9309,0.9413,0.9465,0.9465,0.9562,0.9614,0.9614,0.9621,0.9614,0.9585,0.9585,0.9526,0.9504,0.9438,0.9431,0.9431,0.9482,0.9313,0.9274,0.9274,0.9333,0.9363,0.937,0.9673,0.9489,0.3727,0.3538,0.3393,0.3378,0.3278,0.3189,0.0,0.0,0.2976,0.297,0.3009,0.3184,0.355,0.3653,0.3904,0.4732,0.4739,0.4905,0.5445,0.5526,0.5525,0.5564,0.535,0.5151,0.5115,0.5143,0.5092,0.4851,0.4981,0.5044,0.5058,0.5064,0.514,0.5296,0.4964,0.4894,0.5087,0.5087,0.5087,0.5087,0.5292,0.5491,0.555,0.5617,0.5686,0.5888,0.5888,0.5978,0.6184,0.6184,0.634,0.6616,0.6616,0.7174,0.7832,0.6593,0.6214,0.644,0.7395,0.7662,0.7962,0.9456,1.0012,1.0176,1.0612,1.0863,1.1012,1.0939,1.0996,1.1059,1.1059,1.1038,1.101,1.101,1.0772,1.0548,1.0548,1.039,1.02,1.02,1.0315,1.0358,1.0372,1.0422,1.0324,0.9657,0.9562,0.9562,0.9562,0.9562,0.9562,0.9614,0.9614,0.9673,0.9792,0.9673,0.9555,0.9433,0.9318,0.9094,0.8802,0.8794,0.8835,0.8977,0.9231,0.9415,0.9562,0.9802,0.9894,0.9902,1.0325,1.0143,0.3968,0.0,0.0,0.0,0.3547,0.3559,0.3547,0.3516,0.3439,0.3282,0.3717,0.4095,0.4149,0.4583,0.5014,0.0,0.5293,0.5353,0.5649,0.567,0.5677,0.5804,0.5787,0.5708,0.553,0.5564,0.5585,0.5459,0.5524,0.5552,0.555,0.5554,0.5624,0.569,0.5557,0.5491,0.5554,0.5554,0.5554,0.5554,0.5624,0.5807,0.5966,0.603,0.6218,0.6521,0.6521,0.6843,0.7333,0.7333,0.7724,0.8287,0.8423,0.8704,0.8964,0.7812,0.7678,0.8235,0.8737,0.8975,0.906,0.9921,1.0164,1.0215,1.0449,1.0642,1.0817,1.0763,1.0937,1.1122,1.1122,1.1185,1.1247,1.1247,1.121,1.1171,1.1171,1.107,1.1037,1.1097,1.1158,1.1212,1.1085,1.1165,1.1,1.0527,1.0124,0.9899,1.0021,0.9851,0.9732,0.9836,0.9836,0.9836,0.9895,0.9888,0.9835,0.9751,0.97,0.9582,0.944,0.944,0.949,0.9539,0.9776,0.9953,1.0004,1.0381,1.059,1.0598,1.1059,1.1138,0.4222,0.0,0.0,0.4072,0.4148,0.4362,0.431,0.4195,0.4084,0.4087,0.4494,0.4897,0.4846,0.5289,0.5677,0.5845,0.5677,0.5631,0.5883,0.5846,0.5798,0.5924,0.6059,0.6091,0.5888,0.5921,0.5954,0.5892,0.5888,0.5888,0.5888,0.5888,0.5888,0.5888,0.5888,0.5914,0.5959,0.5959,0.5981,0.6026,0.6026,0.6158,0.6352,0.6757,0.7106,0.7442,0.7442,0.7904,0.8527,0.8317,0.8628,0.9246,0.9389,0.9532,0.9674,0.8975,0.8959,0.934,0.9757,0.978,0.9797,1.0361,1.0526,1.0578,1.0715,1.0898,1.1129,1.1049,1.1214,1.1375,1.1439,1.1437,1.1428,1.149,1.1622,1.1747,1.1747,1.1747,1.1747,1.1872,1.1934,1.1912,1.1797,1.1871,1.1846,1.1596,1.1084,1.069,1.0414,1.0106,1.0007,1.0102,1.0154,1.0154,1.0205,1.0154,1.0154,1.0205,1.0154,1.0154,1.0205,1.0205,1.0205,1.0257,1.0411,1.0518,1.0709,1.1003,1.1333,1.1602,1.2086,1.2479,0.0,0.0,0.5171,0.4828,0.5349,0.5892,0.5789,0.5309,0.5054,0.5601,0.5277,0.5062,0.5664,0.55,0.5445,0.5946,0.5614,0.5512,0.6169,0.6191,0.6088,0.6096,0.6121,0.6136,0.0,0.6177,0.6083,0.5892,0.5888,0.5888,0.5888,0.5888,0.5888,0.5888,0.5888,0.597,0.6203,0.6207,0.6282,0.6362,0.6362,0.6512,0.6738,0.7726,0.8282,0.8483,0.8634,0.8974,0.9254,0.8607,0.851,0.8756,0.8756,0.9216,0.99,0.9825,0.9526,0.9227,1.017,1.0113,0.9868,1.1439,1.1903,1.1998,1.2508,1.2628,1.2627,1.2456,1.2204,1.2021,1.2223,1.2049,1.1802,1.2058,1.2065,1.2065,1.2065,1.2065,1.2065,1.2058,1.2182,1.2297,1.229,1.2536,1.2781,1.2773,1.256,1.2004,1.0724,1.0415,1.0316,1.047,1.047,1.0522,1.0667,1.0573,1.0522,1.0667,1.0573,1.0522,1.0667,1.0667,1.0718,1.0871,1.0871,1.1147,1.1648,1.1657,1.2173,1.315,1.3476,1.4204,0.0,0.0,0.6117,0.6042,0.6201,0.6367,0.6318,0.6098,0.5928,0.6145,0.5823,0.5593,0.5875,0.6075,0.6145,0.6149,0.6425,0.6663,0.6549,0.6716,0.669,0.6258,0.6462,0.0,0.0,0.0,0.0,0.621,0.6218,0.6218,0.6218,0.6218,0.6218,0.6218,0.6218,0.6301,0.6543,0.6555,0.6642,0.6809,0.6997,0.72,0.7423,0.8065,0.8347,0.8417,0.8639,0.9129,0.9649,0.9505,0.9766,1.0282,1.0432,1.0657,1.0962,1.1484,1.1439,1.107,1.1528,1.156,1.1573,1.2638,1.2973,1.3025,1.3367,1.3256,1.3127,1.3231,1.2961,1.2772,1.2838,1.2879,1.2791,1.2639,1.264,1.2696,1.2414,1.2367,1.2428,1.256,1.2613,1.2674,1.2911,1.2981,1.2981,1.3094,1.2906,1.243,1.1837,1.1502,1.1375,1.1427,1.1114,1.0972,1.1074,1.0972,1.0972,1.1074,1.1074,1.1074,1.1124,1.1124,1.1234,1.1584,1.1636,1.193,1.2373,1.2671,1.3191,1.383,1.4411,1.5061,0.0,0.6723,0.7095,0.7137,0.7205,0.7283,0.702,0.6637,0.6362,0.647,0.6095,0.594,0.653,0.6805,0.6929,0.6877,0.729,0.748,0.7027,0.718,0.7101,0.6613,0.6823,0.682,0.0,0.0,0.0,0.6535,0.6482,0.6548,0.6548,0.6552,0.6552,0.6552,0.6547,0.6666,0.6908,0.6846,0.7044,0.7294,0.7633,0.7913,0.8062,0.8642,0.9008,0.9084,0.9231,0.9685,1.0218,1.0293,1.0663,1.1111,1.1558,1.1706,1.1781,1.2305,1.2305,1.215,1.2452,1.2452,1.2452,1.3127,1.3419,1.3492,1.3783,1.3784,1.3752,1.383,1.3723,1.3528,1.352,1.3561,1.3537,1.3314,1.3388,1.3348,1.2994,1.2913,1.2943,1.3005,1.3103,1.3224,1.3459,1.3467,1.3528,1.37,1.3569,1.3223,1.2663,1.2388,1.2191,1.2244,1.1921,1.1731,1.1644,1.1584,1.1524,1.1436,1.1557,1.1687,1.1729,1.2109,1.2452,1.2697,1.3057,1.3421,1.3846,1.4156,1.4637,1.5299,1.577,1.6255,0.7505,0.786,0.8119,0.8184,0.8423,0.8514,0.7919,0.7009,0.6421,0.6676,0.6308,0.627,0.0,0.0,0.7672,0.7998,0.8114,0.7966,0.7483,0.7518,0.7438,0.0,0.0,0.0,0.0,0.0,0.0,0.6793,0.0,0.6806,0.6881,0.6946,0.6951,0.6959,0.6933,0.7047,0.7237,0.7216,0.7476,0.788,0.8255,0.8403,0.8479,0.9463,0.9992,1.0218,1.0363,1.0588,1.0887,1.1037,1.1111,1.1254,1.2003,1.2298,1.2298,1.2372,1.2378,1.2445,1.2893,1.2746,1.2452,1.3046,1.3266,1.3411,1.3985,1.4281,1.4433,1.4425,1.4332,1.4295,1.4425,1.4242,1.4048,1.4239,1.4305,1.4197,1.375,1.3794,1.3756,1.3456,1.3623,1.3856,1.383,1.4079,1.4387,1.4506,1.4506,1.4191,1.3406,1.2954,1.2829,1.2939,1.2921,1.2761,1.2396,1.2369,1.22,1.1808,1.2155,1.2404,1.2543,1.3633,1.4228,1.4257,1.4956,1.5542,1.5921,1.5921,1.6427,1.7379,1.7435,1.7678,0.8406,0.889,0.9396,0.9475,0.9504,0.9341,0.8866,0.8572,0.8397,0.8331,0.778,0.7408,0.0,0.0,0.0,0.7335,0.8132,0.0,0.7898,0.81,0.0,0.7871,0.0,0.795,0.7504,0.7514,0.0,0.0,0.7204,0.7073,0.7138,0.7265,0.7404,0.7562,0.7405,0.7521,0.7865,0.7851,0.8053,0.8479,0.8551,0.8784,0.9094,0.9468,0.9771,0.9992,1.0218,1.0663,1.126,1.1335,1.17,1.2204,1.2425,1.2652,1.2799,1.3164,1.3462,1.368,1.4209,1.384,1.3317,1.3985,1.4209,1.4281,1.4569,1.4721,1.4792,1.4919,1.4996,1.4931,1.4993,1.5146,1.5221,1.501,1.5145,1.53,1.485,1.4836,1.481,1.4705,1.4648,1.4478,1.4003,1.4309,1.4606,1.4478,1.4734,1.4706,1.425,1.3811,1.3623,1.3614,1.3304,1.3086,1.3212,1.3086,1.3094,1.3249,1.3343,1.3453,1.3443,1.4106,1.4633,1.4994,1.5614,1.6094,1.6507,1.6507,1.6804,1.7379,1.7556,1.7897,0.9547,0.985,1.0067,1.0273,1.0087,0.9717,0.9031,0.8709,0.8462,0.8152,0.7606,0.0,0.0,0.0,0.0,0.0,0.0,0.0,0.834,0.8475,0.863,0.0,0.8623,0.0,0.8106,0.8112,0.8101,0.0,0.7596,0.7466,0.7526,0.7657,0.7819,0.804,0.7926,0.8032,0.837,0.842,0.8627,0.8851,0.9008,0.9241,0.9544,0.9771,1.0143,1.0588,0.0,1.1111,1.1855,1.2291,1.2725,1.3164,1.3593,1.381,1.3962,1.433,1.4553,1.4697,1.5284,1.5062,1.4689,1.4848,1.4927,1.4999,1.515,1.5292,1.5426,1.5568,1.563,1.57,1.57,1.585,1.5948,1.5722,1.5876,1.5907,1.5517,1.5503,1.5471,1.525,1.5249,1.5026,1.4501,1.4666,1.4784,1.4725,1.4911,1.4911,1.4743,1.4529,1.438,1.438,1.4127,1.3923,1.3913,1.3839,1.3819,1.3784,1.3955,1.406,1.406,1.5073,1.5779,1.6061,1.6917,1.7483,1.7688,1.7688,1.7863,1.8104,1.8278,1.8623,1.0639,1.0689,1.0458,1.0586,1.0395,0.985,0.8919,0.8305,0.7853,0.7517,0.0,0.0,0.7406,0.0,0.8098,0.7925,0.0,0.9184,0.8774,0.8715,0.8801,0.9041,0.9,0.8908,0.8624,0.877,0.87,0.8366,0.8047,0.7922,0.8052,0.8117,0.8149,0.8368,0.8424,0.852,0.8732,0.8912,0.9079,0.915,0.9463,0.9771,1.0067,1.0293,1.0812,1.1558,1.1558,1.1929,1.2592,1.347,1.3977,1.4122,1.4991,1.5275,1.5346,1.5568,1.5647,1.5638,1.5991,1.6132,1.6061,1.5488,1.5488,1.5647,1.5647,1.5859,1.6132,1.6132,1.6202,1.6272,1.6272,1.6342,1.6412,1.6412,1.6412,1.6392,1.6111,1.6107,1.6072,1.552,1.5548,1.5529,1.5122,1.5067,1.5039,1.5039,1.5029,1.5029,1.5029,1.5029,1.497,1.497,1.497,1.4896,1.4535,1.4506,1.4345,1.401,1.4344,1.4554,1.4667,1.6238,1.7123,1.7224,1.8441,1.904,1.904,1.904,1.904,1.9052,1.917,1.9502,1.081,1.0994,1.0981,1.0415,1.0549,1.0477,0.9442,0.9118,0.0,0.0,0.0,0.7576,0.7598,0.8094,0.0,0.7294,0.0,0.0,0.0,0.0,0.9038,0.0,0.0,0.0,0.0,0.0,0.0,0.0,0.8823,0.87,0.8447,0.8576,0.8619,0.8518,0.8938,0.9041,0.896,0.915,0.9392,0.9765,0.9841,1.0293,1.1111,1.1186,1.1632,1.2372,1.2579,0.0,1.384,1.4129,1.4705,1.5434,1.5655,1.5859,1.6132,1.6132,1.6132,1.6202,1.6272,1.6272,1.6272,1.6132,1.6132,1.6132,1.6132,1.6202,1.6272,1.6272,1.6272,1.6272,1.6272,1.656,1.6769,1.6769,1.7047,1.7314,1.7239,1.722,1.6975,1.6185,1.6088,1.5955,1.5548,1.5317,1.5156,1.5156,1.5254,1.5362,1.5362,1.5137,1.497,1.497,1.497,1.501,1.5051,1.5051,1.5061,1.5138,1.5206,1.5476,1.6095,1.6901,1.76,1.8255,1.8975,1.9316,1.9316,1.9316,1.9316,1.9316,1.9368,1.9662,1.0859,1.1141,1.1267,1.0795,1.0863,1.0771,0.9981,0.0,0.0,0.0,0.0,0.8026,0.8013,0.0,0.0,0.0,0.0,0.0,0.0,0.0,0.0,0.0,0.0,0.0,0.0,0.0,0.0,0.0,0.9087,0.8943,0.8759,0.8958,0.9081,0.8991,0.9466,0.9639,0.9561,0.9798,0.9992,1.0218,1.0218,1.0663,1.1558,1.1632,1.2291,1.3397,1.3535,1.4114,1.4848,1.4999,1.5426,1.5929,1.6,1.614,1.6342,1.6403,1.6473,1.6473,1.6691,1.676,1.676,1.6908,1.6769,1.6621,1.6621,1.6769,1.6908,1.6908,1.6908,1.6908,1.6908,1.7047,1.7185,1.7185,1.7332,1.747,1.747,1.7358,1.7083,1.6443,1.6201,1.5984,1.5561,1.538,1.5313,1.5313,1.543,1.5546,1.5546,1.5498,1.5439,1.5381,1.5381,1.5439,1.5566,1.5836,1.6046,1.6151,1.6358,1.6687,1.709,1.7644,1.8147,1.8471,1.9081,1.942,1.942,1.9473,1.9512,1.9525,1.9967,2.0445,1.0948,1.1116,1.1193,1.0931,1.0898,1.0814,1.0159,0.9814,0.0,0.0,0.0,0.8128,0.0,0.0,0.0,0.0,0.0,0.0,0.0,0.0,0.0,0.0,0.0,0.0,0.0,0.0,0.0,0.0,0.922,0.9036,0.8989,0.9137,0.9268,0.9308,0.9805,1.0067,1.0067,1.0364,1.0513,1.0594,1.0807,1.1329,1.2077,1.2439,1.3317,1.4482,1.4625,1.5062,1.5638,1.5859,1.6,1.6202,1.6342,1.6412,1.6482,1.6673,1.6751,1.6821,1.7166,1.7245,1.7314,1.747,1.7263,1.7047,1.7047,1.7263,1.747,1.747,1.747,1.747,1.747,1.7539,1.7529,1.7608,1.7608,1.7579,1.7493,1.7341,1.7031,1.6596,1.6296,1.6017,1.5674,1.5537,1.5536,1.5536,1.5662,1.5788,1.5894,1.6009,1.6124,1.6171,1.6009,1.5951,1.6066,1.6606,1.6989,1.6989,1.7413,1.7731,1.7895,1.8352,1.8685,1.8845,1.9344,1.9577,1.9577,1.9668,1.9708,1.9733,2.0547,2.1212,1.1183,1.0862,1.0363,1.0164,1.0319,1.0368,0.9658,0.0,0.0,0.0,0.8514,0.7799,0.8094,0.0,0.0,0.0,0.0,0.0,0.0,0.0,0.0,0.0,0.0,0.0,0.0,0.0,0.0,0.0,0.922,0.9015,0.8927,0.8765,0.876,0.9045,0.9553,0.9816,0.9816,1.0279,1.0588,1.0812,1.1687,1.2572,1.3382,1.425,1.4974,1.5621,1.5842,1.5991,0.0,1.6211,1.6342,1.6542,1.6533,1.6821,1.7097,1.7166,1.7245,1.7392,1.747,1.747,1.747,1.747,1.747,1.747,1.747,1.747,1.747,1.747,1.747,1.747,1.747,1.7588,1.7716,1.794,1.794,1.7833,1.7519,1.7412,1.7321,1.6997,1.6614,1.6307,1.6387,1.6117,1.5856,1.5856,1.5856,1.6077,1.6606,1.6719,1.6989,1.7644,1.709,1.6719,1.6719,1.7202,1.7523,1.7523,1.7677,1.8089,1.8744,1.898,1.9371,2.0016,2.008,2.0131,2.0131,2.0131,2.0131,2.0144,2.0809,2.1373,1.104,1.0938,1.0804,1.0525,1.0105,0.9851,0.9898,0.0,0.0,0.9422,0.883,0.8324,0.8682,0.8606,0.0,0.0,0.0,0.0,0.0,0.0,0.0,0.0,0.0,0.0,0.0,0.0,0.0,0.0,0.9108,0.8956,0.8777,0.8865,0.9072,0.9466,0.9988,1.0333,1.0471,1.0997,1.126,1.1335,1.2204,1.3011,1.3673,1.4617,1.5409,1.5991,1.6132,1.6272,0.0,1.6473,1.6682,1.6959,1.6959,1.7107,1.7392,1.7392,1.7461,1.7539,1.7588,1.7657,1.7657,1.7735,1.7803,1.7803,1.7657,1.7725,1.7803,1.7803,1.7803,1.7803,1.7803,1.793,1.8056,1.8134,1.8212,1.823,1.8128,1.768,1.7252,1.7136,1.6537,1.6058,1.6117,1.6035,1.5914,1.5914,1.6533,1.7154,1.7546,1.7923,1.8362,1.8751,1.7978,1.7534,1.7688,1.8244,1.862,1.8661,1.9032,1.9359,1.9683,1.9734,1.9901,2.0182,2.0182,2.0182,2.0182,2.063,2.0862,2.0875,2.1885,2.2483,1.0976,1.0986,1.1138,1.0932,1.0223,0.966,0.0,0.0,0.8677,0.8933,0.8778,0.8679,0.883,0.885,0.8898,0.0,0.0,0.0,0.0,0.0,0.0,0.0,0.0,0.0,0.0,0.0,0.0,0.9279,0.9203,0.912,0.8857,0.9028,0.9224,0.9488,1.0097,1.0486,1.0691,1.1316,1.1781,1.207,1.2938,1.3665,1.4243,1.5259,1.5982,1.6412,1.6551,1.6691,0.0,1.689,1.7028,1.7314,1.7314,1.7382,1.751,1.7464,1.7417,1.7484,1.761,1.7514,1.7456,1.7852,1.793,1.7842,1.7881,1.793,1.8008,1.8008,1.8008,1.8076,1.8144,1.8279,1.8337,1.8337,1.8405,1.8482,1.8482,1.7891,1.7423,1.7486,1.6769,1.6222,1.628,1.6226,1.6185,1.6366,1.7333,1.8162,1.8654,1.9285,1.9781,2.014,1.9526,1.9005,1.8632,1.9162,1.954,1.9643,2.008,2.0361,2.0528,2.0424,2.0411,2.0579,2.0592,2.0592,2.0592,2.1289,2.168,2.1733,2.2766,2.3428,1.121,1.0964,1.0967,1.1239,1.0702,1.0002,0.0,0.9295,0.8705,0.77,0.8084,0.8514,0.8184,0.8468,0.8898,0.0,0.0,0.0,0.0,0.0,0.0,0.0,0.0,0.0,0.0,0.0,0.0,0.9726,0.9707,0.0,0.9214,0.9195,0.9026,0.8745,0.946,1.0007,1.0207,1.1006,1.1922,1.2865,1.3875,1.4736,1.5534,1.6473,1.6968,1.7166,1.7166,1.7314,0.0,1.747,1.747,1.747,1.747,1.7588,1.7658,1.7244,1.7242,1.7393,1.7393,1.7109,1.6821,1.7734,1.7734,1.7527,1.814,1.8144,1.8008,1.8008,1.8134,1.8337,1.8482,1.8482,1.8482,1.8482,1.8482,1.8482,1.8482,1.8177,1.792,1.8049,1.74,1.6907,1.7214,1.6885,1.6785,1.7403,1.8049,1.8862,1.9924,2.0685,2.1319,2.1937,2.1979,2.1234,1.9522,1.9862,2.0182,2.0182,2.0398,2.072,2.1276,2.0912,2.0923,2.1498,2.1498,2.1498,2.1511,2.2113,2.2441,2.2577,2.3197,2.3891,1.1565,1.1389,1.1278,1.117,1.0167,0.9278,0.9438,0.8352,0.7338,0.7458,0.7664,0.7883,0.8078,0.8468,0.8898,0.9137,0.0,0.0,0.0,0.0,0.0,0.0,0.0,0.0,0.0,0.0,1.0142,0.9932,0.9871,0.9723,0.9567,0.9368,0.9266,0.9149,0.9843,1.0594,1.1493,1.2131,1.3014,1.4099,1.5029,1.5613,1.5903,1.683,1.7323,1.7392,1.7392,1.7461,1.747,1.747,1.7529,1.7647,1.7647,1.7552,1.7492,1.7356,1.7122,1.6982,1.7285,1.735,1.7376,1.8024,1.818,1.8168,1.8365,1.8337,1.8202,1.8347,1.8414,1.8482,1.8482,1.8617,1.8674,1.8674,1.8808,1.8942,1.8942,1.8658,1.8466,1.8466,1.8093,1.7785,1.7917,1.791,1.8084,1.8559,1.9643,2.0641,2.1464,2.2122,2.2657,2.2975,2.2719,2.2204,2.1358,2.1198,2.1134,2.1224,2.1275,2.1419,2.155,2.1865,2.2062,2.2247,2.2353,2.2406,2.2406,2.3016,2.3561,2.4115,2.4303,2.4547,0.0,1.148,1.1508,1.1054,0.9987,0.9072,0.8908,0.7647,0.6586,0.6737,0.688,0.7109,0.746,0.797,0.8425,0.8821,0.0,0.0,0.0,0.0,0.0,0.0,0.0,0.0,0.0,0.0,1.0371,1.0238,1.02,1.0056,0.989,0.9708,0.9558,0.9512,0.994,1.0752,1.2014,1.2582,1.3628,1.5037,1.5613,1.6114,1.6464,1.7107,1.7461,1.7588,1.7588,1.7598,0.0,1.7676,1.7735,1.7784,1.7784,1.7774,1.7578,1.7321,1.7189,1.7047,1.7293,1.7387,1.7566,1.8015,1.8121,1.8112,1.8112,1.8211,1.8405,1.8549,1.8607,1.8607,1.8674,1.8875,1.9008,1.9008,1.9142,1.9274,1.9274,1.9186,1.9115,1.9361,1.9079,1.8916,1.921,1.9306,1.9536,2.0064,2.1079,2.203,2.2677,2.3295,2.3778,2.396,2.3725,2.3444,2.3292,2.2498,2.2036,2.2206,2.1928,2.2008,2.2512,2.2392,2.2552,2.3057,2.3165,2.3219,2.3313,2.3931,2.4471,2.4948,2.5018,2.5131,0.0,1.1163,1.1531,1.0747,0.9995,0.9204,0.8213,0.7199,0.0,0.5677,0.5891,0.6247,0.6489,0.7065,0.77,0.8306,0.0,0.0,0.0,0.0,0.0,0.0,0.0,0.0,0.0,1.0364,1.0624,1.0624,1.0624,1.0441,1.0167,1.0147,1.002,0.9811,1.0021,1.0752,1.2014,1.2492,1.3808,1.5903,1.5903,1.6385,1.7189,1.7198,1.7375,0.0,1.7648,1.7813,1.7969,1.7998,1.8008,1.8008,1.8008,1.7988,1.7871,1.7318,1.7312,1.7571,1.7309,1.7222,1.7355,1.7779,1.7701,1.7533,1.7533,1.7944,1.8566,1.8726,1.8736,1.8824,1.8982,1.9135,1.9299,1.9299,1.9452,1.9605,1.9605,1.9671,1.9922,2.0537,2.0347,2.0327,2.1044,2.1005,2.108,2.1685,2.24,2.3064,2.3618,2.4247,2.4677,2.4835,2.4835,2.4892,2.5061,2.3716,2.3004,2.319,2.2494,2.263,2.3864,2.2764,2.2723,2.3999,2.4026,2.4109,2.4245,2.4942,2.523,2.523,2.5425,2.555,0.8961,0.0,1.0114,1.0068,0.9154,0.8125,0.0,0.6586,0.5453,0.0,0.0,0.0,0.0,0.0,0.0,0.0,0.0,0.0,0.0,0.0,0.0,0.0,0.0,0.0,0.0,1.0561,1.0624,1.0624,1.0624,1.0598,1.0461,1.0454,1.067,1.1081,1.11,1.1755,1.298,1.3275,1.4544,1.6621,1.6968,1.7017,1.6911,1.7187,1.7212,1.6977,1.7429,1.7576,1.7559,1.8006,1.8144,1.8008,1.8144,1.7994,1.7678,1.7666,1.7564,1.7352,1.7262,1.7294,1.7491,1.7666,1.774,1.7832,1.7832,1.8102,1.841,1.8186,1.8342,1.8604,1.8449,1.868,1.8998,1.9137,1.9479,1.9868,1.9977,2.0366,2.0805,2.0933,2.1374,2.1774,2.1958,2.2164,2.2546,2.3204,2.3522,2.3935,2.4567,2.4878,2.5061,2.5118,2.5342,2.5508,2.5508,2.4572,2.3973,2.4026,2.385,2.3891,2.4177,2.4382,2.46,2.5025,2.5273,2.5451,2.5506,2.5645,2.5729,2.5729,2.5907,2.5962,0.7285,0.8392,0.9542,0.9399,0.8628,0.7772,0.7212,0.0,0.0,0.0,0.0,0.0,0.0,0.0,0.0,0.0,0.0,0.0,0.0,0.0,0.0,0.0,0.0,0.0,0.0,0.0,1.0498,1.0561,1.0624,1.0624,1.0624,1.0624,1.087,1.1483,1.16,1.2313,1.3743,1.3872,1.4863,1.6559,1.6835,1.6845,1.6747,1.6951,1.7017,1.6947,1.7501,1.77,1.7675,1.8168,1.8347,1.8212,1.8347,1.8265,1.8025,1.8011,1.7975,1.7988,1.7785,1.7904,1.804,1.8218,1.8123,1.8068,1.8129,1.8458,1.867,1.8154,1.8416,1.8723,1.8401,1.891,1.9553,1.9399,1.9779,2.0388,2.0741,2.1049,2.1491,2.2113,2.2592,2.3002,2.3374,2.3669,2.3962,2.4394,2.458,2.4821,2.5188,2.5355,2.5453,2.5508,2.5729,2.5893,2.5948,2.5516,2.5213,2.5159,2.4841,2.4759,2.5091,2.5106,2.5327,2.5687,2.5934,2.6056,2.6056,2.6056,2.6056,2.6111,2.6165,2.6179,0.5793,0.7432,0.8994,0.8456,0.8072,0.7555,0.6557,0.0,0.0,0.0,0.0,0.0,0.0,0.0,0.0,0.0,0.0,0.0,0.0,0.0,0.0,0.0,0.0,0.0,1.0072,1.0238,1.0434,1.0561,1.0624,1.0624,1.0624,1.0744,1.1052,1.167,1.1958,1.2894,1.4409,1.4408,1.4962,1.623,1.623,1.6383,1.6631,1.6631,1.6779,1.7051,0.0,0.0,1.7745,1.8238,1.8449,1.8449,1.8519,1.8549,1.8566,1.8314,1.8547,1.8813,1.8547,1.8542,1.8691,1.8796,1.8582,1.8373,1.8495,1.8837,1.9087,1.8523,1.879,1.9089,1.8685,1.9478,2.0306,1.9923,2.0403,2.1094,2.1678,2.1916,2.2286,2.3446,2.3754,2.406,2.4721,2.4948,2.5118,2.5286,2.5481,2.5605,2.5605,2.5743,2.5839,2.5948,2.6056,2.6218,2.6326,2.634,2.634,2.6233,2.5576,2.5466,2.6096,2.5547,2.5519,2.615,2.6272,2.6394,2.6394,2.6394,2.634,2.6326,2.634,2.6379,0.59,0.669,0.7168,0.671,0.6597,0.6348,0.0,0.0,0.0,0.0,0.0,0.0,0.0,0.0,0.0,0.0,0.0,0.0,0.0,0.0,0.0,0.0,0.0,1.0289,1.0244,1.0428,1.0561,1.0624,1.0624,1.0624,1.0624,1.1226,1.1903,1.2581,1.3304,1.4121,1.5065,1.4726,1.5151,1.6392,1.6529,1.6533,1.6355,1.6476,1.6347,1.6145,0.0,1.688,1.6768,1.7762,1.8171,1.8202,1.8598,1.8875,1.8998,1.8992,1.9079,1.9212,1.8934,1.8699,1.8542,1.8542,1.8681,1.8868,1.8928,1.9055,1.922,1.9272,1.9476,1.9559,1.9373,1.9787,2.0357,2.1008,2.1497,2.2051,2.2725,2.3255,2.3669,2.3904,2.4509,2.4991,2.5118,2.5313,2.5481,2.5729,2.5839,2.5893,2.6125,2.6179,2.6233,2.6233,2.6365,2.6457,2.6457,2.6659,2.6727,2.6674,2.6308,2.6133,2.6272,2.6279,2.6304,2.6457,2.6606,2.6727,2.6727,2.6727,2.6659,2.6457,2.6659,2.6959,0.4727,0.5489,0.6042,0.5389,0.6213,0.708,0.0,0.0,0.0,0.0,0.0,0.0,0.0,0.0,0.0,0.0,0.0,0.0,0.0,0.0,0.0,0.0,0.0,1.0174,1.0301,1.0364,1.0491,1.0681,1.0681,1.0926,1.1344,1.171,1.2381,1.3425,1.3974,1.4579,1.5313,1.5329,1.552,1.6025,1.6217,1.6228,1.6185,1.6254,1.627,1.6233,0.0,1.7036,1.6968,1.7823,1.8301,1.8531,1.8749,1.9055,1.9341,1.9341,1.9473,1.9639,1.9544,1.951,1.9525,1.9662,1.985,2.0025,2.0161,2.0273,2.0408,2.0603,2.0385,2.0041,1.978,2.0567,2.1388,2.1464,2.2151,2.2955,2.3623,2.4034,2.4394,2.4765,2.516,2.5508,2.5564,2.5743,2.5907,2.6071,2.6111,2.6165,2.6286,2.6379,2.6418,2.6418,2.6539,2.6645,2.6645,2.6727,2.6779,2.6779,2.6674,2.6621,2.6674,2.6659,2.675,2.6907,2.6884,2.6937,2.7041,2.7255,2.7327,2.7261,2.763,2.7913,0.3787,0.4496,0.5224,0.0,0.0,0.0,0.0,0.0,0.0,0.0,0.0,0.0,0.0,0.0,0.0,0.0,0.0,0.0,0.0,0.0,0.0,0.0,1.011,1.0238,1.0428,1.0428,1.0618,1.087,1.087,1.1108,1.1772,1.2135,1.2801,1.3846,1.4451,1.4991,1.5536,1.5788,1.5904,1.5788,1.5904,1.6019,1.6181,1.6181,1.6239,1.6452,1.6958,1.7164,1.7265,1.786,1.839,1.8932,1.8987,1.9319,1.9726,1.9736,1.9868,2.0064,2.0183,2.0388,2.0593,2.0797,2.0914,2.1094,2.1296,2.1411,2.1537,2.1686,2.1331,2.0848,2.0606,2.1572,2.2554,2.2325,2.2951,2.3787,2.4452,2.4751,2.5048,2.5536,2.5743,2.5893,2.6002,2.6056,2.6165,2.6326,2.6326,2.6379,2.6394,2.6486,2.6578,2.663,2.6765,2.6832,2.6884,2.6884,2.6884,2.6884,2.6832,2.6899,2.7055,2.6937,2.6974,2.7181,2.7093,2.7144,2.7357,2.7715,2.7947,2.8094,2.8496,2.8779,0.4017,0.4307,0.4622,0.5475,0.0,0.0,0.0,0.0,0.0,0.0,0.0,0.0,0.0,0.0,0.0,0.0,0.0,0.0,0.0,0.0,0.0,1.0242,1.0555,1.0744,1.0737,1.0933,1.1059,1.1059,1.1059,1.1122,1.1185,1.2565,1.3468,1.3528,1.4991,1.5798,1.5856,1.6009,1.6056,1.6056,1.6056,1.6181,1.6374,1.6374,1.642,1.6581,1.6612,1.6782,1.7041,1.7524,1.8246,1.9028,1.9244,1.9628,2.0107,2.027,2.0346,2.041,2.0604,2.085,2.1158,2.1158,2.1371,2.1635,2.1635,2.1698,2.1698,2.1874,2.2175,2.2408,2.2433,2.2832,2.342,2.4097,2.4469,2.4794,2.5439,2.5784,2.6002,2.6071,2.6179,2.6286,2.6286,2.6286,2.6326,2.6457,2.651,2.6525,2.6727,2.6779,2.6832,2.6951,2.7003,2.7055,2.7181,2.7181,2.7181,2.7181,2.7041,2.7055,2.7181,2.7181,2.7181,2.7181,2.7181,2.7408,2.7864,2.7898,2.8143,2.8638,2.8685,2.8996,0.3105,0.3646,0.4232,0.4657,0.0,0.0,0.0,0.0,0.0,0.0,0.0,0.0,0.0,0.0,0.0,0.0,0.0,0.0,0.0,0.0,0.9809,1.0711,1.0705,1.0787,1.0975,1.1059,1.1192,1.1373,1.1435,1.1677,1.222,1.3009,1.3674,1.4332,1.5177,1.572,1.6009,1.6285,1.64,1.64,1.64,1.6467,1.6524,1.6591,1.6705,1.6751,1.6931,1.7099,1.7211,1.7566,1.8089,1.8728,1.9421,2.0031,2.0453,2.0529,2.0722,2.0914,2.0978,2.1233,2.1498,2.1498,2.1624,2.1812,2.1812,2.1874,2.2061,2.242,2.298,2.3374,2.3015,2.3551,2.4266,2.4724,2.5189,2.566,2.5893,2.6111,2.6233,2.6233,2.6312,2.6418,2.6418,2.6539,2.6674,2.6765,2.6817,2.687,2.7026,2.7026,2.7078,2.7144,2.713,2.713,2.7181,2.7181,2.7233,2.7335,2.7196,2.7181,2.7335,2.7233,2.7284,2.7423,2.7645,2.7879,2.8143,2.8764,2.9196,2.9377,2.9689,2.9924,0.2654,0.3234,0.3893,0.0,0.0,0.0,0.0,0.0,0.0,0.0,0.0,0.0,0.0,0.0,0.0,0.0,0.0,0.0,0.0,0.0,0.989,1.0802,1.0849,1.0916,1.1193,1.1308,1.1498,1.1747,1.1809,1.2112,1.2712,1.3321,1.4052,1.4765,1.542,1.5884,1.6228,1.6513,1.6627,1.674,1.6797,1.6797,1.674,1.6797,1.692,1.7032,1.7267,1.7434,1.749,1.77,1.8194,1.8939,1.9946,2.0619,2.0914,2.099,2.1181,2.1371,2.1371,2.1561,2.1761,2.1761,2.1874,2.1999,2.1999,2.2235,2.2592,2.2944,2.3695,2.431,2.3891,2.4439,2.5133,2.53,2.5756,2.615,2.6218,2.634,2.6447,2.6447,2.6553,2.663,2.663,2.6817,2.6937,2.7041,2.7041,2.7093,2.7181,2.7181,2.7307,2.7565,2.7454,2.7409,2.7632,2.7454,2.7386,2.7437,2.7386,2.7386,2.7437,2.7386,2.7423,2.7625,2.7978,2.8304,2.8543,2.9377,2.9897,3.0027,3.0342,3.06,0.2897,0.3223,0.0,0.0,0.0,0.0,0.0,0.0,0.0,0.0,0.0,0.0,0.0,0.0,0.0,0.0,0.0,0.0,0.0,0.9831,1.0055,1.055,1.0982,1.1353,1.1472,1.1852,1.212,1.212,1.2236,1.2297,1.2297,1.3692,1.4469,1.4519,1.572,1.6488,1.657,1.6637,1.674,1.7011,1.7211,1.72,1.7011,1.7011,1.7179,1.7523,1.7523,1.7634,1.7897,1.7897,1.8623,1.978,2.0931,2.1376,2.1451,2.1624,2.1698,2.1698,2.1698,2.1812,2.1925,2.1937,2.2061,2.2185,2.2197,2.275,2.3314,2.3314,2.4239,2.5231,2.5342,2.5646,2.5948,2.6056,2.6204,2.6336,2.6457,2.6645,2.6779,2.6779,2.6899,2.7003,2.7003,2.7093,2.7181,2.7181,2.7181,2.7181,2.7181,2.7181,2.7536,2.8292,2.7927,2.7844,2.8532,2.7964,2.7625,2.7625,2.7625,2.761,2.7625,2.761,2.7625,2.7625,2.8076,2.8591,2.912,2.9572,3.0027,3.0526,3.0526,3.0882,0.2537,0.0,0.0,0.0,0.0,0.0,0.0,0.0,0.0,0.0,0.0,0.0,0.0,0.0,0.0,0.0,0.0,0.0,0.9926,0.9799,1.0019,1.0933,1.0928,1.1,1.1409,1.1526,1.1741,1.2154,1.2238,1.2408,1.2831,1.3672,1.4341,1.4838,1.5656,1.6285,1.6751,1.6987,1.7155,1.7211,1.7434,1.7479,1.7357,1.7468,1.7534,1.7645,1.7744,1.7854,1.7909,1.8139,1.864,1.9344,2.0193,2.0733,2.1096,2.1557,2.1761,2.1812,2.1812,2.2185,2.2543,2.2359,2.2811,2.3458,2.3233,2.3623,2.4239,2.4526,2.505,2.5563,2.596,2.6258,2.65,2.6418,2.6539,2.6659,2.6712,2.6779,2.6832,2.6899,2.6951,2.7055,2.713,2.7181,2.7233,2.7335,2.735,2.7386,2.7473,2.7473,2.7548,2.7793,2.7694,2.77,2.7859,2.773,2.776,2.8076,2.8076,2.7929,2.761,2.7944,2.8076,2.8076,2.8904,2.9422,2.9572,3.007,3.0384,3.0526,3.1014,3.1378,0.2725,0.0,0.0,0.0,0.0,0.0,0.0,0.0,0.0,0.0,0.0,0.0,0.0,0.0,0.0,0.0,0.0,0.0,0.9967,0.9956,1.0248,1.0934,1.1026,1.1182,1.1446,1.1599,1.1769,1.2036,1.2266,1.2601,1.3007,1.375,1.4468,1.5144,1.5751,1.6392,1.6987,1.7267,1.7434,1.7534,1.77,1.7755,1.7755,1.7755,1.781,1.7865,1.803,1.8073,1.815,1.8577,1.8899,1.927,1.99,2.0488,2.1055,2.1448,2.1882,2.2285,2.2396,2.2811,2.3352,2.328,2.3669,2.4195,2.4021,2.4425,2.4993,2.5287,2.5687,2.6136,2.6418,2.6659,2.6779,2.6645,2.6712,2.6779,2.6779,2.6846,2.6899,2.7003,2.7107,2.7196,2.7284,2.7321,2.7372,2.7488,2.7488,2.7488,2.7575,2.7814,2.8083,2.8389,2.861,2.8803,2.9076,2.9037,2.9046,2.9059,2.9292,2.9226,2.8652,2.8602,2.8638,2.8638,2.971,3.0231,3.0231,3.1007,3.1371,3.1388,3.1835,3.2199,0.0,0.0,0.0,0.0,0.0,0.0,0.0,0.0,0.0,0.0,0.0,0.0,0.0,0.0,0.0,0.0,0.0,0.9799,0.9851,1.0265,1.0573,1.0769,1.1272,1.1578,1.1578,1.1889,1.2044,1.1967,1.2439,1.276,1.2978,1.3941,1.478,1.5352,1.5966,1.6602,1.7257,1.7413,1.7644,1.7897,1.7897,1.7963,1.8084,1.7963,1.7963,1.8139,1.8313,1.8422,1.8457,1.9022,1.9277,1.9324,1.9989,2.0558,2.1069,2.1415,2.2114,2.2955,2.3314,2.3728,2.4137,2.4412,2.457,2.4641,2.4641,2.5106,2.5742,2.5742,2.6258,2.6779,2.6779,2.6779,2.6779,2.6779,2.6779,2.6832,2.6832,2.6951,2.7003,2.7055,2.7248,2.7401,2.7401,2.7539,2.7625,2.7625,2.7625,2.7625,2.7625,2.8173,2.8831,2.9522,3.006,3.0685,3.1334,3.1256,3.0957,3.0402,3.0942,3.099,3.0481,2.9751,2.9356,2.9356,3.05,3.1066,3.1066,3.2171,3.2724,3.2724,3.2807,3.3205,0.0,0.0,0.0,0.0,0.0,0.0,0.0,0.0,0.0,0.0,0.0,0.0,0.0,0.0,0.0,0.0,0.0,0.9955,1.0419,1.0565,1.082,1.1267,1.1446,1.1498,1.1498,1.1575,1.1843,1.2396,1.2563,1.2982,1.3726,1.4407,1.4842,1.516,1.5771,1.6343,1.6989,1.7171,1.7481,1.7897,1.803,1.8084,1.8084,1.8084,1.8139,1.8367,1.8518,1.856,1.8572,1.8809,1.891,1.8958,1.9634,2.0176,2.0717,2.1843,2.2578,2.3147,2.3966,2.4526,2.4881,2.4697,2.5204,2.5892,2.5646,2.6042,2.6553,2.6553,2.6674,2.6779,2.6779,2.6779,2.6779,2.6779,2.6899,2.6951,2.6951,2.7041,2.7181,2.7299,2.735,2.7437,2.7524,2.7575,2.7625,2.7625,2.7625,2.7625,2.7625,2.8173,2.8845,2.9399,3.0012,3.0639,3.1184,3.1207,3.1309,3.1596,3.1772,3.196,3.2314,3.1713,3.1447,3.154,3.2052,3.2359,3.2448,3.2746,3.2873,3.289,3.3562,3.3974,0.0,0.0,0.0,0.0,0.0,0.0,0.0,0.0,0.0,0.0,0.0,0.0,0.0,0.0,0.0,0.0,0.0,1.0113,1.0651,1.0922,1.1217,1.1569,1.1628,1.1628,1.1678,1.1828,1.2059,1.2411,1.2814,1.3313,1.3864,1.4437,1.486,1.5289,1.5729,1.6187,1.6735,1.6974,1.7329,1.7771,1.7878,1.8112,1.8356,1.8247,1.8356,1.8518,1.8625,1.8679,1.8732,1.8839,1.8958,1.9035,1.9662,2.0229,2.0797,2.1802,2.2797,2.3712,2.4353,2.5094,2.5728,2.5728,2.6082,2.6539,2.6394,2.6553,2.6779,2.6779,2.6779,2.6779,2.6779,2.6846,2.6899,2.6899,2.6951,2.7003,2.7003,2.7144,2.7335,2.7401,2.7437,2.7539,2.7575,2.7625,2.7625,2.7625,2.7625,2.7625,2.7625,2.8671,2.9587,2.9863,3.1271,3.2292,3.2542,3.2837,3.2949,3.2968,3.328,3.3499,3.3512,3.3557,3.3288,3.2668,3.3134,3.3451,3.3539,3.3862,3.4029,3.4046,3.4538,3.4722,0.0,0.0,0.0,0.0,0.0,0.0,0.0,0.0,0.0,0.0,0.0,0.0,0.0,0.0,0.0,0.0,0.0,1.0295,1.0821,1.1267,1.1569,1.1769,1.1778,1.1778,1.1877,1.2175,1.2421,1.2471,1.3228,1.38,1.3967,1.4419,1.4898,1.5443,1.5681,1.6076,1.6535,1.6744,1.71,1.7524,1.7697,1.8118,1.8625,1.853,1.853,1.8614,1.8798,1.8851,1.8851,1.9093,1.9251,1.9368,1.9952,2.0579,2.1199,2.1767,2.2902,2.4157,2.457,2.5388,2.6246,2.6553,2.6692,2.6779,2.6779,2.6779,2.6779,2.6832,2.6832,2.6846,2.6884,2.6937,2.7055,2.7055,2.7055,2.7055,2.7055,2.7248,2.7437,2.7437,2.7524,2.7625,2.7625,2.7625,2.7625,2.7625,2.7625,2.767,2.7861,2.9378,3.0521,3.0834,3.2793,3.4151,3.425,3.4691,3.4728,3.4268,3.4801,3.4914,3.4432,3.5019,3.4767,3.3554,3.4097,3.4415,3.4415,3.5052,3.5337,3.5337,3.5337,3.5337,0.0,0.0,0.0,0.0,0.0,0.0,0.0,0.0,0.0,0.0,0.0,0.0,0.0,0.0,0.0,0.0,0.0,0.0,1.1416,1.1628,1.1778,1.2026,1.2026,1.2026,1.1927,1.2393,1.2822,1.3074,1.3742,1.428,1.4638,1.4891,1.5051,1.5165,1.5393,1.5775,1.6255,1.6303,1.6561,1.7088,1.7572,1.8118,1.8798,1.8744,1.8744,1.8798,1.8946,1.8999,1.904,1.9643,1.9888,1.9952,2.0597,2.1144,2.1635,2.247,2.3119,2.3715,2.4517,2.5271,2.5857,2.5923,2.6315,2.6779,2.6779,2.6779,2.6832,2.6951,2.6951,2.7003,2.713,2.7181,2.7181,2.7181,2.7233,2.735,2.735,2.7488,2.7575,2.7575,2.7575,2.7625,2.7625,2.7625,2.7625,2.7625,2.7625,2.7971,2.902,2.9909,3.1013,3.2579,3.3549,3.4349,3.4899,3.5041,3.5102,3.5094,3.5241,3.5304,3.5295,3.5441,3.5436,3.529,3.5182,3.5203,3.534,3.5441,3.5492,3.5492,3.5549,3.5577,0.0,0.0,0.0,0.0,0.0,0.0,0.0,0.0,0.0,0.0,0.0,0.0,0.0,0.0,0.0,0.0,0.0,0.0,1.1222,1.1504,1.1731,1.2147,1.2126,1.2215,1.2589,1.3006,1.3437,1.3836,1.4408,1.4789,1.4949,1.5119,1.5255,1.5334,1.5525,1.5721,1.5913,1.5958,1.6408,1.7228,1.7701,1.8287,1.8893,1.9011,1.8958,1.8946,1.9396,1.954,1.9592,2.0283,2.0584,2.0733,2.1334,2.1684,2.2024,2.2654,2.323,2.3778,2.4148,2.4965,2.5778,2.5778,2.6242,2.6779,2.6899,2.6899,2.6951,2.7093,2.7093,2.7144,2.7181,2.7284,2.7284,2.7284,2.7386,2.7539,2.7539,2.7575,2.7625,2.7625,2.7625,2.7625,2.7625,2.7625,2.7745,2.8083,2.842,2.8935,2.9847,3.1121,3.2238,3.2999,3.4055,3.4804,3.5088,3.5152,3.5245,3.5383,3.54,3.5429,3.5549,3.5549,3.5594,3.5622,3.5487,3.5503,3.5549,3.5549,3.5549,3.5549,3.5577,3.5622,0.0,0.0,0.0,0.0,0.0,0.0,0.0,0.0,0.0,0.0,0.0,0.0,0.0,0.0,0.0,0.0,0.0,0.0,0.0,1.124,1.1621,1.231,1.231,1.2532,1.3351,1.3674,1.405,1.4455,1.4915,1.5198,1.5198,1.5345,1.5447,1.557,1.5659,1.5715,1.5715,1.5792,1.626,1.7219,1.7649,1.8277,1.9044,1.9347,1.946,1.954,1.9888,2.0144,2.0295,2.0993,2.1334,2.1479,2.203,2.2278,2.2417,2.2752,2.3238,2.3659,2.3659,2.4418,2.5392,2.5552,2.6097,2.668,2.6945,2.7041,2.7107,2.7233,2.7233,2.7284,2.7284,2.7386,2.7437,2.7437,2.7539,2.7625,2.7625,2.7625,2.7625,2.7625,2.7625,2.7625,2.7625,2.7625,2.785,2.868,2.9134,2.9813,3.097,3.2303,3.3258,3.3645,3.4551,3.5135,3.5198,3.5291,3.5383,3.5537,3.552,3.5566,3.5577,3.5622,3.5622,3.5622,3.5622,3.5622,3.5622,3.5622,3.5622,3.5622,3.5622,3.5622,0.0,0.0,0.0,0.0,0.0,0.0,0.0,0.0,0.0,0.0,0.0,0.0,0.0,0.0,0.0,0.0,0.0,0.0,0.0,0.0,1.141,1.2463,1.2559,1.295,1.3888,1.4387,1.4652,1.4663,1.5187,1.5468,1.5468,1.5614,1.5671,1.5671,1.5748,1.5792,1.5792,1.5792,1.6068,1.6632,1.7291,1.8142,1.923,1.9838,2.0434,2.0894,2.0383,2.0484,2.0993,2.1684,2.1935,2.2044,2.2615,2.2843,2.2843,2.2888,2.2917,2.2946,2.2946,2.3472,2.4282,2.4945,2.5624,2.632,2.699,2.7181,2.7233,2.735,2.7401,2.7401,2.7524,2.7575,2.7575,2.7575,2.7575,2.7625,2.7625,2.7625,2.7625,2.7625,2.7625,2.7625,2.7625,2.7625,2.7986,2.9177,2.9369,3.0331,3.2853,3.3208,3.3804,3.5065,3.5274,3.5337,3.5446,3.5492,3.552,3.5577,3.5577,3.5577,3.5622,3.5622,3.5622,3.5622,3.5622,3.5622,3.5622,3.5622,3.5622,3.5622,3.5622,3.5622,0.0,0.0,0.0,0.0,0.0,0.0,0.0,0.0,0.0,0.0,0.0,0.0,0.0,0.0,0.0,0.0,0.0,0.0,0.0,0.0,0.0,1.2484,1.2884,1.3395,1.4105,1.4677,1.5051,1.5334,1.5513,1.5614,1.5614,1.5659,1.5715,1.5748,1.5792,1.5792,1.5792,1.5792,1.6256,1.7132,1.7364,1.8253,1.9708,2.004,2.0729,2.1636,2.1527,2.1527,2.1684,2.2324,2.2555,2.2615,2.2797,2.2888,2.2888,2.2888,2.2888,2.2902,2.2992,2.3768,2.4784,2.5051,2.5943,2.6923,2.7225,2.7335,2.7335,2.7488,2.7539,2.7524,2.7575,2.7625,2.7625,2.7625,2.7919,2.8233,2.8233,2.7874,2.7745,2.8143,2.8233,2.8233,2.8233,2.8946,2.9843,3.0675,3.1446,3.2466,3.3827,3.4327,3.4742,3.5274,3.54,3.5446,3.5492,3.552,3.5594,3.5622,3.5622,3.5622,3.5622,3.5622,3.5622,3.5622,3.5622,3.5622,3.5622,3.5622,3.5622,3.5622,3.5622,3.5622,0.5652,0.0,0.0,0.0,0.0,0.0,0.0,0.0,0.0,0.0,0.0,0.0,0.0,0.0,0.0,0.0,0.0,0.0,0.0,0.0,0.0,1.2585,1.3006,1.3524,1.4213,1.4731,1.5133,1.5453,1.5608,0.0,1.5715,1.5715,1.576,1.5792,1.5792,1.5836,1.5869,1.5869,1.6303,1.72,1.7422,1.8299,1.9786,2.0297,2.1089,2.2027,2.2377,2.2417,2.2324,2.2797,2.2992,2.2992,2.2992,2.2978,2.3023,2.2978,2.2992,2.3068,2.3112,2.3921,2.4955,2.5195,2.6041,2.7039,2.7363,2.7488,2.7488,2.7575,2.7625,2.7625,2.7625,2.7625,2.7685,2.7859,2.8263,2.8764,2.9411,2.8869,2.8382,2.8846,2.9064,2.9206,2.9243,3.013,3.12,3.2045,3.2886,3.3738,3.4655,3.5118,3.5383,3.5383,3.5475,3.552,3.552,3.5594,3.5622,3.5622,3.5622,3.5622,3.5622,3.5622,3.5622,3.5622,3.5622,3.5622,3.5622,3.5622,3.5622,3.5622,3.5622,3.5622,0.0,0.0,0.0,0.0,0.0,0.0,0.0,0.0,0.0,0.0,0.0,0.0,0.0,0.0,0.0,0.0,0.0,0.0,0.0,0.0,0.0,0.0,1.2889,1.3302,1.4177,1.4636,1.4916,1.5001,1.5437,1.5703,1.5792,1.5792,1.5792,1.5792,1.5792,1.5869,1.6032,1.6032,1.6293,1.6837,1.7506,1.8342,1.939,2.0639,2.1481,2.2033,2.2805,2.3037,2.2947,2.3037,2.3127,2.3127,2.3127,2.3201,2.3275,2.3157,2.3201,2.3319,2.3319,2.3822,2.4609,2.5203,2.5968,2.6737,2.743,2.7625,2.7625,2.7625,2.7625,2.7625,2.7625,2.7625,2.779,2.8479,2.8659,2.9177,3.1036,3.0532,2.9678,2.9663,3.0083,3.0505,3.0643,3.111,3.1935,3.3236,3.3444,3.3958,3.5345,3.5492,3.552,3.5577,3.5622,3.5622,3.5622,3.5622,3.5622,3.5622,3.5622,3.5622,3.5622,3.5622,3.5622,3.5622,3.5622,3.5622,3.5622,3.5622,3.5622,3.5622,3.5622,3.5622,0.6592,0.0,0.0,0.0,0.0,0.0,0.0,0.0,0.0,0.0,0.0,0.0,0.0,0.0,0.0,0.0,0.0,0.0,0.0,0.0,0.0,0.0,0.0,1.3504,1.3698,1.4165,1.4593,0.0,1.5102,1.5384,1.5932,1.5957,1.5957,1.5957,1.5957,1.6163,1.6582,1.6582,1.7034,1.7908,1.8072,1.8752,1.9904,2.0819,2.154,2.2177,2.2922,2.3231,2.3187,2.3246,2.3231,2.3231,2.3231,2.3275,2.3275,2.3275,2.3275,2.3319,2.3407,2.4193,2.5174,2.5446,2.6329,2.7335,2.7515,2.7625,2.7625,2.7625,2.7625,2.7625,2.7625,2.7845,2.8293,2.9031,2.9805,3.0732,3.1864,3.2253,3.2212,3.171,3.1769,3.1905,3.2006,3.2951,3.3858,3.4199,3.4688,3.5143,3.5515,3.5594,3.5594,3.5577,3.5622,3.5622,3.5622,3.5622,3.5622,3.5622,3.5622,3.5622,3.5622,3.5622,3.5622,3.5622,3.5622,3.5622,3.5622,3.5622,3.5622,3.5622,3.5622,3.5622,0.0,0.0,0.0,0.0,0.0,0.0,0.0,0.9634,0.0,0.0,0.0,0.0,0.0,0.0,0.0,0.0,0.0,0.0,0.0,0.0,0.0,0.0,0.0,0.0,1.3168,1.365,1.4084,1.4397,1.4832,1.5399,1.6064,1.6088,1.6088,1.6088,1.6088,1.6337,1.6879,1.6879,1.7407,1.8383,1.8422,1.8906,1.9788,2.0826,2.1498,2.1924,2.2935,2.3363,2.3363,2.3392,2.3407,2.3363,2.3363,2.3407,2.3436,2.3407,2.3407,2.348,2.3807,2.4641,2.555,2.5881,2.6722,2.7625,2.7625,2.7625,2.7625,2.7625,2.776,2.7894,2.7894,2.8504,2.9232,2.9654,3.073,3.1948,3.2594,3.3303,3.3639,3.3003,3.309,3.329,3.3421,3.4281,3.4958,3.5005,3.5362,3.5622,3.5622,3.5622,3.5622,3.5622,3.5622,3.5622,3.5622,3.5622,3.5622,3.5622,3.5622,3.5622,3.5622,3.5622,3.5622,3.5622,3.5622,3.5711,3.5871,3.5711,3.5694,3.5871,3.5871,3.5985,0.6992,0.7391,0.0,0.0,0.0,0.0,0.9666,0.9663,0.9761,0.0,0.0,0.0,0.0,0.0,0.0,0.0,0.0,0.0,0.0,0.0,0.0,0.0,0.0,0.0,1.2878,1.3252,1.3555,1.369,1.4667,1.5501,1.6077,1.6163,1.6231,1.6275,1.6275,1.6552,1.716,1.716,1.7639,1.8592,1.8669,1.8898,1.9346,2.0784,2.1388,2.1503,2.2901,2.3509,2.3509,2.3566,2.3566,2.3509,2.3509,2.3538,2.3595,2.3538,2.3538,2.3684,2.4298,2.5001,2.5704,2.6303,2.6976,2.7625,2.7625,2.7625,2.761,2.766,2.8027,2.8384,2.8384,2.9344,3.0257,3.029,3.1454,3.2692,3.3301,3.3954,3.4284,3.3887,3.4219,3.4577,3.4688,3.5148,3.552,3.5577,3.5622,3.5622,3.5622,3.5622,3.5622,3.5622,3.5622,3.5622,3.5622,3.5622,3.5622,3.5622,3.5622,3.5622,3.5622,3.5622,3.5622,3.5622,3.5667,3.5871,3.6301,3.5871,3.5915,3.6385,3.6367,3.658,0.7209,0.7681,0.8048,0.8196,0.0,0.0,0.9778,0.9652,0.9658,0.0,0.0,0.0,0.0,0.0,0.0,0.0,0.0,0.0,0.0,0.0,0.0,0.0,0.0,0.0,1.4017,1.375,1.3825,1.4354,1.5061,1.5467,1.5549,1.6083,1.6522,1.6837,1.6837,1.7284,1.8212,1.8266,1.8577,1.9139,1.9213,1.9302,1.942,2.0848,2.148,2.1554,2.2957,2.3566,2.3566,2.3595,2.361,2.3566,2.3566,2.361,2.3595,2.361,2.361,2.3625,2.3744,2.4597,2.563,2.5749,2.6602,2.7625,2.7625,2.7625,2.766,2.8076,2.8543,2.8966,2.9027,2.9547,3.0222,3.0863,3.155,3.248,3.3807,3.422,3.4504,3.509,3.5258,3.5321,3.5379,3.5515,3.5577,3.5577,3.5622,3.5622,3.5622,3.5622,3.5622,3.5622,3.5622,3.5622,3.5622,3.5622,3.5622,3.5622,3.5622,3.5622,3.5622,3.5622,3.5622,3.5622,3.5958,3.6216,3.6301,3.6216,3.6367,3.6781,3.6843,3.6904,0.7328,0.7659,0.7996,0.8338,0.0,0.0,0.0,0.0,0.9627,0.0,0.0,0.0,0.0,0.0,0.0,0.0,0.0,0.0,0.0,0.0,0.0,0.0,0.0,0.0,1.4332,1.4126,1.4225,1.4946,1.5352,1.5749,1.6036,1.6298,1.668,1.7214,1.7201,1.7639,1.863,1.8669,1.8898,1.9339,1.9465,1.9501,1.9531,2.0623,2.1302,2.166,2.2712,2.331,2.3595,2.3595,2.3595,2.3595,2.3595,2.3595,2.3595,2.3595,2.3819,2.4163,2.4492,2.5255,2.6153,2.6482,2.7036,2.7625,2.7625,2.776,2.8076,2.8607,2.9134,2.9556,2.9629,3.0326,3.1065,3.1108,3.1901,3.2782,3.322,3.3878,3.4503,3.4979,3.5324,3.5549,3.5577,3.5622,3.5622,3.5622,3.5622,3.5622,3.5622,3.5622,3.5622,3.5622,3.5622,3.5622,3.5622,3.5622,3.5622,3.5622,3.5622,3.5622,3.5622,3.5622,3.5711,3.5958,3.6433,3.6741,3.6995,3.7017,3.7132,3.7301,3.7321,3.7487,0.0,0.0,0.0,0.0,0.0,0.9011,0.0,0.0,0.0,0.0,0.0,0.0,0.0,0.0,0.0,0.0,0.0,0.0,0.0,0.0,0.0,0.0,0.0,0.0,1.4659,1.4489,1.4679,1.5381,1.5524,1.5834,1.6486,1.66,1.6934,1.7598,1.7571,1.8001,1.8898,1.8936,1.9101,1.9465,1.9574,1.9611,1.9626,2.037,2.1081,2.1739,2.2398,2.3026,2.3595,2.3595,2.3595,2.3595,2.3595,2.3595,2.3595,2.3595,2.4029,2.4657,2.5241,2.5929,2.6677,2.7215,2.7555,2.776,2.776,2.8158,2.8748,2.9239,2.9761,3.0199,3.0267,3.1091,3.1739,3.115,3.2023,3.2848,3.2391,3.3339,3.432,3.4455,3.5115,3.5622,3.5622,3.5622,3.5622,3.5622,3.5622,3.5622,3.5622,3.5622,3.5622,3.5622,3.5622,3.5622,3.5622,3.5622,3.5622,3.5622,3.5694,3.5739,3.5739,3.581,3.6071,3.6492,3.6921,3.734,3.7721,3.7844,3.7879,3.7845,3.7845,3.8101,0.0,0.0,0.0,0.0,0.9418,0.0,0.0,0.0,0.0,0.0,0.0,0.0,0.0,0.0,0.0,0.0,0.0,0.0,0.0,0.0,0.0,0.0,0.0,0.0,0.0,1.5184,1.4958,1.5615,1.5241,1.5243,1.5768,1.6622,1.7352,1.7908,1.8266,1.8745,1.9339,1.9465,1.9538,1.9574,1.9669,1.969,1.9705,2.0393,2.1081,2.1739,2.2398,2.3026,2.3595,2.3595,2.3595,2.3595,2.3595,2.3595,2.3595,2.3595,2.4029,2.4597,2.4672,2.5555,2.6602,2.6677,2.7473,2.8383,2.8383,2.9088,2.9892,2.9978,3.0393,3.0814,3.0895,3.0986,3.1116,3.1168,3.1326,3.1596,3.2195,3.2933,3.3728,3.437,3.5115,3.5622,3.5622,3.5622,3.5622,3.5622,3.5622,3.5622,3.5622,3.5622,3.5622,3.5622,3.5622,3.5622,3.5622,3.5622,3.5622,3.5622,3.6002,3.6216,3.6216,3.6603,3.6904,3.7097,3.7487,3.7756,3.7791,3.815,3.8318,3.8318,3.8364,3.8428,0.0,0.0,0.0,0.0,0.0,0.0,0.9368,0.0,0.9726,0.0,0.0,0.0,0.0,0.0,0.0,0.0,0.0,0.0,0.0,0.0,0.0,0.0,0.0,0.0,0.0,1.6009,1.586,1.6523,1.5802,1.5741,1.6563,1.7029,1.7652,1.8486,1.8679,1.9035,1.9581,1.9632,1.9669,1.9669,1.969,1.969,1.969,1.9989,2.0692,2.171,2.1994,2.2682,2.3595,2.3595,2.3595,2.3595,2.3595,2.3595,2.3595,2.3595,2.4283,2.5196,2.5196,2.6063,2.7255,2.7583,2.8136,2.8732,2.9271,2.9717,3.0166,3.0518,3.0797,3.0975,3.1112,3.1112,3.1151,3.119,3.119,3.1393,3.2121,3.2882,3.3626,3.4353,3.5115,3.5622,3.5622,3.5622,3.5622,3.5622,3.5622,3.5622,3.5622,3.5622,3.5622,3.5622,3.5622,3.5711,3.6002,3.6002,3.6114,3.6333,3.658,3.6701,3.6701,3.7173,3.747,3.756,3.7998,3.8216,3.8216,3.8465,3.8578,3.8578,3.851,3.8541,0.8492,0.0,0.0,0.0,0.0,0.0,0.0,0.0,0.0,0.0,0.0,0.0,0.0,0.0,0.0,0.0,0.0,0.0,0.0,0.0,0.0,0.0,0.0,0.0,0.0,1.6286,1.6287,1.6953,0.0,1.6125,1.7092,1.7366,1.7867,1.8703,1.8983,1.9295,1.969,1.969,1.969,1.969,1.969,1.969,1.969,1.969,2.0423,2.1695,2.1695,2.2413,2.3595,2.3595,2.3595,2.3595,2.3595,2.3595,2.3653,2.3595,2.4343,2.5422,2.5601,2.666,2.7993,2.8543,2.8904,2.9271,2.9951,3.0251,3.0477,3.0935,3.1055,3.1072,3.119,3.119,3.119,3.119,3.119,3.1393,3.2121,3.2882,3.3626,3.4353,3.5115,3.5622,3.5622,3.5622,3.5622,3.5622,3.5622,3.5622,3.5622,3.5622,3.5667,3.5783,3.5783,3.5941,3.6409,3.6474,3.6661,3.7114,3.7173,3.7285,3.7396,3.7773,3.7998,3.805,3.8364,3.8559,3.8559,3.8658,3.8707,3.8707,3.8609,3.8609,0.0,0.0,0.0,0.8625,0.0,0.0,0.0,0.0,0.9956,0.0,0.0,0.0,0.0,0.0,0.0,0.0,0.0,0.0,0.0,0.0,0.0,0.0,0.0,0.0,0.0,0.0,1.5803,0.0,1.6019,1.5986,1.6693,1.7516,1.8068,1.8305,1.9139,1.9611,1.969,1.969,1.969,1.969,1.969,1.969,1.969,1.969,2.0423,2.1695,2.1695,2.2413,2.3595,2.3595,2.3595,2.3595,2.3595,2.3696,2.3782,2.3653,2.4103,2.4912,2.5544,2.7071,2.8732,2.9225,2.9761,3.0251,3.0293,3.0699,3.1151,3.119,3.119,3.119,3.119,3.119,3.119,3.119,3.119,3.1393,3.2121,3.2882,3.3626,3.4353,3.5115,3.5622,3.5622,3.5622,3.5622,3.5622,3.5622,3.5622,3.5622,3.5622,3.5783,3.6216,3.6301,3.6451,3.686,3.696,3.721,3.7756,3.7773,3.7964,3.8428,3.846,3.8559,3.8658,3.8676,3.8707,3.8707,3.8707,3.8707,3.8707,3.8707,3.8707,0.0,0.0,0.9253,0.8936,0.0,0.0,0.0,0.0,0.0,0.0,0.0,0.0,0.0,0.0,0.0,0.0,0.0,0.0,0.0,0.0,0.0,0.0,0.0,0.0,0.0,0.0,0.0,0.0,1.6773,0.0,1.802,1.8398,1.8789,1.9153,1.9472,1.9705,1.969,1.969,1.969,1.969,1.969,1.969,1.969,1.969,2.0423,2.1695,2.1695,2.2413,2.3595,2.3595,2.3595,2.3595,2.3696,2.3739,2.3797,2.3739,2.4219,2.5151,2.655,2.7844,2.8982,2.9717,3.0208,3.0477,3.0781,3.1055,3.119,3.119,3.119,3.119,3.119,3.1546,3.1782,3.1309,3.1562,3.2121,3.2865,3.322,3.3761,3.4996,3.5453,3.5622,3.5622,3.5622,3.5622,3.5622,3.5622,3.5622,3.5622,3.5622,3.5783,3.6259,3.6301,3.6615,3.7356,3.7721,3.7998,3.8201,3.8249,3.8314,3.8491,3.8609,3.8658,3.8707,3.8707,3.8707,3.8707,3.8707,3.8707,3.8707,3.8707,3.8707,0.8296,0.8667,0.0,0.8769,0.9046,0.0,0.9385,0.0,0.0,0.0,0.0,0.0,0.0,0.0,0.0,0.0,0.0,0.0,0.0,0.0,0.0,0.0,0.0,0.0,0.0,0.0,1.6779,1.784,1.7282,0.0,0.0,1.8974,1.9204,1.9767,1.9737,1.969,1.969,1.969,1.969,1.969,1.969,1.9726,1.9726,1.9726,2.0445,2.1719,2.1695,2.2413,2.3595,2.3653,2.3653,2.3696,2.3839,2.3882,2.394,2.3882,2.463,2.5914,2.7548,2.8713,2.9601,3.0351,3.0699,3.0797,3.1112,3.119,3.119,3.119,3.119,3.119,3.119,3.1546,3.1782,3.1309,3.1546,3.2171,3.3186,3.3406,3.3846,3.5379,3.5667,3.5667,3.5711,3.5756,3.5711,3.5622,3.5622,3.5622,3.5622,3.5783,3.6071,3.6516,3.6701,3.717,3.7931,3.8267,3.8465,3.8496,3.8559,3.8559,3.8559,3.8658,3.8707,3.8707,3.8707,3.8707,3.8707,3.8707,3.8707,3.8707,3.8707,3.8707]},{"header":{"parameterUnit":"m.s-1","parameterCategory":1,"la1":30.6,"la2":29.2853,"lo1":-89.7004,"lo2":-87.6739,"dy":0.0162,"dx":0.0183,"nx":112,"ny":82,"refTime":"2026-03-15T12:00:00:Z","depth":0,"parameterNumber":3,"parameterNumberName":"V-component_of_WINDS"},"data":[0.0,0.0,0.0,0.0,0.0,0.0,0.0,0.0,0.0,0.0,0.0,0.0,0.0,0.0,0.0,0.0,0.0,0.0,0.0,0.0,0.0,0.0,0.0,0.0,0.0,0.0,0.0,0.0,0.0,0.0,0.0,0.0,0.0,0.0,0.0,0.0,0.0,0.0,0.0,0.0,0.0,0.0,0.0,0.0,0.0,0.0,0.0,0.0,0.0,0.0,0.0,0.0,0.0,0.0,0.0,0.0,0.0,0.0,0.0,0.0,0.0,0.0,0.0,0.0,0.0,0.0,0.0,0.0,0.0,0.0,0.0,0.0,0.0,0.0,0.0,0.0,0.0,0.0,0.0,0.0,0.0,0.0,0.0,0.0,0.0,0.0,0.0,0.0,0.0,0.0,-2.0753,-2.1684,-2.3103,-2.3991,-2.3976,-2.368,-2.29,-2.1479,0.0,0.0,0.0,0.0,0.0,0.0,0.0,0.0,0.0,0.0,0.0,0.0,0.0,0.0,0.0,0.0,0.0,0.0,0.0,0.0,0.0,0.0,0.0,0.0,0.0,0.0,0.0,0.0,0.0,0.0,0.0,0.0,0.0,0.0,0.0,0.0,0.0,0.0,0.0,0.0,0.0,0.0,0.0,0.0,0.0,0.0,0.0,0.0,0.0,0.0,0.0,0.0,0.0,0.0,0.0,0.0,0.0,0.0,0.0,0.0,0.0,0.0,0.0,0.0,0.0,0.0,0.0,0.0,0.0,0.0,0.0,0.0,0.0,0.0,0.0,0.0,0.0,0.0,0.0,0.0,0.0,0.0,0.0,0.0,0.0,0.0,0.0,0.0,0.0,0.0,0.0,0.0,0.0,0.0,0.0,0.0,0.0,0.0,0.0,0.0,0.0,0.0,0.0,0.0,-2.1874,-2.3367,-2.4338,-2.4848,-2.4739,-2.3978,-2.3131,-2.2269,0.0,0.0,0.0,0.0,0.0,0.0,0.0,0.0,0.0,0.0,0.0,0.0,0.0,0.0,0.0,0.0,0.0,0.0,0.0,0.0,0.0,0.0,0.0,0.0,0.0,0.0,0.0,0.0,0.0,0.0,0.0,0.0,0.0,0.0,0.0,0.0,0.0,0.0,0.0,0.0,0.0,0.0,0.0,0.0,0.0,0.0,0.0,0.0,0.0,0.0,0.0,0.0,0.0,0.0,0.0,0.0,0.0,0.0,0.0,0.0,0.0,0.0,0.0,0.0,0.0,0.0,0.0,0.0,0.0,0.0,0.0,0.0,0.0,0.0,0.0,0.0,0.0,0.0,0.0,0.0,0.0,0.0,0.0,0.0,0.0,0.0,0.0,0.0,0.0,0.0,0.0,0.0,0.0,0.0,0.0,0.0,0.0,0.0,0.0,0.0,0.0,0.0,0.0,-2.1658,-2.2604,-2.3777,-2.4617,-2.5063,-2.4961,-2.4068,-2.3168,-2.2394,-2.1784,0.0,0.0,0.0,0.0,0.0,0.0,0.0,0.0,0.0,0.0,0.0,0.0,0.0,0.0,0.0,0.0,0.0,0.0,0.0,0.0,0.0,0.0,0.0,0.0,0.0,0.0,0.0,0.0,0.0,0.0,0.0,0.0,0.0,0.0,0.0,0.0,0.0,0.0,0.0,0.0,0.0,0.0,0.0,0.0,0.0,0.0,0.0,0.0,0.0,0.0,0.0,0.0,0.0,0.0,0.0,0.0,0.0,0.0,0.0,0.0,0.0,0.0,0.0,0.0,0.0,0.0,0.0,0.0,0.0,0.0,0.0,0.0,0.0,0.0,0.0,0.0,0.0,0.0,0.0,0.0,0.0,0.0,0.0,0.0,0.0,0.0,0.0,0.0,0.0,0.0,0.0,0.0,0.0,0.0,0.0,0.0,0.0,0.0,0.0,0.0,0.0,0.0,-2.2489,-2.3294,-2.4121,-2.4743,-2.5076,-2.5012,-2.4049,-2.3121,-2.2359,-2.1301,0.0,0.0,0.0,0.0,0.0,0.0,0.0,0.0,0.0,0.0,0.0,0.0,0.0,0.0,0.0,0.0,0.0,0.0,0.0,0.0,0.0,0.0,0.0,0.0,0.0,0.0,0.0,0.0,0.0,0.0,0.0,0.0,0.0,0.0,0.0,0.0,0.0,0.0,0.0,0.0,0.0,0.0,0.0,0.0,0.0,0.0,0.0,0.0,0.0,0.0,0.0,0.0,0.0,0.0,0.0,0.0,0.0,0.0,0.0,0.0,0.0,0.0,0.0,0.0,0.0,0.0,0.0,0.0,0.0,0.0,0.0,0.0,0.0,0.0,0.0,0.0,0.0,0.0,0.0,0.0,0.0,0.0,0.0,0.0,0.0,0.0,0.0,0.0,0.0,0.0,0.0,0.0,0.0,0.0,0.0,0.0,0.0,0.0,0.0,0.0,0.0,0.0,-2.3362,-2.4143,-2.5019,-2.5113,-2.507,-2.5012,-2.3963,-2.3019,-2.2346,-2.1121,0.0,0.0,0.0,0.0,0.0,0.0,0.0,0.0,0.0,0.0,0.0,0.0,0.0,0.0,0.0,0.0,0.0,0.0,0.0,0.0,0.0,0.0,0.0,0.0,0.0,0.0,0.0,0.0,0.0,0.0,0.0,0.0,0.0,0.0,0.0,0.0,0.0,0.0,0.0,0.0,0.0,0.0,0.0,0.0,0.0,0.0,0.0,0.0,0.0,0.0,0.0,0.0,0.0,0.0,0.0,0.0,0.0,0.0,0.0,0.0,0.0,0.0,0.0,0.0,0.0,0.0,0.0,0.0,0.0,0.0,0.0,0.0,0.0,0.0,0.0,0.0,0.0,0.0,0.0,0.0,0.0,0.0,0.0,0.0,0.0,0.0,0.0,0.0,0.0,0.0,0.0,0.0,0.0,0.0,0.0,0.0,0.0,0.0,0.0,0.0,0.0,0.0,-2.3487,-2.426,0.0,-2.5,-2.4874,-2.4771,-2.3858,-2.2912,-2.203,0.0,0.0,0.0,0.0,0.0,0.0,0.0,0.0,0.0,0.0,0.0,0.0,0.0,0.0,0.0,0.0,0.0,0.0,0.0,0.0,0.0,0.0,0.0,0.0,0.0,0.0,0.0,0.0,0.0,0.0,0.0,0.0,0.0,0.0,0.0,0.0,0.0,0.0,0.0,0.0,0.0,0.0,0.0,0.0,0.0,0.0,0.0,0.0,0.0,0.0,0.0,0.0,0.0,0.0,0.0,0.0,0.0,0.0,0.0,0.0,0.0,0.0,0.0,0.0,0.0,0.0,0.0,0.0,0.0,0.0,0.0,0.0,0.0,0.0,0.0,0.0,0.0,0.0,0.0,0.0,0.0,0.0,0.0,0.0,0.0,0.0,0.0,0.0,0.0,0.0,0.0,0.0,0.0,0.0,0.0,0.0,0.0,0.0,0.0,0.0,0.0,0.0,-2.2705,-2.3698,-2.4449,0.0,-2.4517,-2.4242,-2.3877,-2.2719,-2.1853,-2.1509,0.0,0.0,0.0,0.0,0.0,0.0,0.0,0.0,0.0,0.0,0.0,0.0,0.0,0.0,0.0,0.0,0.0,0.0,0.0,0.0,0.0,0.0,0.0,0.0,0.0,0.0,0.0,0.0,0.0,0.0,0.0,0.0,0.0,0.0,0.0,0.0,0.0,0.0,0.0,0.0,0.0,0.0,0.0,0.0,0.0,0.0,0.0,0.0,0.0,0.0,0.0,0.0,0.0,0.0,0.0,0.0,0.0,0.0,0.0,0.0,0.0,0.0,0.0,0.0,0.0,0.0,0.0,0.0,0.0,0.0,0.0,0.0,0.0,0.0,0.0,0.0,0.0,0.0,0.0,0.0,0.0,0.0,0.0,0.0,0.0,0.0,0.0,0.0,0.0,0.0,0.0,0.0,0.0,0.0,0.0,0.0,0.0,0.0,0.0,0.0,0.0,0.0,-2.269,-2.4083,-2.4726,-2.3883,-2.3593,-2.3126,-2.227,-2.0352,-1.966,0.0,0.0,0.0,0.0,0.0,0.0,0.0,0.0,0.0,0.0,0.0,0.0,0.0,0.0,0.0,0.0,0.0,0.0,0.0,0.0,0.0,0.0,0.0,0.0,0.0,0.0,0.0,0.0,0.0,0.0,0.0,0.0,0.0,0.0,0.0,0.0,0.0,0.0,0.0,0.0,0.0,0.0,0.0,0.0,0.0,0.0,0.0,0.0,0.0,0.0,0.0,0.0,0.0,0.0,0.0,0.0,0.0,0.0,0.0,0.0,0.0,0.0,0.0,0.0,0.0,0.0,0.0,0.0,0.0,0.0,0.0,0.0,0.0,0.0,0.0,0.0,0.0,0.0,0.0,0.0,0.0,0.0,0.0,0.0,0.0,0.0,0.0,0.0,0.0,0.0,0.0,0.0,0.0,0.0,0.0,0.0,0.0,0.0,0.0,0.0,0.0,0.0,0.0,-2.1865,-2.2666,-2.3156,-2.2848,-2.2623,-2.2324,-2.1877,-2.0304,-1.9638,-2.0327,0.0,0.0,0.0,0.0,0.0,0.0,0.0,0.0,0.0,0.0,0.0,0.0,0.0,0.0,0.0,0.0,0.0,0.0,0.0,0.0,0.0,0.0,0.0,0.0,0.0,0.0,0.0,0.0,0.0,0.0,0.0,0.0,0.0,0.0,0.0,0.0,0.0,0.0,0.0,0.0,0.0,0.0,0.0,0.0,0.0,0.0,0.0,0.0,0.0,0.0,0.0,0.0,0.0,0.0,0.0,0.0,0.0,0.0,0.0,0.0,0.0,0.0,0.0,0.0,0.0,0.0,0.0,0.0,0.0,0.0,0.0,0.0,0.0,0.0,0.0,0.0,0.0,0.0,0.0,0.0,0.0,0.0,0.0,0.0,0.0,0.0,0.0,0.0,0.0,0.0,0.0,0.0,0.0,0.0,0.0,0.0,0.0,0.0,0.0,0.0,0.0,0.0,-2.134,-2.1893,-2.2154,-2.1749,-2.1548,-2.1235,-2.0741,-1.9209,-1.8593,-1.9344,0.0,0.0,0.0,0.0,0.0,0.0,0.0,0.0,0.0,0.0,0.0,0.0,0.0,0.0,0.0,0.0,0.0,0.0,0.0,0.0,0.0,0.0,0.0,0.0,0.0,0.0,0.0,0.0,0.0,0.0,0.0,0.0,0.0,0.0,0.0,0.0,0.0,0.0,0.0,0.0,0.0,0.0,0.0,0.0,0.0,0.0,0.0,0.0,0.0,0.0,0.0,0.0,0.0,0.0,0.0,0.0,0.0,0.0,0.0,0.0,0.0,0.0,0.0,0.0,0.0,0.0,0.0,0.0,0.0,0.0,0.0,0.0,0.0,0.0,0.0,0.0,0.0,0.0,0.0,0.0,0.0,0.0,0.0,0.0,0.0,0.0,0.0,0.0,0.0,0.0,0.0,0.0,0.0,0.0,0.0,0.0,0.0,0.0,0.0,0.0,0.0,0.0,-2.1005,-2.1465,-2.1496,-2.0678,-2.042,-1.9998,-1.9216,-1.7669,-1.7136,-1.8093,0.0,0.0,0.0,0.0,0.0,0.0,0.0,0.0,0.0,0.0,0.0,0.0,0.0,0.0,0.0,0.0,0.0,0.0,0.0,0.0,0.0,0.0,0.0,0.0,0.0,0.0,0.0,0.0,0.0,0.0,0.0,0.0,0.0,0.0,0.0,0.0,0.0,0.0,0.0,0.0,0.0,0.0,0.0,0.0,0.0,0.0,0.0,0.0,0.0,0.0,0.0,0.0,0.0,0.0,0.0,0.0,0.0,0.0,0.0,0.0,-2.1158,0.0,0.0,0.0,0.0,0.0,0.0,0.0,0.0,0.0,0.0,0.0,0.0,0.0,0.0,0.0,0.0,0.0,0.0,0.0,0.0,0.0,0.0,0.0,0.0,0.0,0.0,0.0,0.0,0.0,0.0,0.0,0.0,0.0,0.0,0.0,0.0,0.0,0.0,0.0,0.0,0.0,-2.0153,-2.0214,-2.0148,-1.9792,-1.9623,-1.9362,-1.893,-1.8113,-1.7674,-1.7806,-1.7245,0.0,0.0,0.0,0.0,0.0,0.0,0.0,0.0,0.0,0.0,0.0,0.0,0.0,0.0,0.0,0.0,0.0,0.0,0.0,0.0,0.0,0.0,0.0,0.0,0.0,0.0,0.0,0.0,0.0,0.0,0.0,0.0,0.0,0.0,0.0,0.0,0.0,0.0,0.0,0.0,0.0,0.0,0.0,0.0,0.0,0.0,0.0,0.0,0.0,0.0,0.0,0.0,0.0,0.0,0.0,0.0,0.0,0.0,0.0,0.0,-2.1778,0.0,0.0,0.0,0.0,0.0,0.0,0.0,0.0,0.0,0.0,0.0,0.0,0.0,0.0,0.0,0.0,0.0,0.0,0.0,0.0,0.0,0.0,0.0,0.0,0.0,0.0,0.0,0.0,0.0,0.0,0.0,0.0,0.0,0.0,0.0,0.0,0.0,0.0,0.0,0.0,-1.9713,-1.955,-1.9446,-1.9402,-1.9292,-1.9164,-1.9051,-1.8374,-1.7933,-1.7887,-1.7278,0.0,0.0,0.0,0.0,0.0,0.0,0.0,0.0,0.0,0.0,0.0,0.0,0.0,0.0,0.0,0.0,0.0,0.0,0.0,0.0,0.0,0.0,0.0,0.0,0.0,0.0,0.0,0.0,0.0,0.0,0.0,0.0,0.0,0.0,0.0,0.0,0.0,0.0,0.0,0.0,0.0,0.0,0.0,0.0,0.0,0.0,0.0,0.0,0.0,0.0,0.0,0.0,0.0,-2.3862,-2.3823,-2.3004,-2.3734,-2.4106,-2.4115,-2.2733,-2.292,-2.4193,-2.4161,0.0,0.0,0.0,0.0,0.0,0.0,0.0,0.0,0.0,0.0,0.0,0.0,0.0,0.0,0.0,0.0,0.0,0.0,0.0,0.0,0.0,0.0,0.0,0.0,-1.9364,-1.8716,-1.8827,0.0,0.0,0.0,0.0,0.0,0.0,0.0,0.0,0.0,0.0,0.0,-1.949,-1.9292,-1.9186,-1.9266,-1.9182,-1.915,-1.9235,-1.8599,-1.8143,-1.8038,-1.7463,-1.7041,0.0,0.0,0.0,0.0,0.0,0.0,0.0,0.0,0.0,0.0,0.0,0.0,0.0,0.0,0.0,0.0,0.0,0.0,0.0,0.0,0.0,0.0,0.0,0.0,0.0,0.0,0.0,0.0,0.0,0.0,0.0,0.0,-2.0504,-2.0508,0.0,0.0,0.0,0.0,0.0,0.0,0.0,0.0,0.0,0.0,0.0,0.0,0.0,-2.203,-2.283,-2.3526,-2.3596,-2.3009,-2.3828,-2.3751,-2.2919,-2.3023,-2.348,-2.4196,-2.3971,0.0,-2.4142,-2.341,0.0,0.0,0.0,0.0,0.0,0.0,0.0,0.0,0.0,0.0,0.0,0.0,0.0,0.0,0.0,0.0,0.0,0.0,0.0,0.0,0.0,0.0,-2.0944,-2.0107,-1.9249,-1.8623,0.0,-1.9294,-1.9629,-1.8887,-1.8839,0.0,0.0,0.0,0.0,0.0,0.0,0.0,-1.9438,-1.938,-1.9323,-1.9216,-1.9184,-1.9135,-1.9053,-1.8925,-1.8562,-1.7874,-1.7899,-1.7642,-1.6936,-1.6808,0.0,0.0,0.0,0.0,0.0,0.0,0.0,0.0,0.0,0.0,0.0,0.0,0.0,0.0,0.0,0.0,0.0,0.0,0.0,0.0,0.0,0.0,0.0,0.0,0.0,0.0,0.0,0.0,0.0,-2.0803,-2.0677,-2.1177,-2.0791,-2.0506,0.0,0.0,0.0,0.0,0.0,0.0,0.0,0.0,0.0,-2.2459,-2.2469,-2.2854,-2.3674,-2.4014,-2.4266,-2.4401,-2.4757,-2.4737,-2.435,-2.435,-2.4563,-2.4931,-2.4931,-2.4923,-2.4904,-2.452,-2.407,-2.3638,0.0,0.0,0.0,0.0,-2.3592,-2.3637,-2.4096,-2.4254,-2.4177,-2.3721,0.0,0.0,0.0,0.0,0.0,0.0,0.0,0.0,0.0,0.0,-2.0948,-2.0,-1.95,-1.9213,-1.9213,-1.955,-1.9609,0.0,-1.939,-1.987,-1.9525,0.0,0.0,0.0,0.0,-1.9582,-1.9518,-1.9446,-1.9402,-1.9372,-1.9375,-1.9329,-1.9216,-1.9198,-1.9016,-1.8669,-1.8309,-1.7935,-1.7591,-1.7174,-1.7127,0.0,0.0,0.0,0.0,0.0,0.0,0.0,0.0,0.0,0.0,0.0,0.0,0.0,0.0,0.0,0.0,0.0,0.0,0.0,0.0,0.0,0.0,0.0,0.0,0.0,0.0,0.0,0.0,-2.1235,-2.0983,-2.1417,-2.1288,-2.1002,0.0,0.0,0.0,0.0,0.0,0.0,-2.2101,-2.2721,-2.3153,-2.3302,-2.3301,-2.3705,-2.4525,-2.4737,-2.5066,-2.5511,-2.5704,-2.5704,-2.5511,-2.5511,-2.5511,-2.5511,-2.5511,-2.5511,-2.5472,-2.5258,-2.4774,-2.4159,-2.3961,-2.3457,-2.2966,-2.3806,-2.4226,-2.4488,-2.5101,-2.5303,-2.5187,-2.4601,-2.4409,-2.4332,-2.3889,0.0,0.0,0.0,0.0,-2.3837,-2.2216,-2.1745,-2.1431,-2.0283,-2.0012,-1.9948,-1.9742,-1.9854,-1.9725,0.0,-1.9578,-2.0282,-2.0004,0.0,0.0,0.0,0.0,-1.9811,-1.9559,-1.9435,-1.9387,-1.9446,-1.9464,-1.9546,-1.97,-1.9635,-1.9601,-1.9601,-1.9051,-1.8537,-1.8115,-1.7569,-1.7283,-1.7264,0.0,0.0,0.0,0.0,0.0,0.0,0.0,0.0,0.0,0.0,0.0,0.0,0.0,0.0,0.0,0.0,0.0,0.0,0.0,0.0,0.0,0.0,0.0,0.0,0.0,0.0,0.0,0.0,0.0,-2.0656,-2.1985,0.0,0.0,0.0,0.0,-2.2979,-2.3011,-2.3018,-2.2937,-2.2984,-2.3357,-2.4126,-2.4138,-2.4563,-2.5434,-2.618,-2.6199,-2.5511,-2.6276,-2.6238,-2.5511,-2.5511,-2.5511,-2.5511,-2.5511,-2.5511,-2.5434,-2.4602,-2.42,-2.4025,-2.3261,-2.2901,-2.2906,-2.3792,-2.4572,-2.5255,-2.5284,-2.5303,-2.5284,-2.5245,-2.5245,-2.538,-2.6178,-2.587,0.0,0.0,-2.5772,-2.4831,-2.3896,-2.3525,-2.2951,-2.1245,-2.0835,-2.0639,-1.9873,-2.0257,-2.0299,0.0,-1.8558,-1.8882,-1.9673,0.0,-2.0075,-2.0808,-2.0826,-2.0381,-1.9445,-1.9305,-1.9308,-1.9298,-1.9378,-1.9718,-2.0473,-2.048,-2.0429,-2.0429,-2.0393,-1.9677,-1.817,-1.806,-1.8045,-1.8038,-1.7356,0.0,0.0,0.0,0.0,0.0,0.0,0.0,0.0,0.0,0.0,0.0,0.0,0.0,0.0,0.0,0.0,0.0,0.0,0.0,0.0,0.0,0.0,0.0,0.0,0.0,0.0,0.0,0.0,-2.2088,-2.1672,0.0,-2.0554,-2.155,-2.2224,-2.2201,-2.3242,-2.383,-2.3784,-2.4302,-2.473,-2.5033,-2.5043,-2.5182,-2.5511,-2.6296,-2.6566,-2.6276,-2.7136,-2.7387,-2.7116,-2.7116,-2.7108,-2.711,-2.711,-2.7082,-2.6987,-2.6146,-2.5462,-2.4904,-2.4561,-2.4418,-2.4447,-2.4755,-2.5063,-2.5303,-2.5303,-2.5303,-2.5303,-2.5303,-2.5303,-2.5457,-2.6351,-2.639,-2.6177,-2.6411,-2.583,-2.4931,-2.3884,-2.3135,-2.2487,-2.1786,-2.1611,-2.1522,-2.1243,-2.0968,-2.0633,-2.0085,-1.9973,-1.9908,-1.9699,-1.9681,-1.9753,-2.0006,-2.0001,-1.9833,-1.9472,-1.9435,-1.9608,-2.0092,-2.0163,-2.0494,-2.1305,-2.1362,-2.1106,-2.0539,-2.0503,-2.0023,-1.8922,-1.8867,-1.8629,-1.8104,-1.7835,-1.7849,0.0,0.0,0.0,0.0,0.0,0.0,0.0,0.0,0.0,0.0,0.0,0.0,0.0,0.0,0.0,0.0,0.0,0.0,0.0,0.0,0.0,0.0,0.0,0.0,0.0,0.0,-2.2293,-2.2566,-2.2076,-2.1619,-2.137,-2.2358,-2.3024,-2.3017,-2.4063,-2.469,-2.4645,-2.5189,-2.5506,-2.5498,-2.5759,-2.5898,-2.5898,-2.6729,-2.7136,-2.7155,-2.7716,-2.7995,-2.7995,-2.7997,-2.8008,-2.8009,-2.7981,-2.7943,-2.7865,-2.7325,-2.6766,-2.6217,-2.5871,-2.5736,-2.5764,-2.6082,-2.6178,-2.614,-2.5851,-2.5736,-2.5687,-2.5399,-2.5495,-2.5851,-2.6428,-2.6601,-2.6581,-2.6485,-2.5845,-2.4991,-2.4231,-2.3526,-2.2922,-2.2554,-2.242,-2.2317,-2.202,-2.1557,-2.1171,-2.1171,-2.0723,-2.0288,-2.002,-1.9973,-2.0133,-2.0637,-2.0489,-2.04,-2.0649,-2.0446,-2.0468,-2.0954,-2.1009,-2.1323,-2.2134,-2.2446,-2.2244,-2.1401,-2.1328,-2.0849,-1.9748,-1.977,-1.956,-1.9025,-1.8992,-1.8834,-1.857,0.0,0.0,0.0,0.0,0.0,0.0,0.0,0.0,0.0,0.0,0.0,0.0,0.0,0.0,0.0,0.0,0.0,0.0,0.0,0.0,0.0,0.0,0.0,-2.1734,-2.2474,-2.2706,-2.1932,-2.3274,-2.3927,-2.3081,-2.4561,-2.5557,-2.5552,-2.5525,-2.549,-2.5496,-2.5524,-2.555,-2.555,-2.6315,-2.6741,-2.6741,-2.76,-2.8053,-2.8053,-2.8073,-2.8092,-2.8083,-2.8076,-2.8086,-2.8058,-2.801,-2.7981,-2.7971,-2.7951,-2.7941,-2.7845,-2.6978,-2.6641,-2.6736,-2.7582,-2.789,-2.7775,-2.6928,-2.664,-2.6505,-2.5649,-2.5937,-2.664,-2.664,-2.664,-2.664,-2.664,-2.5918,-2.5139,-2.5139,-2.4856,-2.4409,-2.3599,-2.3273,-2.2918,-2.2138,-2.1974,-2.1941,-2.1941,-2.0659,-1.9818,-2.0596,-2.0733,-2.1274,-2.2827,-2.2401,0.0,-2.2867,-2.2277,-2.1818,-2.1876,-2.1876,-2.2189,-2.2997,-2.3786,-2.3878,-2.2997,-2.296,-2.2208,-2.0558,-2.0674,-2.0778,-2.0778,-2.0715,-2.0296,-1.9504,0.0,0.0,0.0,0.0,0.0,0.0,0.0,0.0,0.0,0.0,0.0,0.0,0.0,0.0,0.0,0.0,0.0,0.0,0.0,0.0,0.0,-2.2262,-2.323,-2.266,-2.2811,-2.2912,-2.2627,-2.2989,-2.3197,-2.2939,-2.3932,-2.4592,-2.4574,-2.5147,-2.5499,-2.551,-2.6041,-2.6373,-2.6373,-2.7194,-2.7638,-2.7638,-2.8509,-2.8934,-2.8954,-2.9573,-2.9882,-2.9882,-2.9835,-2.9815,-2.9814,-2.9745,-2.9712,-2.9652,-2.9036,-2.8767,-2.869,-2.7862,-2.7535,-2.7563,-2.7813,-2.789,-2.7871,-2.7621,-2.7544,-2.7505,-2.7255,-2.7311,-2.7473,-2.7533,-2.7511,-2.7459,-2.7462,-2.6756,-2.5939,-2.5792,-2.5129,-2.4454,-2.4131,-2.4006,-2.3915,-2.3693,-2.3195,-2.2771,-2.2771,-2.1904,-2.1258,-2.1514,-2.157,-2.1701,-2.2092,-2.1963,0.0,-2.2114,-2.1948,-2.2243,-2.3419,-2.3529,-2.3859,-2.4609,-2.4884,-2.415,-2.21,-2.1972,-2.1533,-2.0541,-2.0505,-2.0505,-2.0505,-2.0505,-2.0131,0.0,0.0,0.0,0.0,0.0,0.0,0.0,0.0,0.0,0.0,0.0,0.0,0.0,0.0,0.0,0.0,0.0,0.0,0.0,0.0,0.0,0.0,-2.2873,-2.3539,-2.3388,-2.3416,-2.345,-2.3404,-2.3392,-2.3555,-2.391,-2.4413,-2.471,-2.4737,-2.5221,-2.5646,-2.5967,-2.645,-2.6876,-2.7232,-2.8083,-2.8528,-2.8528,-2.9389,-2.9805,-2.9805,-3.0318,-3.0569,-3.0569,-3.05,-3.046,-3.0458,-3.0425,-3.0402,-3.0359,-2.9852,-2.964,0.0,0.0,0.0,0.0,0.0,-2.8948,-2.8909,-2.8525,-2.8409,-2.833,-2.7984,-2.7773,-2.7682,-2.7726,-2.7663,-2.7565,-2.7559,-2.7115,-2.6601,-2.6491,-2.571,-2.4962,-2.4893,-2.4561,-2.4266,-2.4266,-2.3897,-2.3566,-2.3566,-2.3143,0.0,-2.2812,-2.2278,-2.2075,-2.272,-2.2518,-2.2537,-2.318,-2.2978,-2.3107,-2.4022,-2.4132,-2.4277,-2.4714,-2.5061,0.0,0.0,0.0,-2.2283,-2.1581,-2.151,0.0,0.0,0.0,0.0,0.0,0.0,0.0,0.0,-2.0214,-2.0322,0.0,0.0,0.0,0.0,0.0,0.0,0.0,0.0,0.0,0.0,0.0,0.0,0.0,0.0,0.0,0.0,-2.3504,-2.3358,-2.3928,-2.4129,-2.4201,-2.4113,-2.4191,-2.4546,-2.5316,-2.5401,-2.5468,-2.5619,-2.5638,-2.5986,-2.6799,0.0,0.0,0.0,0.0,-2.9437,-2.9437,-3.0144,-3.0491,-3.0491,-3.049,-3.0499,-3.0499,-3.0428,-3.0398,-3.0398,-3.0402,-3.0398,-3.0398,-3.0398,-3.0398,-3.0302,-2.9544,-2.9236,-2.9333,-3.009,-3.0398,-3.0283,-2.9494,0.0,0.0,-2.8322,-2.7912,-2.7761,-2.7747,-2.7607,-2.746,-2.7495,-2.7351,-2.7206,-2.7206,-2.6468,-2.5727,-2.5801,-2.5041,-2.4337,-2.4339,-2.4265,-2.419,-2.419,-2.419,-2.417,-2.4113,-2.296,-2.2538,-2.395,-2.3565,-2.3601,-2.4992,-2.4533,-2.411,-2.4124,0.0,0.0,-2.4124,-2.4777,-2.4814,-2.3903,-2.3777,-2.3417,-2.2718,-2.2772,-2.316,-2.3842,-2.318,-2.2355,-2.137,-2.1534,-2.1225,-2.0444,-2.0675,-2.08,0.0,0.0,0.0,0.0,0.0,0.0,0.0,0.0,0.0,0.0,0.0,0.0,0.0,0.0,0.0,-2.3137,-2.4005,-2.4579,-2.4061,-2.458,-2.4774,-2.4156,-2.4722,-2.5222,-2.5376,-2.5395,-2.5693,-2.6406,-2.6474,-2.6841,-2.77,-2.8415,-2.8859,-2.8956,-2.9863,-3.0318,-3.0269,-3.0424,-3.0491,-3.0491,0.0,0.0,-3.0499,-3.0428,-3.0398,-3.0398,-3.0402,-3.0398,-3.0398,-3.0398,-3.0367,-3.0316,-3.0186,-3.0129,-3.0086,-3.0259,-3.0311,-3.0305,-3.0132,-3.0075,-3.0011,-2.9693,-2.9497,-2.9421,-2.9309,-2.9207,0.0,-2.921,-2.8577,-2.7922,-2.7922,-2.7152,-2.6418,-2.6418,-2.579,-2.5182,-2.5164,-2.4668,-2.419,-2.419,-2.4151,-2.4132,-2.4094,-2.3857,-2.3728,-2.3999,-2.3908,-2.3906,-2.4198,-2.4125,-2.4271,-2.4908,-2.4981,-2.496,-2.4899,-2.5045,-2.4514,-2.3037,-2.2333,-2.1643,-2.0843,-2.1462,-2.1571,-2.108,-2.1534,-2.137,-2.0536,-2.1824,-2.2043,-2.128,-2.137,-2.1423,0.0,0.0,0.0,0.0,0.0,0.0,0.0,0.0,0.0,0.0,0.0,-2.2456,-2.283,0.0,-2.4589,-2.412,-2.4725,-2.5107,-2.4654,-2.4952,-2.5079,-2.4745,-2.5457,-2.5996,-2.6005,-2.641,-2.6824,-2.7267,-2.7296,-2.7682,-2.855,-2.9014,-2.9438,-2.9843,-3.0317,-3.053,-3.05,-3.046,-3.046,-3.046,-3.0447,-3.0455,-3.0455,-3.0383,-3.0352,-3.0352,-3.0355,-3.0362,-3.0362,-3.0362,-3.033,-3.0299,-3.033,-3.033,-3.0299,-3.0299,-3.0305,-3.0292,-3.0292,-3.0279,-3.0234,-3.0133,-3.0011,-2.9902,-2.9817,-2.9626,-2.9455,-2.9494,-2.9035,-2.855,-2.855,-2.7853,-2.7134,-2.7134,-2.6512,-2.5905,-2.5905,-2.5594,-2.5299,-2.5299,-2.526,-2.5111,-2.4671,-2.4598,-2.447,-2.4051,-2.3996,-2.3996,-2.3937,-2.3937,-2.4101,-2.446,-2.4496,-2.4496,-2.4454,-2.4454,-2.4106,-2.3306,-2.2874,-2.2457,-2.2057,-2.2439,-2.2457,-2.2057,-2.2093,-2.1912,-2.1514,-2.2294,-2.2495,-2.2094,-2.2514,-2.2516,0.0,0.0,0.0,0.0,0.0,0.0,0.0,0.0,-2.1978,-2.2158,-2.3263,-2.421,-2.4172,-2.4849,-2.5378,-2.5302,-2.5283,-2.533,-2.5428,-2.5428,-2.5508,-2.5751,-2.6261,-2.6647,-2.6823,-2.7468,-2.796,-2.8145,-2.8145,-2.8511,-2.9389,-2.9427,-2.9755,-3.0469,-3.0499,-3.0479,-3.0479,-3.0428,-3.0398,-3.0398,-3.0402,-3.0379,-3.0379,-3.0316,-3.0304,-3.0292,-3.0305,-3.0407,-3.0561,-3.0561,-3.0644,-3.0797,-3.0797,-3.0751,-3.0666,-3.04,-3.0279,-3.0305,-3.0412,-3.0428,-3.0386,-3.0479,-3.0376,-3.0204,-2.9999,-2.9718,-2.9413,-2.9265,-2.9093,-2.897,-2.897,-2.8429,-2.789,-2.789,-2.7264,-2.6636,-2.6636,-2.6508,-2.6399,-2.6399,-2.6399,-2.6158,-2.5459,-2.531,-2.5005,-2.4101,-2.3976,-2.3937,-2.3896,-2.3876,-2.3876,-2.3816,-2.3795,-2.3795,-2.3813,-2.3795,-2.3723,-2.3575,-2.3578,-2.3524,-2.3361,-2.3343,-2.3343,-2.3322,-2.2906,-2.2668,-2.2668,-2.2813,-2.2885,-2.2903,-2.3645,-2.3635,-2.2882,-2.2339,-2.1729,-2.1632,-2.1608,-2.1996,0.0,0.0,-2.2992,-2.376,-2.407,-2.4186,-2.4115,-2.4811,-2.5365,-2.5224,-2.5262,-2.5529,-2.6178,-2.6281,-2.656,-2.735,-2.6895,-2.6814,-2.7596,-2.775,-2.8157,-2.8991,-2.8989,-2.9355,-3.0224,-3.0263,-3.0309,-3.0421,-3.0477,-3.0469,-3.0398,-3.0398,-3.0398,-3.0398,-3.0402,-3.0367,-3.0316,-3.0304,-3.0311,-3.0292,-3.0292,-3.0752,-3.1448,-3.1448,-3.1875,-3.2517,-3.2517,-3.2359,-3.2005,-3.0686,-3.0207,-3.03,-3.0804,-3.1021,-3.1066,-3.142,-3.1514,-3.1318,-3.0388,-3.005,-2.985,-2.9064,-2.8834,-2.881,-2.881,-2.8755,-2.8682,-2.8682,-2.8062,-2.7479,-2.7479,-2.6891,-2.6399,-2.6399,-2.6354,-2.6295,-2.6164,-2.6123,-2.5552,-2.4052,-2.3816,-2.3816,-2.3816,-2.3816,-2.3816,-2.3795,-2.3795,-2.3792,-2.3786,-2.3792,-2.3503,-2.2772,-2.2777,-2.251,-2.1785,-2.1767,-2.173,-2.1671,-2.2285,-2.2589,-2.2527,-2.3232,-2.3595,-2.3613,-2.4325,-2.4338,-2.3713,0.0,0.0,0.0,-2.2713,-2.3126,-2.3385,-2.3528,-2.3717,-2.4114,-2.4505,-2.4801,-2.4792,-2.5033,-2.5209,0.0,-2.5172,-2.5459,-2.6294,-2.639,-2.6708,-2.7599,-2.7822,-2.8058,-2.8452,-2.8962,-2.9416,-2.9817,-2.9805,-2.9958,-3.0316,-3.0336,-3.0343,-3.033,-3.0355,-3.0367,-3.0336,-3.0336,-3.0336,-3.0336,-3.0343,-3.0586,-3.1053,-3.1021,-3.1262,-3.1699,-3.1699,-3.1851,-3.2083,-3.2083,-3.2172,-3.2334,-3.2278,-3.2204,-3.2051,-3.1627,-3.1379,-3.1278,-3.1506,-3.1561,-3.1598,-3.1707,-3.1753,-3.1675,-3.1228,-3.0688,-3.0129,-2.9774,-2.9253,-2.8785,-2.8785,-2.8761,-2.8737,-2.8737,-2.8458,-2.8179,-2.8179,-2.7925,-2.7665,-2.7641,-2.7616,-2.7405,-2.6929,-2.679,-2.6393,-2.5257,-2.4747,-2.4502,-2.4494,-2.4078,-2.3789,-2.3747,-2.3747,-2.3747,-2.3743,-2.3725,-2.3599,-2.3253,-2.3274,-2.3133,-2.279,-2.279,-2.277,-2.2749,-2.3031,-2.3167,-2.3145,-2.3876,-2.4211,-2.4229,-2.4986,-2.5165,-2.3947,0.0,0.0,-2.2803,-2.3226,-2.3823,-2.3256,-2.3793,-2.4407,-2.4426,-2.4851,-2.5192,-2.5222,-2.5153,-2.5088,-2.507,-2.5088,-2.5399,-2.6263,-2.6371,-2.6702,-2.7574,-2.8204,-2.8657,-2.8938,-2.9768,-3.0279,-3.0312,-3.0292,-3.0292,-3.0292,-3.0292,-3.0292,-3.0292,-3.0292,-3.0427,-3.0657,-3.0657,-3.0772,-3.1002,-3.1002,-3.1314,-3.1933,-3.179,-3.2054,-3.2559,-3.2559,-3.261,-3.2675,-3.2749,-3.277,-3.2784,-3.2743,-3.2702,-3.266,-3.292,-3.258,-3.2045,-3.2166,-3.2241,-3.2297,-3.2367,-3.2395,-3.2317,-3.2024,-3.1426,-3.0785,-3.0564,-2.9795,-2.9064,-2.9039,-2.8851,-2.8644,-2.8619,-2.8587,-2.8536,-2.8536,-2.8536,-2.8536,-2.8484,-2.8458,-2.8234,-2.7625,-2.7466,-2.7243,-2.667,-2.5955,-2.5337,-2.4987,-2.4248,-2.3718,-2.3656,-2.3634,-2.3634,-2.3611,-2.3634,-2.3634,-2.3611,-2.3634,-2.3634,-2.3611,-2.3611,-2.3611,-2.3589,-2.3522,-2.3624,-2.3773,-2.4284,-2.4584,-2.4739,-2.5482,-2.5727,0.0,0.0,-2.2399,-2.1556,-2.2498,-2.3632,-2.3657,-2.445,-2.5122,-2.5005,-2.5096,-2.516,-2.5031,-2.5068,-2.508,-2.5006,-2.5063,-2.5385,-2.6198,-2.6293,-2.6637,-2.7496,-2.7611,-2.7967,0.0,-2.9696,-3.0234,-3.0312,-3.0292,-3.0292,-3.0292,-3.0292,-3.0292,-3.0292,-3.0292,-3.0714,-3.1544,-3.1563,-3.1947,-3.2727,-3.2727,-3.2737,-3.2752,-3.2492,-3.2315,-3.2222,-3.2223,-3.2636,-3.3369,-3.3582,-3.4131,-3.4794,-3.4794,-3.4695,-3.4526,-3.4548,-3.3496,-3.218,-3.2754,-3.3078,-3.3315,-3.3697,-3.3847,-3.3647,-3.2584,-3.2265,-3.2056,-3.122,-3.0396,-2.9753,-2.9692,-2.9088,-2.8492,-2.8406,-2.8424,-2.8424,-2.8424,-2.8424,-2.8424,-2.8406,-2.8353,-2.8282,-2.8264,-2.8156,-2.8045,-2.8027,-2.7244,-2.6189,-2.4962,-2.4096,-2.3585,-2.3517,-2.3517,-2.3494,-2.3407,-2.3471,-2.3494,-2.3407,-2.3471,-2.3494,-2.3407,-2.3407,-2.3383,-2.3313,-2.3313,-2.3636,-2.4284,-2.4302,-2.455,-2.4994,-2.5749,-2.5757,0.0,0.0,-2.303,-2.2746,-2.3553,-2.4398,-2.4431,-2.4688,-2.493,-2.4877,-2.4975,-2.5227,-2.5704,-2.5798,-2.5842,-2.5861,-2.6257,-2.6479,-2.6266,-2.7191,-2.7599,-2.6839,-2.7714,0.0,0.0,0.0,0.0,-3.0188,-3.0226,-3.0226,-3.0226,-3.0226,-3.0226,-3.0226,-3.0226,-3.0628,-3.1456,-3.1513,-3.1934,-3.2737,-3.3276,-3.3513,-3.3484,-3.3918,-3.4111,-3.4073,-3.4018,-3.4071,-3.4212,-3.4273,-3.4341,-3.4435,-3.439,-3.4321,-3.4245,-3.4074,-3.3697,-3.3327,-3.3481,-3.3573,-3.361,-3.3579,-3.3577,-3.3494,-3.3085,-3.2604,-3.2087,-3.1748,-3.1099,-3.0458,-3.043,-3.0158,-2.9771,-2.9241,-2.907,-2.8854,-2.838,-2.8273,-2.8246,-2.8209,-2.8164,-2.8136,-2.8007,-2.7996,-2.7996,-2.7922,-2.7211,-2.6356,-2.5384,-2.4527,-2.3982,-2.3957,-2.3565,-2.3265,-2.3217,-2.3265,-2.3265,-2.3217,-2.3217,-2.3217,-2.3193,-2.3193,-2.3422,-2.3882,-2.3857,-2.4191,-2.4952,-2.5415,-2.5611,-2.5605,-2.6267,-2.6351,0.0,-2.2697,-2.285,-2.3164,-2.3939,-2.4588,-2.4685,-2.4771,-2.4823,-2.4795,-2.491,-2.5228,-2.5949,-2.608,-2.6088,-2.6122,-2.6739,-2.697,-2.6223,-2.7031,-2.7456,-2.6773,-2.7365,-2.7869,0.0,0.0,0.0,-3.0099,-3.0171,-3.0157,-3.0157,-3.0176,-3.0176,-3.0176,-3.0476,-3.103,-3.1817,-3.221,-3.2787,-3.3592,-3.4077,-3.4274,-3.4239,-3.4661,-3.4831,-3.4811,-3.4752,-3.4628,-3.4495,-3.4473,-3.434,-3.4197,-3.4049,-3.3998,-3.3972,-3.3807,-3.3807,-3.3842,-3.3753,-3.3753,-3.3753,-3.3538,-3.3422,-3.3393,-3.3274,-3.2871,-3.2397,-3.2385,-3.1751,-3.1112,-3.1094,-3.082,-3.0404,-2.9904,-2.9721,-2.9461,-2.8678,-2.85,-2.8401,-2.805,-2.794,-2.7882,-2.7748,-2.7766,-2.7736,-2.763,-2.7215,-2.6667,-2.5963,-2.5119,-2.4585,-2.4558,-2.4173,-2.3788,-2.3482,-2.349,-2.3368,-2.3063,-2.3307,-2.344,-2.3397,-2.351,-2.3794,-2.4261,-2.4047,-2.4338,-2.5107,-2.5538,-2.5739,-2.5715,-2.6116,-2.6139,-2.2595,-2.235,-2.1861,-2.2794,-2.3621,-2.4211,-2.4371,-2.4648,-2.4828,-2.47,-2.4836,-2.5148,0.0,0.0,-2.5899,-2.5759,-2.6541,-2.6892,-2.6097,-2.6005,-2.6373,0.0,0.0,0.0,0.0,0.0,0.0,-3.0022,0.0,-3.0079,-3.0102,-3.0087,-3.0106,-3.0145,-3.0952,-3.1787,-3.2645,-3.3589,-3.4432,-3.5183,-3.5057,-3.5001,-3.4983,-3.471,-3.4561,-3.4495,-3.4431,-3.4363,-3.4269,-3.4221,-3.4197,-3.413,-3.3895,-3.3788,-3.3788,-3.3762,-3.378,-3.3734,-3.3587,-3.3643,-3.3753,-3.3549,-3.3462,-3.3404,-3.3147,-3.3042,-3.2997,-3.2979,-3.238,-3.1734,-3.1653,-3.1071,-3.0472,-3.0362,-3.0331,-3.0101,-2.9319,-2.9082,-2.884,-2.8053,-2.7777,-2.7639,-2.7587,-2.7483,-2.7345,-2.7282,-2.7282,-2.7116,-2.6597,-2.5841,-2.5314,-2.5258,-2.5223,-2.491,-2.4197,-2.4145,-2.3815,-2.305,-2.3728,-2.4083,-2.3967,-2.422,-2.4397,-2.4447,-2.3934,-2.4047,-2.4872,-2.4872,-2.5056,-2.5406,-2.5368,-2.5246,-2.1899,-2.2002,-2.2407,-2.3304,-2.3671,-2.3715,-2.3249,-2.3713,-2.4045,-2.3364,-2.3944,-2.4613,0.0,0.0,0.0,-2.5164,-2.6597,0.0,-2.6035,-2.6913,0.0,-2.7225,0.0,-2.7954,-2.8501,-2.8539,0.0,0.0,-3.0007,-3.0038,-3.0022,-2.9972,-3.026,-3.0905,-3.1143,-3.1939,-3.3403,-3.4348,-3.4883,-3.4983,-3.4945,-3.4908,-3.4849,-3.4728,-3.4645,-3.4561,-3.4495,-3.434,-3.4148,-3.4124,-3.3979,-3.376,-3.368,-3.3616,-3.356,-3.3419,-3.3321,-3.3232,-3.3073,-3.3208,-3.3379,-3.3147,-3.3073,-3.3042,-3.2916,-3.287,-3.2838,-3.2737,-3.253,-3.2388,-3.2338,-3.2115,-3.1734,-3.112,-3.0881,-3.052,-2.9784,-2.9595,-2.9542,-2.9333,-2.8749,-2.8112,-2.7631,-2.7341,-2.7184,-2.723,-2.7137,-2.7085,-2.7085,-2.639,-2.5893,-2.5875,-2.5421,-2.5005,-2.4718,-2.4741,-2.4626,-2.4276,-2.4447,-2.4521,-2.4504,-2.4309,-2.4475,-2.5078,-2.4627,-2.4783,-2.554,-2.554,-2.5509,-2.5406,-2.5307,-2.5091,-2.2088,-2.2253,-2.2478,-2.3348,-2.362,-2.3605,-2.3375,-2.3767,-2.4063,-2.3675,-2.4122,0.0,0.0,0.0,0.0,0.0,0.0,0.0,-2.6451,-2.7084,-2.7793,0.0,-2.8203,0.0,-2.8985,-2.9004,-2.921,0.0,-2.991,-2.9943,-2.9907,-2.9874,-3.0236,-3.1087,-3.1498,-3.2519,-3.4206,-3.4736,-3.4927,-3.4851,-3.4831,-3.479,-3.4708,-3.4645,-3.4517,-3.4363,0.0,-3.4197,-3.3947,-3.377,-3.3588,-3.3419,-3.3225,-3.3136,-3.3093,-3.2957,-3.288,-3.2816,-3.259,-3.2672,-3.2798,-3.277,-3.2755,-3.2722,-3.2674,-3.2608,-3.2523,-3.2456,-3.2404,-3.237,-3.237,-3.2318,-3.2162,-3.1707,-3.1498,-3.122,-3.0454,-3.0264,-3.0039,-2.9296,-2.8678,-2.8111,-2.7417,-2.7152,-2.7087,-2.712,-2.704,-2.704,-2.7154,-2.6759,-2.6485,-2.6485,-2.6155,-2.5777,-2.536,-2.5356,-2.5189,-2.4739,-2.5047,-2.5234,-2.5234,-2.4962,-2.5008,-2.5454,-2.4846,-2.4738,-2.5144,-2.5144,-2.5044,-2.4918,-2.4815,-2.4826,-2.2558,-2.2664,-2.2428,-2.3229,-2.3486,-2.3635,-2.3856,-2.4118,-2.4351,-2.4396,0.0,0.0,-2.4225,0.0,-2.6281,-2.4389,0.0,-2.7449,-2.6804,-2.6823,-2.7493,-2.9117,-2.8762,-2.8688,-2.9589,-2.9607,-2.9608,-2.9663,-2.9771,-2.9825,-2.979,-2.9773,-3.0149,-3.0959,-3.1996,-3.3242,-3.4699,-3.4774,-3.4792,-3.4753,-3.471,-3.4645,-3.4539,-3.4473,-3.4293,-3.4049,-3.4049,-3.3921,-3.368,-3.3339,-3.3129,-3.3068,-3.2705,-3.2573,-3.2539,-3.2456,-3.2439,-3.2422,-3.2249,-3.2179,-3.2214,-3.2472,-3.2472,-3.2439,-3.2439,-3.2336,-3.2179,-3.2179,-3.2144,-3.2108,-3.2108,-3.2073,-3.2037,-3.2037,-3.2037,-3.1827,-3.1115,-3.0941,-3.0386,-2.8733,-2.8339,-2.8015,-2.7281,-2.7043,-2.6992,-2.6992,-2.6975,-2.6975,-2.6975,-2.6975,-2.7007,-2.7007,-2.7007,-2.6736,-2.6087,-2.6036,-2.5746,-2.5016,-2.5612,-2.5987,-2.5924,-2.5735,-2.5626,-2.5535,-2.4695,-2.4261,-2.4261,-2.4261,-2.4261,-2.4276,-2.4208,-2.4518,-2.2043,-2.254,-2.3023,-2.3392,-2.3417,-2.3257,-2.2937,-2.3446,0.0,0.0,0.0,-2.4029,-2.2543,-2.419,0.0,-2.2787,0.0,0.0,0.0,0.0,-2.721,0.0,0.0,0.0,0.0,0.0,0.0,0.0,-2.9551,-2.9608,-2.9701,-2.9664,-3.0058,-3.0979,-3.2504,-3.3448,-3.3733,-3.445,-3.4749,-3.4626,-3.4604,-3.4473,-3.4197,-3.4173,-3.4023,-3.3762,-3.3643,0.0,-3.3208,-3.3086,-3.2834,-3.2541,-3.2457,-3.2336,-3.2179,-3.2179,-3.2179,-3.2144,-3.2108,-3.2108,-3.2108,-3.2179,-3.2179,-3.2179,-3.2179,-3.2144,-3.2108,-3.2108,-3.2108,-3.2108,-3.2108,-3.1982,-3.1873,-3.1873,-3.1726,-3.1559,-3.1422,-3.1387,-3.0942,-2.9349,-2.9023,-2.8784,-2.8049,-2.7351,-2.6926,-2.6926,-2.6825,-2.6742,-2.6742,-2.6892,-2.7007,-2.7007,-2.7007,-2.694,-2.6738,-2.6738,-2.6621,-2.6352,-2.6471,-2.6404,-2.6009,-2.5656,-2.5253,-2.4784,-2.4287,-2.4067,-2.4067,-2.4067,-2.4067,-2.4067,-2.4024,-2.4389,-2.1779,-2.2468,-2.3102,-2.3283,-2.3295,-2.323,-2.3092,0.0,0.0,0.0,0.0,-2.3986,-2.2627,0.0,0.0,0.0,0.0,0.0,0.0,0.0,0.0,0.0,0.0,0.0,0.0,0.0,0.0,0.0,-2.9041,-2.9025,-2.957,-3.0,-3.0411,-3.0845,-3.2477,-3.3342,-3.3344,-3.417,-3.4561,-3.4495,-3.4495,-3.434,-3.4049,-3.4023,-3.377,-3.3368,-3.3291,-3.305,-3.277,-3.2722,-3.2523,-3.2301,-3.2267,-3.2196,-3.2073,-3.202,-3.1984,-3.1984,-3.1893,-3.1856,-3.1856,-3.18,-3.1873,-3.1929,-3.1929,-3.1873,-3.18,-3.18,-3.18,-3.18,-3.18,-3.1726,-3.1651,-3.1651,-3.1593,-3.1517,-3.1517,-3.1155,-3.0503,-2.9361,-2.8781,-2.8252,-2.7505,-2.7046,-2.6792,-2.6792,-2.6725,-2.6657,-2.6657,-2.6708,-2.6742,-2.6775,-2.6775,-2.6742,-2.6691,-2.6486,-2.6314,-2.6227,-2.6052,-2.5819,-2.5577,-2.5198,-2.4863,-2.4623,-2.4204,-2.3982,-2.3982,-2.394,-2.3882,-2.3897,-2.4115,-2.4582,-2.1603,-2.2174,-2.2573,-2.2917,-2.2976,-2.3059,-2.3504,-2.3692,0.0,0.0,0.0,-2.4116,0.0,0.0,0.0,0.0,0.0,0.0,0.0,0.0,0.0,0.0,0.0,0.0,0.0,0.0,0.0,0.0,-2.8589,-2.8443,-2.9174,-2.9884,-3.0314,-3.0445,-3.207,-3.2929,-3.2929,-3.39,-3.4386,-3.4381,-3.4274,-3.4105,-3.3868,-3.3716,-3.3379,-3.2912,-3.2848,-3.2672,-3.2422,-3.2336,-3.2267,-3.2144,-3.2073,-3.2037,-3.2001,-3.1858,-3.1839,-3.1802,-3.1617,-3.1596,-3.1559,-3.1517,-3.1631,-3.1726,-3.1726,-3.1631,-3.1517,-3.1517,-3.1517,-3.1517,-3.1517,-3.1479,-3.1462,-3.144,-3.144,-3.1389,-3.1236,-3.0649,-2.9949,-2.9185,-2.8367,-2.7603,-2.7012,-2.6776,-2.664,-2.664,-2.6589,-2.6537,-2.6452,-2.6382,-2.6312,-2.626,-2.6382,-2.6417,-2.6347,-2.5941,-2.5668,-2.5668,-2.5335,-2.5089,-2.4973,-2.4688,-2.4461,-2.4338,-2.3994,-2.3855,-2.3855,-2.3754,-2.3696,-2.3726,-2.4164,-2.4726,-2.1482,-2.1318,-2.1131,-2.2047,-2.2255,-2.2491,-2.3608,0.0,0.0,0.0,-2.4211,-2.4184,-2.3178,0.0,0.0,0.0,0.0,0.0,0.0,0.0,0.0,0.0,0.0,0.0,0.0,0.0,0.0,0.0,-2.8589,-2.8163,-2.8313,-2.8446,-2.8876,-2.9586,-3.1248,-3.2107,-3.2107,-3.362,-3.4363,-3.4293,-3.3943,-3.3625,-3.3332,-3.297,-3.2669,-3.2386,-3.2301,-3.2249,0.0,-3.2161,-3.2073,-3.1948,-3.193,-3.1802,-3.1654,-3.1617,-3.1596,-3.1538,-3.1517,-3.1517,-3.1517,-3.1517,-3.1517,-3.1517,-3.1517,-3.1517,-3.1517,-3.1517,-3.1517,-3.1517,-3.1517,-3.1406,-3.1312,-3.123,-3.123,-3.1043,-3.0345,-3.0159,-2.985,-2.8999,-2.8205,-2.7683,-2.7545,-2.6956,-2.652,-2.652,-2.652,-2.6364,-2.5941,-2.5868,-2.5668,-2.5198,-2.5577,-2.5868,-2.5868,-2.5503,-2.5259,-2.5259,-2.5128,-2.4784,-2.4318,-2.4184,-2.3921,-2.3436,-2.3407,-2.3363,-2.3363,-2.3363,-2.3363,-2.3378,-2.3938,-2.4587,-2.0984,-2.1125,-2.1435,-2.1942,-2.1795,-2.1868,-2.3318,0.0,0.0,-2.3767,-2.4097,-2.4173,-2.3694,-2.3971,0.0,0.0,0.0,0.0,0.0,0.0,0.0,0.0,0.0,0.0,0.0,0.0,0.0,0.0,-2.7825,-2.736,-2.7419,-2.7903,-2.8554,-2.9351,-3.0968,-3.1801,-3.1755,-3.3351,-3.4148,-3.4124,-3.376,-3.3458,-3.3214,-3.283,-3.2488,-3.2249,-3.2179,-3.2108,0.0,-3.1984,-3.1875,-3.1728,-3.1728,-3.1671,-3.1538,-3.1538,-3.15,-3.1479,-3.1406,-3.1368,-3.1368,-3.1346,-3.1308,-3.1308,-3.1368,-3.1329,-3.1308,-3.1308,-3.1308,-3.1308,-3.1308,-3.1213,-3.1117,-3.1095,-3.1072,-3.0948,-3.0622,-2.9866,-2.9143,-2.8803,-2.7796,-2.6991,-2.6956,-2.6686,-2.6485,-2.6485,-2.6587,-2.6541,-2.6259,-2.5956,-2.5624,-2.534,-2.5321,-2.5275,-2.5144,-2.4768,-2.4486,-2.443,-2.4142,-2.3906,-2.3666,-2.3623,-2.3508,-2.3319,-2.3319,-2.3319,-2.3319,-2.3628,-2.3789,-2.3803,-2.4736,-2.5301,-2.0642,-2.088,-2.1396,-2.1808,-2.1675,-2.1825,0.0,0.0,-2.3363,-2.3892,-2.4116,-2.4173,-2.4097,-2.4152,-2.4447,0.0,0.0,0.0,0.0,0.0,0.0,0.0,0.0,0.0,0.0,0.0,0.0,-2.8138,-2.7505,-2.7059,-2.6859,-2.7378,-2.7972,-2.8563,-3.0398,-3.1339,-3.127,-3.3099,-3.3972,-3.385,-3.3486,-3.3196,-3.2952,-3.2537,-3.2232,-3.2037,-3.1965,-3.1893,0.0,-3.1765,-3.1691,-3.1559,-3.1559,-3.1521,-3.1428,-3.1185,-3.11,-3.1062,-3.0968,-3.0798,-3.0696,-3.1077,-3.1055,-3.0903,-3.1128,-3.1213,-3.119,-3.119,-3.119,-3.1151,-3.1112,-3.1032,-3.0975,-3.0975,-3.0935,-3.0912,-3.0912,-2.9923,-2.8996,-2.8958,-2.7771,-2.6733,-2.6697,-2.6478,-2.6412,-2.6576,-2.6564,-2.655,-2.6518,-2.6062,-2.5663,-2.5433,-2.5219,-2.488,-2.4502,-2.409,-2.3809,-2.3724,-2.3407,-2.3319,-2.351,-2.3289,-2.3275,-2.3466,-2.348,-2.348,-2.348,-2.4063,-2.4291,-2.4243,-2.5284,-2.5792,-2.0538,-2.0405,-2.0625,-2.1475,-2.1943,-2.2464,0.0,-2.3901,-2.408,-2.442,-2.4337,-2.4211,-2.4283,-2.4248,-2.4447,0.0,0.0,0.0,0.0,0.0,0.0,0.0,0.0,0.0,0.0,0.0,0.0,-2.8049,-2.7994,0.0,-2.6759,-2.6703,-2.6782,-2.6916,-2.9332,-3.0572,-3.0506,-3.2895,-3.3902,-3.3514,-3.3087,-3.2713,-3.2385,-3.1984,-3.1746,-3.1617,-3.1617,-3.1559,0.0,-3.1517,-3.1517,-3.1517,-3.1517,-3.1406,-3.121,-3.0479,-3.0166,-3.0125,-3.0125,-2.9634,-2.9282,-3.0717,-3.0717,-3.0205,-3.0796,-3.1112,-3.119,-3.119,-3.1095,-3.0975,-3.0912,-3.0912,-3.0912,-3.0912,-3.0912,-3.0912,-3.0912,-3.0252,-2.9677,-2.9599,-2.8394,-2.7321,-2.7151,-2.6504,-2.6221,-2.6798,-2.6509,-2.6322,-2.6561,-2.6122,-2.5633,-2.5236,-2.5173,-2.4862,-2.4,-2.3566,-2.3319,-2.3319,-2.3157,-2.3419,-2.4048,-2.3327,-2.3238,-2.3876,-2.3876,-2.3876,-2.3891,-2.4559,-2.4814,-2.4638,-2.5315,-2.5845,-2.119,-2.1196,-2.1322,-2.1687,-2.168,-2.199,-2.3508,-2.375,-2.3817,-2.4393,-2.4493,-2.4444,-2.4318,-2.4248,-2.4447,-2.5274,0.0,0.0,0.0,0.0,0.0,0.0,0.0,0.0,0.0,0.0,-2.9042,-2.8846,-2.8267,-2.7843,-2.7588,-2.7015,-2.672,-2.676,-2.8587,-2.9711,-2.994,-3.1808,-3.2827,-3.3014,-3.2601,-3.2369,-3.2249,-3.1819,-3.1576,-3.1538,-3.1538,-3.15,-3.1517,-3.1517,-3.1462,-3.1351,-3.1351,-3.1023,-3.0451,-3.0213,-2.9807,-2.9414,-2.9939,-2.9901,-2.9796,-3.0752,-3.0864,-3.069,-3.0868,-3.0975,-3.1055,-3.0992,-3.0952,-3.0912,-3.0912,-3.0831,-3.0773,-3.0773,-3.0692,-3.0609,-3.0609,-3.0004,-2.941,-2.941,-2.8537,-2.7783,-2.7722,-2.7447,-2.7192,-2.713,-2.7036,-2.69,-2.6625,-2.6132,-2.5722,-2.5517,-2.5011,-2.466,-2.4678,-2.4065,-2.3679,-2.3572,-2.3525,-2.358,-2.3829,-2.3966,-2.4182,-2.4384,-2.4287,-2.4238,-2.4238,-2.4898,-2.5377,-2.5635,-2.5834,-2.598,0.0,-2.1591,-2.2106,-2.2293,-2.2299,-2.2455,-2.3359,-2.3535,-2.3549,-2.369,-2.3994,-2.4192,-2.4025,-2.4169,-2.4469,-2.491,0.0,0.0,0.0,0.0,0.0,0.0,0.0,0.0,0.0,0.0,-2.9085,-2.9112,-2.8607,-2.8202,-2.7929,-2.7414,-2.699,-2.6675,-2.8264,-2.9342,-2.9735,-3.1338,-3.2301,-3.2619,-3.2369,-3.2144,-3.1966,-3.1671,-3.15,-3.1406,-3.1406,-3.1423,0.0,-3.1402,-3.1346,-3.1274,-3.1274,-3.0942,-3.0446,-2.985,-2.9475,-2.9377,-2.9505,-2.9517,-2.9525,-3.0281,-3.0308,-2.9995,-2.9995,-3.0459,-3.0935,-3.0871,-3.0814,-3.0814,-3.0773,-3.0651,-3.0568,-3.0568,-3.0485,-3.0401,-3.0401,-2.9971,-2.9575,-2.9391,-2.8688,-2.8045,-2.7821,-2.7444,-2.7137,-2.7114,-2.698,-2.6844,-2.6788,-2.633,-2.5949,-2.5807,-2.5331,-2.514,-2.5307,-2.4552,-2.4048,-2.3917,-2.3722,-2.3808,-2.4247,-2.4224,-2.4396,-2.4833,-2.4733,-2.4682,-2.4566,-2.5218,-2.5675,-2.5948,-2.5907,-2.5798,0.0,-2.1559,-2.2753,-2.3047,-2.3404,-2.3517,-2.3033,-2.3185,0.0,-2.2558,-2.2987,-2.352,-2.3597,-2.4042,-2.442,-2.4468,0.0,0.0,0.0,0.0,0.0,0.0,0.0,0.0,0.0,-2.9067,-2.8994,-2.8994,-2.8994,-2.8686,-2.7934,-2.7879,-2.753,-2.6775,-2.8298,-2.9342,-2.9735,-3.1311,-3.214,-3.2249,-3.2249,-3.1985,-3.1493,-3.1511,-3.1346,0.0,-3.1193,-3.1167,-3.1123,-3.1173,-3.119,-3.119,-3.119,-3.1157,-3.0954,-2.94,-2.9244,-2.9681,-2.895,-2.8661,-2.8741,-2.9443,-2.917,-2.8472,-2.8472,-2.9571,-3.0747,-3.0558,-3.0575,-3.0567,-3.0377,-3.0327,-3.0293,-3.0293,-3.0241,-3.0189,-3.0189,-3.0146,-2.9957,-2.9467,-2.879,-2.8107,-2.755,-2.6765,-2.6382,-2.6898,-2.646,-2.63,-2.6931,-2.6578,-2.6233,-2.6056,-2.6056,-2.6002,-2.5839,-2.4991,-2.4347,-2.4225,-2.3808,-2.4056,-2.5147,-2.4198,-2.4156,-2.518,-2.5208,-2.5075,-2.4889,-2.5382,-2.5674,-2.5674,-2.5536,-2.5439,-2.0127,0.0,-2.1445,-2.1467,-2.183,-2.2172,0.0,-2.2412,-2.2714,0.0,0.0,0.0,0.0,0.0,0.0,0.0,0.0,0.0,0.0,0.0,0.0,0.0,0.0,0.0,0.0,-2.9017,-2.8994,-2.8994,-2.8994,-2.892,-2.8741,-2.8723,-2.8539,-2.8131,-2.8543,-2.8913,-2.9326,-3.0349,-3.119,-3.1929,-3.1746,-3.1342,-3.0666,-3.0534,-3.0116,-2.9553,-3.0036,-3.0289,-3.0412,-3.0875,-3.1112,-3.119,-3.1112,-3.0701,-3.0162,-2.9693,-2.9231,-2.8879,-2.8728,-2.8641,-2.8543,-2.8688,-2.8528,-2.8262,-2.8262,-2.8969,-2.9606,-2.8963,-2.9211,-2.9485,-2.882,-2.9042,-2.9395,-2.9328,-2.9711,-3.0017,-2.9897,-2.9633,-2.9303,-2.9212,-2.8623,-2.8122,-2.7979,-2.7616,-2.7229,-2.6929,-2.6704,-2.6466,-2.6229,-2.5988,-2.5839,-2.5784,-2.5564,-2.5397,-2.5397,-2.4896,-2.4609,-2.4556,-2.4483,-2.4525,-2.4819,-2.5029,-2.5252,-2.5355,-2.5163,-2.5011,-2.4955,-2.5092,-2.5174,-2.5174,-2.5018,-2.4962,-1.9879,-2.0771,-2.1685,-2.1747,-2.2044,-2.2256,-2.2033,0.0,0.0,0.0,0.0,0.0,0.0,0.0,0.0,0.0,0.0,0.0,0.0,0.0,0.0,0.0,0.0,0.0,0.0,0.0,-2.904,-2.9017,-2.8994,-2.8994,-2.8994,-2.8994,-2.8881,-2.8601,-2.8533,-2.8658,-2.8976,-2.9412,-2.9974,-3.0657,-3.0529,-3.0233,-2.9751,-2.9658,-2.9327,-2.8915,-2.9563,-2.99,-3.0005,-3.069,-3.0992,-3.1072,-3.0992,-3.07,-3.0297,-2.9828,-2.9621,-2.9499,-2.9165,-2.8932,-2.887,-2.8735,-2.8448,-2.8089,-2.805,-2.8558,-2.9026,-2.8359,-2.8631,-2.8968,-2.8199,-2.8706,-2.9264,-2.8897,-2.9324,-2.9665,-2.9348,-2.9104,-2.8779,-2.8304,-2.7898,-2.7535,-2.7246,-2.699,-2.673,-2.639,-2.6244,-2.6042,-2.5743,-2.5578,-2.5453,-2.5397,-2.5174,-2.5005,-2.4948,-2.4749,-2.4668,-2.4723,-2.4518,-2.4544,-2.4765,-2.4888,-2.4998,-2.5133,-2.4935,-2.4835,-2.4835,-2.4835,-2.4835,-2.4778,-2.4721,-2.4734,-1.9876,-2.1134,-2.2402,-2.2319,-2.2482,-2.2578,-2.2135,0.0,0.0,0.0,0.0,0.0,0.0,0.0,0.0,0.0,0.0,0.0,0.0,0.0,0.0,0.0,0.0,0.0,-2.9252,-2.9112,-2.9062,-2.9017,-2.8994,-2.8994,-2.8994,-2.8929,-2.8791,-2.8525,-2.8342,-2.8294,-2.8432,-2.8586,-2.8895,-2.9279,-2.9279,-2.9104,-2.8805,-2.8805,-2.8629,-2.8377,0.0,0.0,-2.9532,-3.0352,-3.0704,-3.0704,-3.0821,-3.0871,-3.0747,-3.0032,-3.0118,-3.0551,-2.9682,-2.9246,-2.9058,-2.8944,-2.8478,-2.7891,-2.781,-2.8192,-2.8565,-2.8119,-2.8388,-2.8705,-2.7965,-2.8608,-2.9271,-2.8586,-2.8869,-2.9167,-2.8638,-2.8432,-2.8143,-2.721,-2.6967,-2.6721,-2.6165,-2.5948,-2.5784,-2.5619,-2.5481,-2.5383,-2.5383,-2.5188,-2.5061,-2.4948,-2.4835,-2.4664,-2.4549,-2.4563,-2.4563,-2.4677,-2.4377,-2.4378,-2.4765,-2.435,-2.4323,-2.4708,-2.4607,-2.4505,-2.4505,-2.4505,-2.4563,-2.4549,-2.4563,-2.4492,-2.0577,-2.138,-2.1739,-2.0348,-2.061,-2.126,0.0,0.0,0.0,0.0,0.0,0.0,0.0,0.0,0.0,0.0,0.0,0.0,0.0,0.0,0.0,0.0,0.0,-2.9259,-2.913,-2.9044,-2.9017,-2.8994,-2.8994,-2.8994,-2.8994,-2.8682,-2.8386,-2.8093,-2.7736,-2.7417,-2.7178,-2.8137,-2.8797,-2.9121,-2.9066,-2.8636,-2.7904,-2.7832,-2.7477,-2.687,0.0,-2.7818,-2.8045,-2.9271,-2.9799,-2.9849,-3.0499,-3.0651,-3.0551,-3.0394,-3.0385,-3.0302,-2.9436,-2.8657,-2.8013,-2.8013,-2.7826,-2.7582,-2.7541,-2.7596,-2.7576,-2.7396,-2.7945,-2.8458,-2.754,-2.7869,-2.8278,-2.7627,-2.8015,-2.8352,-2.7815,-2.7348,-2.699,-2.6782,-2.6283,-2.5879,-2.5784,-2.5647,-2.5481,-2.5174,-2.5061,-2.5005,-2.4791,-2.4734,-2.4677,-2.4677,-2.4478,-2.435,-2.435,-2.4216,-2.4171,-2.4229,-2.4425,-2.4584,-2.4607,-2.4399,-2.4315,-2.435,-2.4274,-2.4171,-2.4171,-2.4171,-2.4216,-2.435,-2.4216,-2.3852,-2.0477,-2.1034,-2.1247,-2.0111,-2.0974,-2.2117,0.0,0.0,0.0,0.0,0.0,0.0,0.0,0.0,0.0,0.0,0.0,0.0,0.0,0.0,0.0,0.0,0.0,-2.9134,-2.9089,-2.9067,-2.9021,-2.8952,-2.8952,-2.8839,-2.8615,-2.8446,-2.8139,-2.7678,-2.7426,-2.7132,-2.6792,-2.7232,-2.7572,-2.7757,-2.7668,-2.7412,-2.6937,-2.6918,-2.6681,-2.636,0.0,-2.7263,-2.742,-2.8384,-2.9006,-2.9369,-2.9716,-3.0054,-3.0359,-3.0359,-3.0274,-3.0097,-2.9668,-2.9199,-2.8812,-2.8742,-2.8613,-2.8467,-2.8395,-2.8291,-2.8218,-2.8099,-2.8186,-2.8096,-2.7225,-2.7543,-2.8,-2.7349,-2.7476,-2.76,-2.7056,-2.6692,-2.639,-2.6096,-2.5715,-2.5397,-2.5342,-2.5188,-2.5018,-2.4848,-2.4778,-2.4721,-2.462,-2.4492,-2.4421,-2.4421,-2.4319,-2.4203,-2.4203,-2.4171,-2.4112,-2.4112,-2.4229,-2.4287,-2.4229,-2.4216,-2.4086,-2.391,-2.3995,-2.3936,-2.3819,-2.3484,-2.3339,-2.3386,-2.298,-2.2604,-2.0433,-2.0709,-2.0759,0.0,0.0,0.0,0.0,0.0,0.0,0.0,0.0,0.0,0.0,0.0,0.0,0.0,0.0,0.0,0.0,0.0,0.0,0.0,-2.9156,-2.9112,-2.9044,-2.9044,-2.8975,-2.8881,-2.8881,-2.8749,-2.842,-2.8246,-2.7929,-2.747,-2.7178,-2.6906,-2.664,-2.6537,-2.6468,-2.6537,-2.6468,-2.6399,-2.6277,-2.6277,-2.6241,-2.6201,-2.6619,-2.6813,-2.6841,-2.7502,-2.8183,-2.8739,-2.896,-2.9466,-3.0087,-3.0103,-3.0017,-2.9886,-2.9782,-2.9665,-2.9547,-2.9428,-2.9321,-2.9167,-2.9045,-2.8936,-2.8842,-2.8779,-2.8436,-2.7919,-2.7221,-2.7487,-2.7728,-2.7082,-2.6991,-2.6886,-2.6336,-2.6082,-2.5825,-2.5425,-2.5188,-2.5005,-2.4892,-2.4835,-2.4721,-2.4549,-2.4549,-2.4492,-2.4505,-2.4376,-2.4247,-2.4189,-2.4099,-2.4054,-2.3995,-2.3995,-2.3995,-2.3995,-2.4054,-2.4008,-2.3832,-2.3936,-2.3865,-2.3628,-2.376,-2.37,-2.3365,-2.2847,-2.2531,-2.2347,-2.1865,-2.1491,-2.0907,-2.0709,-2.0221,-2.0795,0.0,0.0,0.0,0.0,0.0,0.0,0.0,0.0,0.0,0.0,0.0,0.0,0.0,0.0,0.0,0.0,0.0,-2.8924,-2.8998,-2.8929,-2.891,-2.8858,-2.881,-2.881,-2.881,-2.8785,-2.8761,-2.8057,-2.7613,-2.7584,-2.6906,-2.6554,-2.652,-2.6382,-2.633,-2.633,-2.633,-2.6277,-2.6203,-2.6203,-2.6151,-2.6026,-2.6076,-2.5967,-2.5868,-2.6602,-2.7178,-2.7685,-2.853,-2.9237,-2.981,-2.977,-2.9742,-2.9697,-2.9563,-2.9366,-2.9121,-2.9121,-2.9014,-2.8842,-2.8842,-2.8794,-2.8794,-2.8636,-2.8255,-2.792,-2.7826,-2.7575,-2.7181,-2.6529,-2.624,-2.6014,-2.5439,-2.5118,-2.4892,-2.4848,-2.4734,-2.462,-2.462,-2.462,-2.4549,-2.435,-2.4292,-2.4305,-2.4171,-2.4112,-2.4054,-2.3949,-2.3891,-2.3832,-2.3628,-2.3628,-2.3628,-2.3628,-2.3819,-2.3832,-2.3628,-2.3628,-2.3628,-2.3628,-2.3628,-2.3305,-2.2665,-2.2592,-2.2286,-2.1678,-2.1616,-2.1164,-2.0469,-2.0419,-2.0126,-2.0373,0.0,0.0,0.0,0.0,0.0,0.0,0.0,0.0,0.0,0.0,0.0,0.0,0.0,0.0,0.0,0.0,-2.6588,-2.8649,-2.8443,-2.8286,-2.8779,-2.881,-2.8779,-2.8687,-2.8662,-2.8543,-2.8273,-2.7897,-2.7577,-2.7241,-2.6825,-2.6555,-2.6382,-2.6189,-2.6118,-2.6118,-2.6118,-2.6099,-2.6063,-2.6043,-2.597,-2.5917,-2.5824,-2.5712,-2.5637,-2.5799,-2.6197,-2.6871,-2.8126,-2.901,-2.9621,-2.9592,-2.9457,-2.9321,-2.9275,-2.9091,-2.892,-2.892,-2.8826,-2.8684,-2.8684,-2.8636,-2.8493,-2.8186,-2.763,-2.7246,-2.755,-2.7093,-2.6481,-2.6054,-2.5632,-2.5216,-2.5005,-2.4778,-2.4677,-2.4677,-2.4536,-2.4421,-2.4421,-2.4319,-2.4229,-2.4099,-2.4041,-2.3982,-2.3806,-2.3806,-2.3747,-2.37,-2.3688,-2.3688,-2.3628,-2.3628,-2.3569,-2.345,-2.3641,-2.3628,-2.345,-2.3569,-2.3509,-2.3318,-2.2992,-2.2677,-2.2286,-2.1479,-2.0921,-2.0666,-2.0215,-1.9901,-1.9823,-1.9856,-1.9797,0.0,0.0,0.0,0.0,0.0,0.0,0.0,0.0,0.0,0.0,0.0,0.0,0.0,0.0,0.0,0.0,0.0,-2.5932,-2.7778,-2.7718,-2.7713,-2.8233,-2.8524,-2.8637,-2.8536,-2.851,-2.8362,-2.8055,-2.7771,-2.743,-2.7053,-2.6708,-2.6435,-2.6225,-2.6046,-2.5974,-2.5901,-2.5864,-2.5864,-2.5901,-2.5864,-2.5807,-2.5733,-2.56,-2.5486,-2.5448,-2.5278,-2.5743,-2.6675,-2.8092,-2.8907,-2.9321,-2.9291,-2.9153,-2.9014,-2.9014,-2.8873,-2.8747,-2.8747,-2.8636,-2.8541,-2.8541,-2.8332,-2.8024,-2.771,-2.7019,-2.6414,-2.6768,-2.6322,-2.5687,-2.5522,-2.509,-2.4708,-2.4664,-2.4563,-2.4447,-2.4447,-2.4332,-2.4189,-2.4189,-2.4041,-2.3936,-2.3819,-2.3819,-2.376,-2.3628,-2.3628,-2.3633,-2.3752,-2.3552,-2.3513,-2.3704,-2.3552,-2.339,-2.333,-2.339,-2.339,-2.333,-2.339,-2.3318,-2.3078,-2.2555,-2.2113,-2.1803,-2.0666,-1.9977,-1.9781,-1.933,-1.9214,-1.9098,-1.9006,0.0,0.0,0.0,0.0,0.0,0.0,0.0,0.0,0.0,0.0,0.0,0.0,0.0,0.0,0.0,0.0,0.0,-2.5117,-2.5365,-2.6113,-2.6844,-2.7241,-2.7191,-2.7921,-2.838,-2.838,-2.8309,-2.8282,-2.8282,-2.7612,-2.7213,-2.7164,-2.6555,-2.6132,-2.601,-2.599,-2.5901,-2.5701,-2.5637,-2.5621,-2.5701,-2.5701,-2.5589,-2.5378,-2.5378,-2.5301,-2.5091,-2.5091,-2.5869,-2.7225,-2.8416,-2.8889,-2.8858,-2.8826,-2.8794,-2.8794,-2.8794,-2.8684,-2.8573,-2.8589,-2.8493,-2.8396,-2.8411,-2.7845,-2.7297,-2.7297,-2.6453,-2.5563,-2.5453,-2.5203,-2.4948,-2.4835,-2.465,-2.4452,-2.435,-2.4203,-2.4112,-2.4112,-2.4008,-2.3891,-2.3891,-2.376,-2.3628,-2.3628,-2.3628,-2.3628,-2.3628,-2.3628,-2.3726,-2.4164,-2.3538,-2.3364,-2.3941,-2.3464,-2.3078,-2.3078,-2.3078,-2.3065,-2.3078,-2.3065,-2.3078,-2.3078,-2.2433,-2.1741,-2.106,-2.042,-1.9781,-1.9075,-1.9075,-1.9391,-1.8952,0.0,0.0,0.0,0.0,0.0,0.0,0.0,0.0,0.0,0.0,0.0,0.0,0.0,0.0,0.0,0.0,0.0,-2.5038,-2.4563,-2.4643,-2.5913,-2.5745,-2.5757,-2.624,-2.6509,-2.6841,-2.7299,-2.7326,-2.7228,-2.7053,-2.7273,-2.6971,-2.5961,-2.6184,-2.6189,-2.5917,-2.5787,-2.5675,-2.5637,-2.5486,-2.5432,-2.5492,-2.5416,-2.5394,-2.5317,-2.5224,-2.5146,-2.5107,-2.4966,-2.5422,-2.6262,-2.7042,-2.7639,-2.8123,-2.8607,-2.8747,-2.8684,-2.8684,-2.8396,-2.8088,-2.8235,-2.7795,-2.7225,-2.7444,-2.7056,-2.6453,-2.6187,-2.5714,-2.5231,-2.4851,-2.4593,-2.439,-2.4421,-2.4319,-2.4216,-2.4157,-2.4112,-2.4054,-2.4008,-2.3949,-2.3832,-2.3688,-2.3628,-2.3569,-2.345,-2.3463,-2.339,-2.3258,-2.3258,-2.3321,-2.3424,-2.3238,-2.314,-2.3376,-2.3165,-2.2884,-2.2433,-2.2433,-2.2616,-2.3065,-2.2628,-2.2433,-2.2433,-2.129,-2.0602,-2.042,-1.9715,-1.9264,-1.9075,-1.9474,-1.9702,-1.8511,0.0,0.0,0.0,0.0,0.0,0.0,0.0,0.0,0.0,0.0,0.0,0.0,0.0,0.0,0.0,0.0,0.0,-2.4516,-2.4035,-2.3997,-2.4849,-2.4766,-2.4824,-2.5262,-2.56,-2.5974,-2.641,-2.6304,-2.6124,-2.5946,-2.6135,-2.5968,-2.533,-2.5578,-2.573,-2.5787,-2.56,-2.5486,-2.5394,-2.5278,-2.524,-2.524,-2.524,-2.5201,-2.5162,-2.5045,-2.4989,-2.4982,-2.5105,-2.5425,-2.5806,-2.6408,-2.7065,-2.7689,-2.8078,-2.8261,-2.8268,-2.8155,-2.7795,-2.7342,-2.7378,-2.699,-2.652,-2.6678,-2.6308,-2.5769,-2.5508,-2.5133,-2.4694,-2.4421,-2.4216,-2.4112,-2.4203,-2.4157,-2.4112,-2.4112,-2.4067,-2.4008,-2.3891,-2.3772,-2.3641,-2.3509,-2.3437,-2.3378,-2.3271,-2.3271,-2.3271,-2.3138,-2.3339,-2.3565,-2.3716,-2.348,-2.3429,-2.3651,-2.3201,-2.2591,-2.1997,-2.2174,-2.2325,-2.2587,-2.2047,-2.1678,-2.1678,-2.0803,-2.0391,-2.0391,-1.9849,-1.9603,-1.9613,-1.9893,-2.012,0.0,0.0,0.0,0.0,0.0,0.0,0.0,0.0,0.0,0.0,0.0,0.0,0.0,0.0,0.0,0.0,0.0,-2.3804,-2.3783,-2.3607,-2.3471,-2.336,-2.3901,-2.4275,-2.4275,-2.4927,-2.5394,-2.5517,-2.5224,-2.5042,-2.493,-2.4516,-2.4477,-2.493,-2.4704,-2.4847,-2.5465,-2.5335,-2.5198,-2.5091,-2.5091,-2.5068,-2.5005,-2.5068,-2.5068,-2.4966,-2.4862,-2.4782,-2.4829,-2.5358,-2.5581,-2.5644,-2.6168,-2.6791,-2.7334,-2.7287,-2.743,-2.76,-2.7297,-2.6938,-2.6573,-2.6293,-2.6119,-2.6079,-2.6079,-2.5659,-2.5077,-2.5077,-2.4593,-2.4112,-2.4112,-2.4112,-2.4112,-2.4112,-2.4112,-2.4054,-2.4054,-2.3949,-2.3891,-2.3832,-2.3582,-2.3403,-2.3403,-2.321,-2.3078,-2.3078,-2.3078,-2.3078,-2.3078,-2.364,-2.4192,-2.4553,-2.4018,-2.3759,-2.4261,-2.3234,-2.2286,-2.1786,-2.2173,-2.2207,-2.1642,-2.132,-2.1133,-2.1133,-2.0864,-2.0758,-2.0758,-2.0495,-2.0349,-2.0349,-2.0401,-2.0648,0.0,0.0,0.0,0.0,0.0,0.0,0.0,0.0,0.0,0.0,0.0,0.0,0.0,0.0,0.0,0.0,0.0,-2.3739,-2.3539,-2.3453,-2.3336,-2.3102,-2.321,-2.3315,-2.3315,-2.3473,-2.3754,-2.4197,-2.4133,-2.391,-2.3536,-2.3859,-2.3752,-2.3014,-2.3381,-2.389,-2.4489,-2.4409,-2.4621,-2.5091,-2.5045,-2.5005,-2.5005,-2.5005,-2.4966,-2.4822,-2.4686,-2.463,-2.4645,-2.4735,-2.4756,-2.4818,-2.5358,-2.5479,-2.547,-2.6264,-2.6436,-2.6279,-2.6385,-2.6187,-2.5877,-2.6026,-2.5536,-2.4894,-2.5203,-2.4821,-2.4332,-2.4332,-2.4229,-2.4112,-2.4112,-2.4112,-2.4112,-2.4112,-2.4008,-2.3949,-2.3949,-2.3819,-2.3628,-2.3522,-2.3463,-2.333,-2.3198,-2.3138,-2.3078,-2.3078,-2.3078,-2.3078,-2.3078,-2.364,-2.3778,-2.328,-2.3448,-2.3404,-2.297,-2.2673,-2.223,-2.1614,-2.1633,-2.1355,-2.0488,-2.109,-2.1311,-2.1174,-2.0716,-2.0417,-2.0276,-2.0165,-2.0145,-2.0155,-2.0366,-2.0515,0.0,0.0,0.0,0.0,0.0,0.0,0.0,0.0,0.0,0.0,0.0,0.0,0.0,0.0,0.0,0.0,0.0,-2.3119,-2.3371,-2.3289,-2.3126,-2.2952,-2.2944,-2.2944,-2.2919,-2.2842,-2.292,-2.3219,-2.2999,-2.2714,-2.2405,-2.2552,-2.2557,-2.2245,-2.2463,-2.2904,-2.357,-2.347,-2.3743,-2.446,-2.4382,-2.4477,-2.4806,-2.4886,-2.4806,-2.4686,-2.4605,-2.4564,-2.4523,-2.4441,-2.4374,-2.4364,-2.4389,-2.4431,-2.4566,-2.4861,-2.5098,-2.5317,-2.5328,-2.5204,-2.5063,-2.5063,-2.4751,-2.4319,-2.4505,-2.4332,-2.4112,-2.4112,-2.4112,-2.4112,-2.4112,-2.4067,-2.4008,-2.4008,-2.3949,-2.3891,-2.3891,-2.37,-2.345,-2.3403,-2.333,-2.321,-2.3138,-2.3078,-2.3078,-2.3078,-2.3078,-2.3078,-2.3078,-2.3529,-2.364,-2.3227,-2.3245,-2.314,-2.2786,-2.2358,-2.1912,-2.1206,-2.1406,-2.1136,-2.0335,-2.0969,-2.1105,-2.0512,-2.0504,-2.0398,-2.0252,-2.0548,-2.065,-2.066,-2.0752,-2.0863,0.0,0.0,0.0,0.0,0.0,0.0,0.0,0.0,0.0,0.0,0.0,0.0,0.0,0.0,0.0,0.0,0.0,-2.246,-2.3206,-2.3102,-2.2952,-2.285,-2.2868,-2.2868,-2.2816,-2.2659,-2.2525,-2.2497,-2.2015,-2.1661,-2.1507,-2.1277,-2.1375,-2.1851,-2.1682,-2.1925,-2.2654,-2.2525,-2.2795,-2.3575,-2.3592,-2.3935,-2.4605,-2.4701,-2.4701,-2.4589,-2.4498,-2.4457,-2.4457,-2.4219,-2.4094,-2.4024,-2.3465,-2.3466,-2.3751,-2.3445,-2.3716,-2.4263,-2.404,-2.4092,-2.4262,-2.4013,-2.4034,-2.4112,-2.4112,-2.4112,-2.4112,-2.4054,-2.4054,-2.4067,-2.3995,-2.3936,-2.3832,-2.3832,-2.3832,-2.3832,-2.3832,-2.3582,-2.333,-2.333,-2.3198,-2.3078,-2.3078,-2.3078,-2.3078,-2.3078,-2.3078,-2.3115,-2.3069,-2.3369,-2.3525,-2.3341,-2.3176,-2.2927,-2.2777,-2.2101,-2.149,-2.0897,-2.1222,-2.1187,-2.0587,-2.0938,-2.0787,-1.9962,-2.0386,-2.0577,-2.0577,-2.0958,-2.1128,-2.1128,-2.1128,-2.1128,0.0,0.0,0.0,0.0,0.0,0.0,0.0,0.0,0.0,0.0,0.0,0.0,0.0,0.0,0.0,0.0,0.0,0.0,-2.2898,-2.2944,-2.2868,-2.2738,-2.2738,-2.2738,-2.279,-2.2473,-2.2209,-2.2084,-2.1675,-2.1371,-2.1199,-2.0974,-2.0907,-2.097,-2.0803,-2.103,-2.1768,-2.1733,-2.2077,-2.278,-2.3319,-2.3935,-2.4498,-2.4539,-2.4539,-2.4498,-2.4359,-2.4317,-2.4261,-2.3724,-2.3493,-2.3465,-2.2875,-2.2477,-2.2306,-2.247,-2.2423,-2.2309,-2.2564,-2.2955,-2.3385,-2.3341,-2.3694,-2.4112,-2.4112,-2.4112,-2.4054,-2.3949,-2.3949,-2.3891,-2.3688,-2.3628,-2.3628,-2.3628,-2.3569,-2.3463,-2.3463,-2.3271,-2.3138,-2.3138,-2.3138,-2.3078,-2.3078,-2.3078,-2.3078,-2.3078,-2.3078,-2.3058,-2.2877,-2.3263,-2.3264,-2.2391,-2.2736,-2.2628,-2.1807,-2.1578,-2.1405,-2.1191,-2.1175,-2.1108,-2.0894,-2.0876,-2.0769,-2.0477,-2.0931,-2.1048,-2.0817,-2.0876,-2.0906,-2.0906,-2.0731,-2.0644,0.0,0.0,0.0,0.0,0.0,0.0,0.0,0.0,0.0,0.0,0.0,0.0,0.0,0.0,0.0,0.0,0.0,0.0,-2.2143,-2.2218,-2.2297,-2.2607,-2.2685,-2.2615,-2.2364,-2.2079,-2.182,-2.1615,-2.1261,-2.1023,-2.0957,-2.081,-2.0711,-2.0628,-2.0509,-2.0581,-2.0926,-2.0891,-2.1383,-2.2452,-2.3173,-2.3832,-2.44,-2.4333,-2.4374,-2.4359,-2.3952,-2.3809,-2.3767,-2.3128,-2.286,-2.2725,-2.2189,-2.1874,-2.1643,-2.1498,-2.1568,-2.1694,-2.1839,-2.2479,-2.321,-2.321,-2.3629,-2.4112,-2.4008,-2.4008,-2.3949,-2.376,-2.376,-2.37,-2.3628,-2.3509,-2.3509,-2.3509,-2.339,-2.321,-2.321,-2.3138,-2.3078,-2.3078,-2.3078,-2.3078,-2.3078,-2.3078,-2.3178,-2.3565,-2.322,-2.3016,-2.3215,-2.2923,-2.2573,-2.2154,-2.2115,-2.1959,-2.1502,-2.1436,-2.1282,-2.1051,-2.1061,-2.0974,-2.0731,-2.0731,-2.0654,-2.0566,-2.0799,-2.0809,-2.0731,-2.0731,-2.0731,-2.0731,-2.0644,-2.0566,0.0,0.0,0.0,0.0,0.0,0.0,0.0,0.0,0.0,0.0,0.0,0.0,0.0,0.0,0.0,0.0,0.0,0.0,0.0,-2.1364,-2.1515,-2.2095,-2.2207,-2.215,-2.1895,-2.1672,-2.143,-2.123,-2.0909,-2.0728,-2.0728,-2.0644,-2.0592,-2.0475,-2.0407,-2.0388,-2.0388,-2.0304,-2.0905,-2.204,-2.2794,-2.3394,-2.3834,-2.3891,-2.3925,-2.3809,-2.3493,-2.3275,-2.3143,-2.2512,-2.2189,-2.2049,-2.1554,-2.1326,-2.118,-2.0848,-2.0923,-2.1302,-2.1302,-2.189,-2.2763,-2.2906,-2.3293,-2.3813,-2.3839,-2.3819,-2.3772,-2.3569,-2.3569,-2.3509,-2.3509,-2.339,-2.333,-2.333,-2.321,-2.3078,-2.3078,-2.3078,-2.3078,-2.3078,-2.3078,-2.3078,-2.3078,-2.3078,-2.3265,-2.3642,-2.3174,-2.2876,-2.3127,-2.2514,-2.2013,-2.1849,-2.159,-2.1425,-2.1359,-2.1205,-2.1051,-2.0829,-2.0819,-2.0741,-2.0644,-2.0566,-2.0566,-2.0566,-2.0566,-2.0566,-2.0566,-2.0566,-2.0566,-2.0566,-2.0566,-2.0566,0.0,0.0,0.0,0.0,0.0,0.0,0.0,0.0,0.0,0.0,0.0,0.0,0.0,0.0,0.0,0.0,0.0,0.0,0.0,0.0,-2.0584,-2.0948,-2.1005,-2.1133,-2.1488,-2.1229,-2.1023,-2.1039,-2.0712,-2.0527,-2.0527,-2.0441,-2.0423,-2.0423,-2.0339,-2.0304,-2.0304,-2.0304,-2.0659,-2.1383,-2.1934,-2.2303,-2.2515,-2.3023,-2.2995,-2.2603,-2.3039,-2.295,-2.2512,-2.1874,-2.165,-2.1568,-2.0997,-2.0749,-2.0749,-2.0699,-2.0725,-2.0751,-2.0751,-2.1042,-2.1483,-2.1973,-2.2472,-2.2981,-2.3462,-2.3628,-2.3569,-2.3463,-2.3403,-2.3403,-2.3198,-2.3138,-2.3138,-2.3138,-2.3138,-2.3078,-2.3078,-2.3078,-2.3078,-2.3078,-2.3078,-2.3078,-2.3078,-2.3078,-2.307,-2.2898,-2.2843,-2.2546,-2.1951,-2.1876,-2.1639,-2.1278,-2.1195,-2.1128,-2.0984,-2.0906,-2.0819,-2.0644,-2.0644,-2.0644,-2.0566,-2.0566,-2.0566,-2.0566,-2.0566,-2.0566,-2.0566,-2.0566,-2.0566,-2.0566,-2.0566,-2.0566,0.0,0.0,0.0,0.0,0.0,0.0,0.0,0.0,0.0,0.0,0.0,0.0,0.0,0.0,0.0,0.0,0.0,0.0,0.0,0.0,0.0,-1.9882,-2.0322,-2.0528,-2.0428,-2.0671,-2.0811,-2.0628,-2.0494,-2.0441,-2.0441,-2.0407,-2.0388,-2.0339,-2.0304,-2.0304,-2.0304,-2.0304,-2.0436,-2.0783,-2.0971,-2.1372,-2.1888,-2.2062,-2.2036,-2.1921,-2.2002,-2.2002,-2.1874,-2.1277,-2.1033,-2.0997,-2.0799,-2.0699,-2.0699,-2.0699,-2.0699,-2.0712,-2.0612,-2.1121,-2.1831,-2.197,-2.2552,-2.3301,-2.3458,-2.345,-2.345,-2.3271,-2.321,-2.3198,-2.3138,-2.3078,-2.3078,-2.3078,-2.3427,-2.369,-2.369,-2.3389,-2.3178,-2.3615,-2.369,-2.369,-2.369,-2.344,-2.3316,-2.3645,-2.2743,-2.2002,-2.2178,-2.1763,-2.1394,-2.1195,-2.1061,-2.0984,-2.0906,-2.0819,-2.0654,-2.0566,-2.0566,-2.0566,-2.0566,-2.0566,-2.0566,-2.0566,-2.0566,-2.0566,-2.0566,-2.0566,-2.0566,-2.0566,-2.0566,-2.0566,-1.9551,0.0,0.0,0.0,0.0,0.0,0.0,0.0,0.0,0.0,0.0,0.0,0.0,0.0,0.0,0.0,0.0,0.0,0.0,0.0,0.0,-1.8746,-1.9192,-1.9404,-1.9295,-1.9908,-2.0266,-2.0048,-2.0249,0.0,-2.0388,-2.0388,-2.0354,-2.0304,-2.0304,-2.027,-2.022,-2.022,-2.0223,-2.0139,-2.0309,-2.0502,-2.0669,-2.1018,-2.1089,-2.0994,-2.1051,-2.118,-2.1277,-2.0799,-2.0612,-2.0612,-2.0612,-2.0599,-2.0549,-2.0599,-2.0612,-2.0498,-2.0448,-2.0978,-2.1693,-2.1805,-2.2439,-2.3196,-2.3267,-2.3271,-2.3271,-2.3138,-2.3078,-2.3078,-2.3078,-2.3078,-2.3128,-2.3376,-2.3715,-2.4029,-2.4137,-2.3903,-2.3816,-2.4205,-2.4065,-2.3862,-2.3786,-2.3329,-2.2981,-2.3282,-2.2287,-2.1597,-2.1866,-2.1415,-2.1051,-2.1051,-2.0896,-2.0819,-2.0819,-2.0654,-2.0566,-2.0566,-2.0566,-2.0566,-2.0566,-2.0566,-2.0566,-2.0566,-2.0566,-2.0566,-2.0566,-2.0566,-2.0566,-2.0566,-2.0566,-2.0566,0.0,0.0,0.0,0.0,0.0,0.0,0.0,0.0,0.0,0.0,0.0,0.0,0.0,0.0,0.0,0.0,0.0,0.0,0.0,0.0,0.0,0.0,-1.7578,-1.7733,-1.8146,-1.8902,-1.9352,-1.9287,-1.9937,-2.0373,-2.0304,-2.0304,-2.0304,-2.0304,-2.0304,-2.022,-2.0065,-2.0065,-1.9854,-1.9369,-1.9874,-1.9669,-1.8806,-1.9931,-2.0207,-1.9839,-2.0265,-2.0562,-2.0662,-2.0562,-2.0461,-2.0461,-2.0461,-2.0347,-2.0233,-2.0398,-2.0347,-2.0182,-2.0182,-2.0526,-2.1018,-2.1526,-2.1983,-2.2435,-2.2915,-2.3078,-2.3078,-2.3078,-2.3078,-2.3078,-2.3078,-2.3078,-2.3215,-2.3791,-2.3942,-2.4052,-2.4357,-2.4615,-2.4793,-2.4781,-2.4144,-2.3513,-2.3301,-2.2707,-2.2051,-2.1583,-2.1512,-2.1323,-2.0924,-2.0906,-2.0819,-2.0644,-2.0566,-2.0566,-2.0566,-2.0566,-2.0566,-2.0566,-2.0566,-2.0566,-2.0566,-2.0566,-2.0566,-2.0566,-2.0566,-2.0566,-2.0566,-2.0566,-2.0566,-2.0566,-2.0566,-2.0566,-1.9419,0.0,0.0,0.0,0.0,0.0,0.0,0.0,0.0,0.0,0.0,0.0,0.0,0.0,0.0,0.0,0.0,0.0,0.0,0.0,0.0,0.0,0.0,-1.7284,-1.7454,-1.813,-1.8762,0.0,-1.9505,-1.978,-2.012,-2.015,-2.015,-2.015,-2.015,-1.996,-1.9588,-1.9588,-1.9169,-1.8383,-1.8551,-1.8508,-1.8319,-1.891,-1.9394,-1.9707,-2.0102,-2.0283,-2.0334,-2.0296,-2.0283,-2.0283,-2.0283,-2.0233,-2.0233,-2.0233,-2.0233,-2.0182,-2.008,-2.0663,-2.15,-2.1542,-2.2191,-2.2937,-2.3088,-2.3078,-2.3078,-2.3078,-2.3078,-2.3078,-2.3078,-2.275,-2.2505,-2.2989,-2.3078,-2.3053,-2.3364,-2.3757,-2.3945,-2.3572,-2.3294,-2.3074,-2.2935,-2.2435,-2.1988,-2.1892,-2.1257,-2.0804,-2.0712,-2.0654,-2.0654,-2.0644,-2.0566,-2.0566,-2.0566,-2.0566,-2.0566,-2.0566,-2.0566,-2.0566,-2.0566,-2.0566,-2.0566,-2.0566,-2.0566,-2.0566,-2.0566,-2.0566,-2.0566,-2.0566,-2.0566,-2.0566,0.0,0.0,0.0,0.0,0.0,0.0,0.0,-2.0312,0.0,0.0,0.0,0.0,0.0,0.0,0.0,0.0,0.0,0.0,0.0,0.0,0.0,0.0,0.0,0.0,-1.6778,-1.7393,-1.7946,-1.8345,-1.8898,-1.9446,-2.0015,-2.0045,-2.0045,-2.0045,-2.0045,-1.9818,-1.9332,-1.9332,-1.8831,-1.7908,-1.7868,-1.7785,-1.7661,-1.8345,-1.8853,-1.9227,-1.985,-2.0131,-2.0131,-2.0067,-2.008,-2.0131,-2.0131,-2.008,-2.0016,-2.008,-2.008,-2.0054,-2.0243,-2.086,-2.163,-2.1813,-2.2422,-2.3078,-2.3078,-2.3078,-2.3078,-2.3078,-2.2884,-2.2689,-2.2689,-2.227,-2.1928,-2.2245,-2.2532,-2.2579,-2.2506,-2.2889,-2.3227,-2.3217,-2.2956,-2.2666,-2.2437,-2.1945,-2.1527,-2.1451,-2.0934,-2.0566,-2.0566,-2.0566,-2.0566,-2.0566,-2.0566,-2.0566,-2.0566,-2.0566,-2.0566,-2.0566,-2.0566,-2.0566,-2.0566,-2.0566,-2.0566,-2.0566,-2.0566,-2.0411,-2.0089,-2.0411,-2.0401,-2.0089,-2.0089,-1.9844,-1.9341,-1.9255,0.0,0.0,0.0,0.0,-2.0728,-2.0146,-1.9685,0.0,0.0,0.0,0.0,0.0,0.0,0.0,0.0,0.0,0.0,0.0,0.0,0.0,0.0,0.0,-1.6409,-1.6886,-1.7194,-1.7211,-1.8356,-1.9314,-1.9854,-1.996,-1.9955,-1.9919,-1.9919,-1.9639,-1.9058,-1.9058,-1.8588,-1.772,-1.7639,-1.7393,-1.7041,-1.8067,-1.8593,-1.861,-1.956,-1.999,-1.999,-1.9862,-1.9862,-1.999,-1.999,-1.9926,-1.9798,-1.9926,-1.9926,-1.9874,-2.0388,-2.0978,-2.1568,-2.2071,-2.2636,-2.3078,-2.3078,-2.3078,-2.3065,-2.3005,-2.2494,-2.1978,-2.1978,-2.1614,-2.1384,-2.1506,-2.1922,-2.2155,-2.1626,-2.184,-2.2371,-2.3073,-2.2649,-2.2134,-2.1886,-2.1328,-2.0819,-2.0644,-2.0566,-2.0566,-2.0566,-2.0566,-2.0566,-2.0566,-2.0566,-2.0566,-2.0566,-2.0566,-2.0566,-2.0566,-2.0566,-2.0566,-2.0566,-2.0566,-2.0566,-2.0566,-2.0489,-2.0089,-1.9301,-2.0089,-2.001,-1.9143,-1.9134,-1.8638,-1.9282,-1.9625,-1.992,-1.9309,0.0,0.0,-1.9938,-1.915,-1.8753,0.0,0.0,0.0,0.0,0.0,0.0,0.0,0.0,0.0,0.0,0.0,0.0,0.0,0.0,0.0,-1.77,-1.7364,-1.7303,-1.7805,-1.8515,-1.9015,-1.9201,-1.9597,-1.969,-1.9369,-1.9369,-1.8945,-1.8054,-1.8028,-1.7707,-1.7157,-1.7073,-1.7002,-1.6956,-1.7964,-1.8427,-1.849,-1.9434,-1.9862,-1.9862,-1.9798,-1.9811,-1.9862,-1.9862,-1.9811,-1.9798,-1.9811,-1.9811,-1.9823,-1.9924,-2.0639,-2.1506,-2.1606,-2.2322,-2.3078,-2.3078,-2.3078,-2.3005,-2.2433,-2.1803,-2.1239,-2.1089,-2.0593,-2.0194,-2.0428,-2.0197,-2.0001,-2.0414,-2.0561,-2.0732,-2.1084,-2.1185,-2.1118,-2.0944,-2.0712,-2.0644,-2.0644,-2.0566,-2.0566,-2.0566,-2.0566,-2.0566,-2.0566,-2.0566,-2.0566,-2.0566,-2.0566,-2.0566,-2.0566,-2.0566,-2.0566,-2.0566,-2.0566,-2.0566,-2.0566,-1.9932,-1.946,-1.9301,-1.946,-1.9134,-1.8238,-1.8069,-1.79,-1.9342,-1.9444,-1.9667,-1.9525,0.0,0.0,0.0,0.0,-1.8593,0.0,0.0,0.0,0.0,0.0,0.0,0.0,0.0,0.0,0.0,0.0,0.0,0.0,0.0,0.0,-1.8099,-1.7838,-1.7884,-1.8457,-1.8706,-1.8936,-1.9281,-1.9596,-1.953,-1.9035,-1.902,-1.8588,-1.7679,-1.7639,-1.7393,-1.696,-1.6846,-1.6803,-1.6829,-1.7536,-1.8033,-1.8336,-1.9058,-1.956,-1.9798,-1.9798,-1.9798,-1.9798,-1.9798,-1.9798,-1.9798,-1.9798,-1.9987,-2.0275,-2.0552,-2.1192,-2.1945,-2.2221,-2.2686,-2.3078,-2.3078,-2.2884,-2.2433,-2.1655,-2.0974,-2.0409,-2.0268,-1.9788,-1.9318,-1.925,-1.9263,-1.931,-1.9374,-1.9757,-2.0121,-2.0195,-2.0497,-2.0731,-2.0644,-2.0566,-2.0566,-2.0566,-2.0566,-2.0566,-2.0566,-2.0566,-2.0566,-2.0566,-2.0566,-2.0566,-2.0566,-2.0566,-2.0566,-2.0566,-2.0566,-2.0566,-2.0566,-2.0566,-2.0411,-1.9932,-1.8966,-1.8318,-1.7844,-1.7755,-1.7513,-1.7196,-1.7107,-1.669,0.0,0.0,0.0,0.0,0.0,-1.9546,0.0,0.0,0.0,0.0,0.0,0.0,0.0,0.0,0.0,0.0,0.0,0.0,0.0,0.0,0.0,0.0,0.0,0.0,-1.8512,-1.8298,-1.8371,-1.8909,-1.8665,-1.8787,-1.9388,-1.9522,-1.931,-1.8707,-1.8679,-1.8238,-1.7393,-1.7352,-1.7199,-1.6846,-1.6718,-1.6675,-1.6688,-1.7169,-1.7689,-1.8242,-1.8794,-1.9321,-1.9798,-1.9798,-1.9798,-1.9798,-1.9798,-1.9798,-1.9798,-1.9798,-2.0162,-2.0781,-2.1179,-2.1757,-2.2385,-2.2836,-2.2917,-2.2884,-2.2884,-2.2298,-2.1467,-2.076,-2.0074,-1.9518,-1.9375,-1.9053,-1.8696,-1.8349,-1.8675,-1.8965,-1.8701,-1.9248,-1.9814,-1.9893,-2.0273,-2.0566,-2.0566,-2.0566,-2.0566,-2.0566,-2.0566,-2.0566,-2.0566,-2.0566,-2.0566,-2.0566,-2.0566,-2.0566,-2.0566,-2.0566,-2.0566,-2.0566,-2.0401,-2.0323,-2.0323,-2.0157,-1.9687,-1.8895,-1.7908,-1.7017,-1.6304,-1.5966,-1.5884,-1.6064,-1.6064,-1.5394,0.0,0.0,0.0,0.0,-2.0906,0.0,0.0,0.0,0.0,0.0,0.0,0.0,0.0,0.0,0.0,0.0,0.0,0.0,0.0,0.0,0.0,0.0,0.0,0.0,0.0,-1.8667,-1.8145,-1.8691,-1.8164,-1.8085,-1.8792,-1.9038,-1.8936,-1.8383,-1.8028,-1.7557,-1.696,-1.6846,-1.6761,-1.6718,-1.6577,-1.6522,-1.6534,-1.7112,-1.7689,-1.8242,-1.8794,-1.9321,-1.9798,-1.9798,-1.9798,-1.9798,-1.9798,-1.9798,-1.9798,-1.9798,-2.0162,-2.0731,-2.0794,-2.1443,-2.2322,-2.2385,-2.2247,-2.2075,-2.2075,-2.1037,-1.9879,-1.9748,-1.9177,-1.8607,-1.8472,-1.8434,-1.8329,-1.8086,-1.8086,-1.8242,-1.8494,-1.9014,-1.9473,-1.9844,-2.0273,-2.0566,-2.0566,-2.0566,-2.0566,-2.0566,-2.0566,-2.0566,-2.0566,-2.0566,-2.0566,-2.0566,-2.0566,-2.0566,-2.0566,-2.0566,-2.0566,-2.0566,-1.9854,-1.946,-1.946,-1.855,-1.79,-1.7496,-1.669,-1.6124,-1.6041,-1.522,-1.4901,-1.4901,-1.4727,-1.4559,0.0,0.0,0.0,0.0,0.0,0.0,-1.9421,0.0,-1.8784,0.0,0.0,0.0,0.0,0.0,0.0,0.0,0.0,0.0,0.0,0.0,0.0,0.0,0.0,0.0,0.0,-1.9682,-1.9325,-1.9867,-1.8916,-1.8431,-1.8804,-1.8912,-1.8602,-1.7774,-1.7571,-1.7214,-1.665,-1.662,-1.6577,-1.6577,-1.6522,-1.6522,-1.6522,-1.6773,-1.7363,-1.8216,-1.8455,-1.9032,-1.9798,-1.9798,-1.9798,-1.9798,-1.9798,-1.9798,-1.9798,-1.9798,-2.0376,-2.1142,-2.1142,-2.187,-2.2668,-2.2236,-2.1884,-2.1553,-2.0782,-2.0139,-1.9497,-1.8977,-1.8596,-1.8337,-1.8144,-1.8144,-1.8076,-1.8008,-1.8008,-1.8125,-1.8545,-1.8984,-1.9414,-1.9834,-2.0273,-2.0566,-2.0566,-2.0566,-2.0566,-2.0566,-2.0566,-2.0566,-2.0566,-2.0566,-2.0566,-2.0566,-2.0566,-2.0411,-1.9854,-1.9854,-1.9608,-1.9116,-1.8638,-1.8399,-1.8399,-1.7334,-1.6683,-1.6527,-1.5545,-1.5054,-1.5054,-1.4573,-1.4328,-1.4328,-1.4398,-1.4314,-2.1698,0.0,0.0,0.0,0.0,0.0,0.0,0.0,0.0,0.0,0.0,0.0,0.0,0.0,0.0,0.0,0.0,0.0,0.0,0.0,0.0,0.0,0.0,0.0,0.0,-2.0112,-1.9935,-2.0474,0.0,-1.8797,-1.9066,-1.8869,-1.8341,-1.7517,-1.7242,-1.6921,-1.6522,-1.6522,-1.6522,-1.6522,-1.6522,-1.6522,-1.6522,-1.6522,-1.7137,-1.8204,-1.8204,-1.8807,-1.9798,-1.9798,-1.9798,-1.9798,-1.9798,-1.9798,-1.9759,-1.9798,-2.0426,-2.1237,-2.1387,-2.1977,-2.2567,-2.1803,-2.129,-2.0782,-1.9824,-1.9365,-1.9044,-1.8405,-1.8202,-1.8212,-1.8008,-1.8008,-1.8008,-1.8008,-1.8008,-1.8125,-1.8545,-1.8984,-1.9414,-1.9834,-2.0273,-2.0566,-2.0566,-2.0566,-2.0566,-2.0566,-2.0566,-2.0566,-2.0566,-2.0566,-2.0489,-2.0245,-2.0245,-1.9923,-1.9054,-1.8886,-1.8479,-1.7504,-1.7334,-1.709,-1.6846,-1.6034,-1.5545,-1.547,-1.4727,-1.4321,-1.4321,-1.4166,-1.4088,-1.4088,-1.4243,-1.4243,0.0,0.0,0.0,-2.0569,0.0,0.0,0.0,0.0,-1.9434,0.0,0.0,0.0,0.0,0.0,0.0,0.0,0.0,0.0,0.0,0.0,0.0,0.0,0.0,0.0,0.0,0.0,-1.917,0.0,-1.9091,-1.8967,-1.9545,-1.8784,-1.8226,-1.7988,-1.7157,-1.6675,-1.6522,-1.6522,-1.6522,-1.6522,-1.6522,-1.6522,-1.6522,-1.6522,-1.7137,-1.8204,-1.8204,-1.8807,-1.9798,-1.9798,-1.9798,-1.9798,-1.9798,-1.9708,-1.9604,-1.9759,-2.0135,-2.0628,-2.1151,-2.1437,-2.1553,-2.0846,-2.0074,-1.9365,-1.9299,-1.8721,-1.8076,-1.8008,-1.8008,-1.8008,-1.8008,-1.8008,-1.8008,-1.8008,-1.8008,-1.8125,-1.8545,-1.8984,-1.9414,-1.9834,-2.0273,-2.0566,-2.0566,-2.0566,-2.0566,-2.0566,-2.0566,-2.0566,-2.0566,-2.0566,-2.0245,-1.946,-1.9301,-1.8975,-1.8078,-1.7827,-1.7253,-1.6124,-1.6034,-1.5628,-1.4559,-1.4475,-1.4321,-1.4166,-1.4173,-1.4088,-1.4088,-1.4088,-1.4088,-1.4088,-1.4088,-1.4088,0.0,0.0,-2.2339,-2.118,0.0,0.0,0.0,0.0,0.0,0.0,0.0,0.0,0.0,0.0,0.0,0.0,0.0,0.0,0.0,0.0,0.0,0.0,0.0,0.0,0.0,0.0,0.0,0.0,-1.9989,0.0,-1.9409,-1.9051,-1.8303,-1.717,-1.6778,-1.6534,-1.6522,-1.6522,-1.6522,-1.6522,-1.6522,-1.6522,-1.6522,-1.6522,-1.7137,-1.8204,-1.8204,-1.8807,-1.9798,-1.9798,-1.9798,-1.9798,-1.9708,-1.9656,-1.9617,-1.9656,-1.9964,-2.0367,-2.0836,-2.1173,-2.125,-2.0139,-1.9431,-1.9044,-1.8586,-1.8202,-1.8008,-1.8008,-1.8008,-1.8008,-1.8008,-1.8213,-1.835,-1.8076,-1.8223,-1.8545,-1.8975,-1.918,-1.9492,-2.0205,-2.0469,-2.0566,-2.0566,-2.0566,-2.0566,-2.0566,-2.0566,-2.0566,-2.0566,-2.0566,-2.0245,-1.9381,-1.9301,-1.8656,-1.7123,-1.6206,-1.5545,-1.5144,-1.497,-1.4803,-1.4391,-1.4243,-1.4166,-1.4088,-1.4088,-1.4088,-1.4088,-1.4088,-1.4088,-1.4088,-1.4088,-1.4088,-2.0662,-2.1186,0.0,-2.0657,-2.0559,0.0,-1.9456,0.0,0.0,0.0,0.0,0.0,0.0,0.0,0.0,0.0,0.0,0.0,0.0,0.0,0.0,0.0,0.0,0.0,0.0,0.0,-2.0264,-2.1261,-2.0505,0.0,0.0,-1.9308,-1.8464,-1.7183,-1.6708,-1.6522,-1.6522,-1.6522,-1.6522,-1.6522,-1.6522,-1.6479,-1.6479,-1.6479,-1.708,-1.8144,-1.8204,-1.8807,-1.9798,-1.9759,-1.9759,-1.9708,-1.9565,-1.9512,-1.9473,-1.9512,-1.9768,-2.0064,-2.0199,-2.0387,-2.0344,-1.9243,-1.8721,-1.8596,-1.8144,-1.8008,-1.8008,-1.8008,-1.8008,-1.8008,-1.8008,-1.8213,-1.835,-1.8076,-1.8213,-1.8574,-1.916,-1.9287,-1.9541,-2.0323,-2.0489,-2.0489,-2.0411,-2.0333,-2.0411,-2.0566,-2.0566,-2.0566,-2.0566,-2.0245,-1.9687,-1.8807,-1.8399,-1.7432,-1.5809,-1.4977,-1.4573,-1.4489,-1.4321,-1.4321,-1.4321,-1.4166,-1.4088,-1.4088,-1.4088,-1.4088,-1.4088,-1.4088,-1.4088,-1.4088,-1.4088,-1.4088]}]]